[[{"header":{"parameterUnit":"m.s-1","parameterCategory":1,"la1":30.6,"la2":28.766,"lo1":-90.7593,"lo2":-88.6598,"dy":0.0162,"dx":0.0183,"nx":116,"ny":114,"refTime":"2023-05-14T12:00:00:Z","depth":0,"parameterNumber":2,"parameterNumberName":"U-component_of_WINDS"},"data":[0.0,0.0,0.0,0.0,0.0,0.0,0.0,0.0,0.0,0.0,0.0,0.0,0.0,0.0,0.0,0.0,0.0,0.0,0.0,0.0,0.0,0.0,0.0,0.0,0.0,0.0,0.0,0.0,0.0,0.0,0.0,0.0,0.0,0.0,0.0,0.0,0.0,0.0,0.0,0.0,0.0,0.0,0.0,0.0,0.0,0.0,0.0,0.0,0.0,0.0,0.0,0.0,0.0,0.0,0.0,0.0,0.0,0.0,0.0,0.0,0.0,0.0,0.0,0.0,0.0,0.0,0.0,0.0,0.0,0.0,0.0,0.0,0.0,0.0,0.0,0.0,0.0,0.0,0.0,0.0,0.0,0.0,0.0,0.0,0.0,0.0,0.0,0.0,0.0,0.0,0.0,0.0,0.0,0.0,0.0,0.0,0.0,0.0,0.0,0.0,0.0,0.0,0.0,0.0,0.0,0.0,0.0,0.0,0.0,0.0,0.0,0.0,0.0,0.0,0.0,0.0,0.0,0.0,0.0,0.0,0.0,0.0,0.0,0.0,0.0,0.0,0.0,0.0,0.0,0.0,0.0,0.0,0.0,0.0,0.0,0.0,0.0,0.0,0.0,0.0,0.0,0.0,0.0,0.0,0.0,0.0,0.0,0.0,0.0,0.0,0.0,0.0,0.0,0.0,0.0,0.0,0.0,0.0,0.0,0.0,0.0,0.0,0.0,0.0,0.0,0.0,0.0,0.0,0.0,0.0,0.0,0.0,0.0,0.0,0.0,0.0,0.0,0.0,0.0,0.0,0.0,0.0,0.0,0.0,0.0,0.0,0.0,0.0,0.0,0.0,0.0,0.0,0.0,0.0,0.0,0.0,0.0,0.0,0.0,0.0,0.0,0.0,0.0,0.0,0.0,0.0,0.0,0.0,0.0,0.0,0.0,0.0,0.0,0.0,0.0,0.0,0.0,0.0,0.0,0.0,0.0,0.0,0.0,0.0,0.0,0.0,0.0,0.0,0.0,0.0,0.0,0.0,0.0,0.0,0.0,0.0,0.0,0.0,0.0,0.0,0.0,0.0,0.0,0.0,0.0,0.0,0.0,0.0,0.0,0.0,0.0,0.0,0.0,0.0,0.0,0.0,0.0,0.0,0.0,0.0,0.0,0.0,0.0,0.0,0.0,0.0,0.0,0.0,0.0,0.0,0.0,0.0,0.0,0.0,0.0,0.0,0.0,0.0,0.0,0.0,0.0,0.0,0.0,0.0,0.0,0.0,0.0,0.0,0.0,0.0,0.0,0.0,0.0,0.0,0.0,0.0,0.0,0.0,0.0,0.0,0.0,0.0,0.0,0.0,0.0,0.0,0.0,0.0,0.0,0.0,0.0,0.0,0.0,0.0,0.0,0.0,0.0,0.0,0.0,0.0,0.0,0.0,0.0,0.0,0.0,0.0,0.0,0.0,0.0,0.0,0.0,0.0,0.0,0.0,0.0,0.0,0.0,0.0,0.0,0.0,0.0,0.0,0.0,0.0,0.0,0.0,0.0,0.0,0.0,0.0,0.0,0.0,0.0,0.0,0.0,0.0,0.0,0.0,0.0,0.0,0.0,0.0,0.0,0.0,0.0,0.0,0.0,0.0,0.0,0.0,0.0,0.0,0.0,0.0,0.0,0.0,0.0,0.0,0.0,0.0,0.0,0.0,0.0,0.0,0.0,0.0,0.0,0.0,0.0,0.0,0.0,0.0,0.0,0.0,0.0,0.0,0.0,0.0,0.0,0.0,0.0,0.0,0.0,0.0,0.0,0.0,0.0,0.0,0.0,0.0,0.0,0.0,0.0,0.0,0.0,0.0,0.0,0.0,0.0,0.0,0.0,0.0,0.0,0.0,0.0,0.0,0.0,0.0,0.0,0.0,0.0,0.0,0.0,0.0,0.0,0.0,0.0,0.0,0.0,0.0,0.0,0.0,0.0,0.0,0.0,0.0,0.0,0.0,0.0,0.0,0.0,0.0,0.0,0.0,0.0,0.0,0.0,0.0,0.0,0.0,0.0,0.0,0.0,0.0,0.0,0.0,0.0,0.0,0.0,0.0,0.0,0.0,0.0,0.0,0.0,0.0,0.0,0.0,0.0,0.0,0.0,0.0,0.0,0.0,0.0,0.0,0.0,0.0,0.0,0.0,0.0,0.0,0.0,0.0,0.0,0.0,0.0,0.0,0.0,0.0,0.0,0.0,0.0,0.0,0.0,0.0,0.0,0.0,0.0,0.0,0.0,0.0,0.0,0.0,0.0,0.0,0.0,0.0,0.0,0.0,0.0,0.0,0.0,0.0,0.0,0.0,0.0,0.0,0.0,0.0,0.0,0.0,0.0,0.0,0.0,0.0,0.0,0.0,0.0,0.0,0.0,0.0,0.0,0.0,0.0,0.0,0.0,0.0,0.0,0.0,0.0,0.0,0.0,0.0,0.0,0.0,0.0,0.0,0.0,0.0,0.0,0.0,0.0,0.0,0.0,0.0,0.0,0.0,0.0,0.0,0.0,0.0,0.0,0.0,0.0,0.0,0.0,0.0,0.0,0.0,0.0,0.0,0.0,0.0,0.0,0.0,0.0,0.0,0.0,0.0,0.0,0.0,0.0,0.0,0.0,0.0,0.0,0.0,0.0,0.0,0.0,0.0,0.0,0.0,0.0,0.0,0.0,0.0,0.0,0.0,0.0,0.0,0.0,0.0,0.0,0.0,0.0,0.0,0.0,0.0,0.0,0.0,0.0,0.0,0.0,0.0,0.0,0.0,0.0,0.0,0.0,0.0,0.0,0.0,0.0,0.0,0.0,0.0,0.0,0.0,0.0,0.0,0.0,0.0,0.0,0.0,0.0,0.0,0.0,0.0,0.0,0.0,0.0,0.0,0.0,0.0,0.0,0.0,0.0,0.0,0.0,0.0,0.0,0.0,0.0,0.0,0.0,0.0,0.0,0.0,0.0,0.0,0.0,0.0,0.0,0.0,0.0,0.0,0.0,0.0,0.0,0.0,0.0,0.0,0.0,0.0,0.0,0.0,0.0,0.0,0.0,0.0,0.0,0.0,0.0,0.0,0.0,0.0,0.0,0.0,0.0,0.0,0.0,0.0,0.0,0.0,0.0,0.0,0.0,0.0,0.0,0.0,0.0,0.0,0.0,0.0,0.0,0.0,0.0,0.0,0.0,0.0,0.0,0.0,0.0,0.0,0.0,0.0,0.0,0.0,0.0,0.0,0.0,0.0,0.0,0.0,0.0,0.0,0.0,0.0,0.0,0.0,0.0,0.0,0.0,0.0,0.0,0.0,0.0,0.0,0.0,0.0,0.0,0.0,0.0,0.0,0.0,0.0,0.0,0.0,0.0,0.0,0.0,0.0,0.0,0.0,0.0,0.0,0.0,0.0,0.0,0.0,0.0,0.0,0.0,0.0,0.0,0.0,0.0,0.0,0.0,0.0,0.0,0.0,0.0,0.0,0.0,0.0,0.0,0.0,0.0,0.0,0.0,0.0,0.0,0.0,0.0,0.0,0.0,0.0,0.0,0.0,0.0,0.0,0.0,0.0,0.0,0.0,0.0,0.0,0.0,0.0,0.0,0.0,0.0,0.0,0.0,0.0,0.0,0.0,0.0,0.0,0.0,0.0,0.0,0.0,0.0,0.0,0.0,0.0,0.0,0.0,0.0,0.0,0.0,0.0,0.0,0.0,0.0,0.0,0.0,0.0,0.0,0.0,0.0,0.0,0.0,0.0,0.0,0.0,0.0,0.0,0.0,0.0,0.0,0.0,0.0,0.0,0.0,0.0,0.0,0.0,0.0,0.0,0.0,0.0,0.0,0.0,0.0,0.0,0.0,0.0,0.0,0.0,0.0,0.0,0.0,0.0,0.0,0.0,0.0,0.0,0.0,0.0,0.0,0.0,0.0,0.0,0.0,0.0,0.0,0.0,0.0,0.0,0.0,0.0,0.0,0.0,0.0,0.0,0.0,0.0,0.0,0.0,0.0,0.0,0.0,0.0,0.0,0.0,0.0,0.0,0.0,0.0,0.0,0.0,0.0,0.0,0.0,0.0,0.0,0.0,0.0,0.0,0.0,0.0,0.0,0.0,0.0,0.0,0.0,0.0,0.0,0.0,0.0,0.0,0.0,0.0,0.0,0.0,0.0,0.0,0.0,0.0,0.0,0.0,0.0,0.0,0.0,0.0,0.0,0.0,0.0,0.0,0.0,0.0,0.0,0.0,0.0,0.0,0.0,0.0,0.0,0.0,0.0,0.0,0.0,0.0,0.0,0.0,0.0,0.0,0.0,0.0,0.0,0.0,0.0,0.0,0.0,0.0,0.0,0.0,0.0,0.0,0.0,0.0,0.0,0.0,0.0,0.0,0.0,0.0,0.0,0.0,0.0,0.0,0.0,0.0,0.0,0.0,0.0,0.0,0.0,0.0,0.0,0.0,0.0,0.0,0.0,0.0,0.0,0.0,0.0,0.0,0.0,0.0,0.0,0.0,0.0,0.0,0.0,0.0,0.0,0.0,0.0,0.0,0.0,0.0,0.0,0.0,0.0,0.0,0.0,0.0,0.0,0.0,0.0,0.0,0.0,0.0,0.0,0.0,0.0,0.0,0.0,0.0,0.0,0.0,0.0,0.0,0.0,0.0,0.0,0.0,0.0,0.0,0.0,0.0,0.0,0.0,0.0,0.0,0.0,0.0,0.0,0.0,0.0,0.0,0.0,0.0,0.0,0.0,0.0,0.0,0.0,0.0,0.0,0.0,0.0,0.0,0.0,0.0,0.0,0.0,0.0,0.0,0.0,0.0,0.0,0.0,0.0,0.0,0.0,0.0,0.0,0.0,0.0,0.0,0.0,0.0,0.0,0.0,0.0,0.0,0.0,0.0,0.0,0.0,0.0,0.0,0.0,0.0,0.0,0.0,0.0,0.0,0.0,0.0,0.0,0.0,0.0,0.0,0.0,0.0,0.0,0.0,0.0,0.0,0.0,0.0,0.0,0.0,0.0,0.0,0.0,0.0,0.0,0.0,0.0,0.0,0.0,0.0,0.0,0.0,0.0,0.0,0.0,0.0,0.0,0.0,0.0,0.0,0.0,0.0,0.0,0.0,0.0,0.0,0.0,0.0,0.0,0.0,0.0,0.0,0.0,0.0,0.0,0.0,0.0,0.0,0.0,0.0,0.0,0.0,0.0,0.0,0.0,0.0,0.0,0.0,0.0,0.0,0.0,0.0,0.0,0.0,0.0,0.0,0.0,0.0,0.0,0.0,0.0,0.0,0.0,0.0,0.0,0.0,0.0,0.0,0.0,0.0,0.0,0.0,0.0,0.0,0.0,0.0,0.0,0.0,0.0,0.0,0.0,0.0,0.0,0.0,0.0,0.0,0.0,0.0,0.0,0.0,0.0,0.0,0.0,0.0,0.0,0.0,0.0,0.0,0.0,0.0,0.0,0.0,0.0,0.0,0.0,0.0,0.0,0.0,0.0,0.0,0.0,0.0,0.0,0.0,0.0,0.0,0.0,0.0,0.0,0.0,0.0,0.0,0.0,0.0,0.0,0.0,0.0,0.0,0.0,0.0,0.0,0.0,0.0,0.0,0.0,0.0,0.0,0.0,0.0,0.0,0.0,0.0,0.0,0.0,0.0,0.0,0.0,0.0,0.0,0.0,0.0,0.0,0.0,0.0,0.0,0.0,0.0,0.0,0.0,0.0,0.0,0.0,0.0,0.0,0.0,0.0,0.0,0.0,0.0,0.0,0.0,0.0,0.0,0.0,0.0,0.0,0.0,0.0,0.0,0.0,0.0,0.0,0.0,0.0,0.0,0.0,0.0,0.0,0.0,0.0,0.0,0.0,0.0,0.0,0.0,0.0,0.0,0.0,0.0,0.0,0.0,0.0,0.0,0.0,0.0,0.0,0.0,0.0,0.0,0.0,0.0,0.0,0.0,0.0,0.0,0.0,0.0,0.0,0.0,0.0,0.0,0.0,0.0,0.0,0.0,0.0,0.0,0.0,0.0,0.0,0.0,0.0,0.0,0.0,0.0,0.0,0.0,0.0,0.0,0.0,0.0,0.0,0.0,0.0,0.0,0.0,0.0,0.0,1.5257,0.0,0.0,0.0,0.0,0.0,0.0,0.0,0.0,0.0,0.0,0.0,0.0,0.0,0.0,0.0,0.0,0.0,0.0,0.0,0.0,0.0,0.0,0.0,0.0,0.0,0.0,0.0,0.0,0.0,0.0,0.0,0.0,0.0,0.0,0.0,0.0,0.0,0.0,0.0,0.0,0.0,0.0,0.0,0.0,0.0,0.0,0.0,0.0,0.0,0.0,0.0,0.0,0.0,0.0,0.0,0.0,0.0,0.0,0.0,0.0,0.0,0.0,0.0,0.0,0.0,0.0,0.0,0.0,0.0,0.0,0.0,0.0,0.0,0.0,0.0,0.0,0.0,0.0,0.0,0.0,0.0,0.0,0.0,0.0,0.0,0.0,0.0,0.0,0.0,0.0,0.0,0.0,0.0,0.0,0.0,0.0,0.0,0.0,0.0,0.0,0.0,0.0,0.0,0.0,0.0,0.0,0.0,0.0,0.0,0.0,0.0,0.0,0.0,0.0,0.0,0.0,1.6271,0.0,0.0,0.0,0.0,0.0,0.0,0.0,0.0,0.0,0.0,0.0,0.0,0.0,0.0,0.0,0.0,0.0,0.0,0.0,0.0,0.0,0.0,0.0,0.0,0.0,0.0,0.0,0.0,0.0,0.0,0.0,0.0,0.0,0.0,0.0,0.0,0.0,0.0,0.0,0.0,0.0,0.0,0.0,0.0,0.0,0.0,0.0,0.0,0.0,0.0,0.0,0.0,0.0,0.0,0.0,0.0,0.0,0.0,0.0,0.0,0.0,0.0,0.0,0.0,0.0,0.0,0.0,0.0,0.0,0.0,0.0,0.0,0.0,0.0,0.0,0.0,0.0,0.0,0.0,0.0,0.0,0.0,0.0,0.0,0.0,0.0,0.0,0.0,0.0,0.0,0.0,0.0,0.0,0.0,0.0,0.0,0.0,0.0,0.0,0.0,0.0,0.0,0.0,0.0,0.0,0.0,0.0,0.0,2.1583,2.1824,2.2263,2.1993,2.1882,2.1724,1.9659,1.826,1.741,0.0,0.0,0.0,0.0,0.0,0.0,0.0,0.0,0.0,0.0,0.0,0.0,0.0,0.0,0.0,0.0,0.0,0.0,0.0,0.0,0.0,0.0,0.0,0.0,0.0,0.0,0.0,0.0,0.0,0.0,0.0,0.0,0.0,0.0,0.0,0.0,0.0,0.0,0.0,2.4636,2.4471,2.4146,2.3526,0.0,0.0,0.0,0.0,0.0,0.0,0.0,0.0,0.0,0.0,0.0,0.0,0.0,0.0,0.0,0.0,0.0,0.0,0.0,0.0,0.0,0.0,0.0,0.0,0.0,0.0,0.0,0.0,0.0,0.0,0.0,0.0,0.0,0.0,0.0,0.0,0.0,0.0,0.0,0.0,0.0,0.0,0.0,0.0,1.5891,1.6546,0.0,0.0,0.0,0.0,0.0,0.0,0.0,0.0,0.0,0.0,0.0,0.0,0.0,0.0,2.2045,2.2536,2.2794,2.2707,2.32,2.334,2.3204,2.3152,2.3049,2.2775,2.2466,0.0,1.9844,1.8508,0.0,0.0,0.0,0.0,0.0,0.0,0.0,0.0,0.0,0.0,0.0,0.0,0.0,0.0,0.0,0.0,0.0,0.0,0.0,0.0,0.0,0.0,0.0,0.0,0.0,0.0,0.0,0.0,0.0,0.0,0.0,0.0,0.0,0.0,0.0,0.0,2.6243,2.6644,2.7141,2.6997,2.6664,2.605,2.4544,2.2658,2.0515,1.9751,0.0,0.0,0.0,0.0,0.0,0.0,0.0,0.0,0.0,0.0,0.0,0.0,0.0,0.0,0.0,0.0,0.0,0.0,0.0,0.0,0.0,0.0,0.0,0.0,0.0,0.0,0.0,0.0,0.0,0.0,0.0,0.0,0.0,0.0,0.0,0.0,0.0,0.0,0.0,1.6548,1.7199,1.7912,1.7998,1.8164,0.0,0.0,0.0,0.0,0.0,0.0,0.0,0.0,0.0,2.2625,2.3731,2.4329,2.4189,2.4403,2.459,2.483,2.4984,2.5232,2.5392,2.5222,2.5064,2.4922,2.4429,2.3601,2.2445,2.0514,1.9337,1.8642,0.0,0.0,0.0,0.0,0.0,1.6211,0.0,0.0,0.0,0.0,0.0,0.0,0.0,0.0,0.0,0.0,0.0,0.0,0.0,0.0,0.0,2.4379,0.0,0.0,0.0,0.0,0.0,0.0,0.0,0.0,0.0,0.0,0.0,0.0,2.7882,2.8329,2.9042,2.8834,2.8419,2.7775,2.6971,2.5184,2.2617,2.1602,2.0134,0.0,0.0,0.0,0.0,0.0,0.0,0.0,0.0,0.0,0.0,0.0,0.0,0.0,0.0,0.0,0.0,0.0,0.0,0.0,0.0,0.0,0.0,0.0,0.0,0.0,0.0,0.0,0.0,0.0,0.0,0.0,0.0,0.0,0.0,0.0,0.0,0.0,0.0,1.8068,1.8606,1.9322,1.9535,1.9931,0.0,0.0,0.0,0.0,0.0,0.0,2.3334,2.4382,2.4958,2.4941,2.5869,2.6384,2.6436,2.6378,2.6555,2.6937,2.6818,2.6991,2.7291,2.6883,2.6706,2.6556,2.5725,2.5103,2.4452,2.2325,2.0961,2.0054,1.9089,1.8446,1.8015,1.7473,1.7363,1.7371,0.0,0.0,0.0,0.0,0.0,0.0,0.0,0.0,0.0,0.0,0.0,0.0,0.0,0.0,2.5345,2.5263,2.576,2.6016,0.0,0.0,0.0,0.0,0.0,0.0,0.0,0.0,0.0,2.7955,2.8967,2.9451,2.9347,2.9042,2.8805,2.8623,2.824,2.686,2.4765,2.3206,2.2027,2.1008,0.0,0.0,0.0,0.0,0.0,0.0,0.0,0.0,0.0,0.0,0.0,0.0,0.0,0.0,0.0,0.0,0.0,0.0,0.0,0.0,0.0,0.0,0.0,0.0,0.0,0.0,0.0,0.0,0.0,0.0,0.0,0.0,0.0,0.0,0.0,0.0,0.0,0.0,0.0,2.1193,2.1815,0.0,0.0,0.0,0.0,2.5066,2.5625,2.5819,2.5656,2.6176,2.6689,2.7055,2.769,2.825,2.8843,2.8793,2.8743,2.8643,2.8643,2.8529,2.822,2.7642,2.7183,2.6852,2.6209,2.5746,2.5327,2.3593,2.2221,2.1225,2.0925,2.0156,1.9128,1.8956,1.8484,1.7892,0.0,0.0,0.0,0.0,0.0,0.0,0.0,0.0,0.0,0.0,0.0,0.0,0.0,2.5017,2.5832,2.6634,2.6861,2.6882,2.6718,0.0,0.0,0.0,0.0,0.0,0.0,0.0,2.9423,3.0164,3.028,3.0513,3.075,3.048,3.0192,3.0003,2.9188,2.8324,2.7385,2.5368,2.3464,2.1803,2.0836,1.98,0.0,0.0,0.0,0.0,0.0,0.0,0.0,0.0,0.0,0.0,0.0,0.0,0.0,0.0,0.0,0.0,0.0,0.0,0.0,0.0,0.0,0.0,0.0,0.0,0.0,0.0,0.0,0.0,0.0,0.0,0.0,0.0,0.0,0.0,0.0,0.0,0.0,2.3325,2.3951,0.0,0.0,2.5605,2.6287,2.651,2.7398,2.7922,2.7861,2.847,2.8837,2.898,2.9481,2.9827,3.006,2.9955,2.9821,2.9673,2.9673,2.9538,2.9266,2.8917,2.8675,2.8539,2.8137,2.7426,2.6608,2.573,2.4336,2.275,2.2196,2.142,2.0655,2.0494,2.0155,1.978,0.0,0.0,0.0,0.0,0.0,0.0,0.0,0.0,0.0,0.0,0.0,2.3671,2.4603,2.5469,2.6286,2.7123,2.7334,2.7374,2.7226,0.0,0.0,0.0,0.0,0.0,0.0,2.9962,3.0608,3.1382,3.1247,3.1317,3.1567,3.1249,3.1014,3.0881,2.9923,2.9309,2.8802,2.7109,2.5107,2.3003,2.2496,2.1374,1.9872,0.0,0.0,0.0,0.0,0.0,0.0,0.0,0.0,0.0,0.0,0.0,0.0,0.0,0.0,0.0,0.0,0.0,0.0,0.0,0.0,0.0,0.0,0.0,0.0,0.0,0.0,0.0,0.0,0.0,0.0,0.0,0.0,0.0,0.0,0.0,2.4861,2.5356,2.6128,2.6707,2.6927,2.7671,2.8291,2.8705,2.949,2.9989,3.0115,3.0594,3.0856,3.1062,3.121,3.1425,3.1643,3.124,3.1003,3.0905,3.0717,3.0481,3.0268,2.9926,2.9705,2.9607,2.9152,2.8492,2.7631,2.7163,2.6029,2.4368,2.3286,2.2523,2.1918,2.149,2.1076,2.0701,0.0,0.0,0.0,0.0,0.0,0.0,0.0,0.0,0.0,0.0,0.0,2.4859,2.4722,2.6024,2.6826,2.664,2.7173,2.7484,2.7444,2.7921,0.0,0.0,0.0,0.0,3.0275,3.1303,3.1663,3.1466,3.183,3.194,3.1799,3.1322,3.1087,3.1073,3.0416,2.9633,2.8856,2.8399,2.6941,2.4859,2.4691,2.2986,2.0564,0.0,0.0,0.0,0.0,0.0,0.0,0.0,0.0,0.0,0.0,0.0,0.0,0.0,0.0,0.0,0.0,0.0,0.0,0.0,0.0,0.0,0.0,0.0,0.0,0.0,0.0,0.0,0.0,0.0,0.0,0.0,0.0,0.0,2.3406,2.5341,2.6965,2.7239,2.8312,2.9302,3.0,3.0083,3.0579,3.175,3.186,3.2052,3.2413,3.2441,3.2641,3.3078,3.2839,3.3033,3.356,3.2831,3.2448,3.2448,3.1915,3.1575,3.1312,3.0745,3.0275,2.9857,2.9326,2.8864,2.8439,2.7881,2.71,2.6089,2.4424,2.3443,2.2836,2.2005,2.1186,2.0567,0.0,0.0,0.0,0.0,0.0,0.0,0.0,0.0,0.0,0.0,2.3064,2.4859,2.4722,2.6024,2.7029,2.7382,2.7547,2.7811,2.8177,0.0,0.0,0.0,0.0,0.0,3.1932,3.1824,3.2033,3.2493,3.2185,3.1996,3.194,3.1366,3.1014,3.0895,3.0355,2.9752,2.9184,2.8809,2.7835,2.6396,2.5127,2.3949,2.2803,0.0,0.0,0.0,0.0,0.0,0.0,0.0,0.0,0.0,0.0,0.0,0.0,0.0,0.0,0.0,0.0,0.0,0.0,0.0,0.0,0.0,0.0,0.0,0.0,0.0,0.0,0.0,0.0,0.0,0.0,0.0,0.0,2.5707,2.5395,2.7077,2.8518,2.9,2.9711,3.0408,3.1012,3.1441,3.1904,3.2226,3.267,3.2917,3.3091,3.3015,3.3081,3.3242,3.3165,3.3245,3.3341,3.3181,3.301,3.2828,3.2683,3.2448,3.2071,3.1915,3.1681,3.1395,3.0701,2.9999,2.9366,2.8637,2.7853,2.6991,2.5487,2.4378,2.3615,2.3276,2.2862,2.2421,0.0,0.0,0.0,0.0,0.0,0.0,0.0,0.0,0.0,0.0,2.2815,2.4511,2.4671,2.5766,2.669,2.7214,2.755,2.7796,2.8048,0.0,0.0,0.0,0.0,3.1454,3.2556,3.2379,3.2476,3.2897,3.2277,3.1996,3.1996,3.1366,3.1014,3.0776,3.0219,2.9699,2.9247,2.8881,2.8306,2.744,2.6052,2.4957,2.3978,2.2616,2.1631,2.0819,1.9935,1.9145,1.8474,1.8166,0.0,0.0,0.0,0.0,0.0,0.0,0.0,0.0,0.0,0.0,0.0,0.0,0.0,0.0,0.0,0.0,0.0,0.0,0.0,0.0,0.0,0.0,0.0,0.0,2.6678,2.7834,2.8252,2.921,3.0122,3.085,3.1362,3.1867,3.2199,3.2532,3.3008,3.3474,3.3847,3.4193,3.4779,3.4806,3.4806,3.4806,3.4724,3.4523,3.4285,3.3872,3.3461,3.3051,3.271,3.2447,3.222,3.222,3.214,0.0,3.1327,3.0851,3.0248,2.9204,2.8467,0.0,0.0,0.0,0.0,0.0,2.3203,2.2933,0.0,0.0,0.0,0.0,0.0,0.0,0.0,0.0,0.0,0.0,0.0,2.3904,2.4501,2.5285,2.5973,2.6538,2.713,2.7513,0.0,0.0,0.0,3.1335,3.1515,3.1933,3.2684,3.2835,3.2897,3.2897,3.2277,3.1996,3.1925,3.1366,3.0955,3.0702,3.0068,2.9623,2.9233,2.8766,2.8327,2.7973,2.7105,2.5921,2.4589,2.3857,2.3069,2.2226,2.1113,2.0568,2.034,1.9617,0.0,0.0,0.0,0.0,0.0,0.0,0.0,0.0,0.0,0.0,0.0,0.0,0.0,0.0,0.0,0.0,0.0,0.0,0.0,0.0,0.0,0.0,0.0,0.0,2.8435,3.0075,3.1289,3.1538,3.184,3.2508,3.3105,3.3516,3.3582,3.3582,3.4073,3.507,3.515,3.5615,3.6592,0.0,0.0,0.0,0.0,3.6161,3.5549,3.4699,3.4024,3.3436,3.2757,3.235,3.235,3.2286,3.2085,3.1852,3.1574,3.1278,3.1013,2.9733,2.8925,2.8227,2.6371,2.5575,2.523,2.3676,2.2972,2.2823,0.0,0.0,0.0,0.0,0.0,0.0,0.0,0.0,0.0,2.0349,2.1884,2.3131,2.3745,2.4496,2.5186,2.5744,2.5914,2.6657,0.0,0.0,3.0009,3.2023,3.1773,3.2173,3.347,3.3087,3.2897,3.2897,3.2277,3.1925,3.1739,3.1307,3.0821,3.0387,3.0007,2.9435,2.8853,2.8481,2.8039,2.759,2.7085,2.6514,2.5781,2.5014,2.3928,2.2722,2.2499,2.1691,2.0702,2.0548,2.0338,2.0069,1.9624,0.0,0.0,0.0,0.0,0.0,0.0,0.0,0.0,0.0,0.0,0.0,0.0,0.0,0.0,0.0,0.0,0.0,0.0,0.0,0.0,2.8348,2.9707,3.1207,3.2784,3.3149,3.3276,3.3462,3.416,3.479,3.5284,3.5469,3.562,3.5843,3.5856,3.5887,3.5973,3.5986,0.0,3.5696,3.5607,3.5556,3.5453,3.5249,3.5058,3.4943,0.0,0.0,3.4514,3.3795,3.3407,3.3096,3.1956,3.1392,3.1077,3.0181,2.9092,2.782,2.6635,2.6012,2.5716,2.4853,2.4414,2.4221,0.0,0.0,0.0,0.0,0.0,0.0,0.0,0.0,0.0,0.0,2.1162,2.2348,2.2976,2.3699,2.4343,2.4997,2.5292,0.0,0.0,2.8553,2.9517,3.1696,3.166,3.2077,3.315,3.2977,3.2897,3.2897,3.2277,3.1925,3.1682,3.1307,3.0821,3.0251,2.9898,2.9387,2.8803,2.8379,2.7921,2.7469,2.7146,2.6777,2.6391,2.5608,2.463,2.3704,2.3306,2.2494,2.1558,2.1511,2.1283,2.0959,2.0567,2.0211,1.9797,0.0,0.0,0.0,0.0,0.0,0.0,0.0,0.0,0.0,0.0,0.0,0.0,0.0,0.0,2.5734,0.0,0.0,2.9065,2.9688,3.0854,3.2047,3.3146,3.3859,3.4363,3.4523,3.4928,3.5298,3.5594,3.5696,3.5888,3.6172,3.6185,3.6238,3.6457,3.647,3.6379,3.6275,3.6275,3.6134,3.5853,3.5582,3.5352,3.5085,3.4803,3.4635,3.4545,3.418,3.3863,3.3736,3.2735,3.2168,3.1765,3.0438,2.9242,2.8171,2.7579,2.6759,2.5758,2.5165,2.4833,2.4657,0.0,0.0,0.0,0.0,0.0,0.0,0.0,0.0,0.0,0.0,0.0,2.1327,2.1975,2.2535,2.3192,0.0,0.0,0.0,0.0,2.8059,2.8928,3.0991,3.1273,3.1757,3.2572,3.2662,3.2756,3.2827,3.2277,3.1868,3.1625,3.1234,3.0762,3.0266,2.9789,2.9275,2.8803,2.8327,2.7868,2.7403,2.7146,2.6875,2.6595,2.5879,2.514,2.4434,2.3749,2.3008,2.2359,2.2247,2.1909,2.15,2.1307,2.0938,2.0535,2.0286,2.0286,0.0,0.0,0.0,0.0,0.0,0.0,0.0,0.0,0.0,2.5168,2.5961,2.693,2.7673,2.78,2.9126,3.0339,3.0879,3.1786,3.2757,3.342,3.4256,3.4966,3.535,3.5493,3.5583,3.5673,3.5673,3.5942,3.6404,3.6429,3.6634,3.6989,3.7015,3.6922,3.6934,3.6828,3.6612,3.6167,3.5705,3.5294,3.4857,3.4502,3.4318,3.4318,3.4115,3.3973,3.3973,3.3308,3.2823,3.2253,3.0664,2.9558,2.8859,2.8483,2.7397,2.595,2.5419,2.5036,2.479,0.0,0.0,0.0,0.0,0.0,0.0,0.0,0.0,0.0,0.0,0.0,0.0,0.0,0.0,0.0,0.0,0.0,0.0,2.6514,2.7443,2.8698,3.0254,3.05,3.1214,3.2556,3.2159,3.2173,3.2656,3.2206,3.1754,3.1336,3.0999,3.0582,3.0111,2.9574,2.9107,2.8803,2.8327,2.7815,2.7268,2.7079,2.6807,2.6458,2.5812,2.5074,2.4292,2.3686,2.2957,2.2185,2.2197,2.2149,2.2101,2.1842,2.1682,2.1413,2.0795,0.0,2.0961,2.0478,2.1461,2.281,2.3347,2.3956,2.4754,0.0,0.0,2.6709,2.7945,2.8619,2.9108,2.9326,3.025,3.1272,3.1994,3.2695,3.3469,3.449,3.4735,3.4969,3.5482,3.5993,3.6357,3.6531,3.673,3.6954,3.7019,3.7019,3.6938,3.6709,3.6546,3.637,3.6098,3.5908,3.5775,3.5713,3.5618,3.5593,3.5531,3.5436,3.5436,3.5424,3.4459,3.4052,3.3933,3.3007,3.23,3.17,3.1124,3.0331,2.9317,2.8678,2.7911,2.7063,2.63,2.5705,2.5033,0.0,0.0,0.0,0.0,0.0,0.0,0.0,0.0,0.0,0.0,0.0,0.0,0.0,0.0,0.0,0.0,0.0,0.0,2.6162,2.6587,2.7617,2.9484,2.9774,3.0398,3.1342,3.1262,3.1503,3.2028,3.1625,3.1377,3.1278,3.094,3.0536,3.005,2.9512,2.9107,2.8803,2.8327,2.7815,2.7364,2.6786,2.6391,2.6009,2.5061,2.414,2.3366,2.3464,2.275,0.0,0.0,2.1668,2.1534,2.1339,2.1428,2.1537,2.1423,2.1493,0.0,2.2461,2.3578,0.0,0.0,2.6039,2.6983,2.7655,2.8146,2.8559,2.9246,2.9845,3.0302,3.0374,3.1257,3.2055,0.0,3.3114,3.3817,3.4265,3.4593,3.4968,3.5295,3.5608,3.5787,3.6073,3.6181,3.6275,3.6275,3.648,3.6655,3.6547,3.6761,3.6837,3.6653,3.6555,3.6309,3.5795,3.5685,3.5332,3.4932,3.4738,3.475,3.4738,3.4231,3.3929,3.3515,3.2797,3.219,3.166,3.1151,3.0382,2.9454,2.9151,2.8326,2.7216,2.6824,2.6347,2.5926,0.0,0.0,0.0,0.0,0.0,0.0,0.0,0.0,0.0,0.0,0.0,0.0,0.0,0.0,0.0,0.0,0.0,0.0,0.0,2.5697,2.6585,2.8101,2.8646,2.9297,3.0176,3.0209,3.0565,3.1189,3.0884,3.0729,3.0686,3.0411,3.0,2.9522,2.9055,2.8623,2.8373,2.783,2.7379,2.7,2.6284,2.5804,2.5547,2.4243,2.3331,2.2714,2.296,2.2262,0.0,0.0,2.1057,2.089,2.0925,2.1026,2.1265,2.1741,2.2221,2.2867,2.4426,0.0,0.0,2.6759,2.7706,2.8472,2.8864,2.9435,2.9913,3.0312,3.0831,3.1096,3.1096,3.1733,0.0,3.258,3.3146,3.3732,3.4031,3.4401,3.4688,3.5028,3.504,3.521,3.5563,3.5734,3.5842,3.5842,3.6248,3.6542,3.6542,3.6709,3.6828,3.6828,3.6828,3.6444,3.5857,3.5745,3.527,3.4548,3.4263,3.4106,3.3965,3.3767,3.3469,3.3058,3.267,3.2203,3.1673,3.1085,3.0383,2.9656,2.9395,2.858,2.7461,2.7189,2.6769,2.6315,0.0,0.0,0.0,0.0,0.0,0.0,0.0,0.0,0.0,0.0,0.0,0.0,0.0,0.0,0.0,0.0,0.0,0.0,0.0,2.4804,2.5877,2.5798,2.6865,2.8067,2.9305,2.8967,2.927,3.0219,3.0076,2.9756,2.9156,2.9019,2.8739,2.8268,2.7776,2.751,2.7285,2.6668,2.6211,2.6011,2.551,2.5205,2.4899,2.359,2.2921,2.2616,2.2112,0.0,0.0,0.0,2.0519,2.0509,2.0819,2.0842,0.0,2.1686,2.2956,2.4437,0.0,0.0,2.7264,2.7797,2.831,2.889,2.9561,2.9951,3.0378,3.1151,3.1448,3.1637,3.1637,3.1484,3.1675,3.2721,3.27,3.2865,3.3911,3.4064,3.4252,3.4734,3.4781,3.4992,0.0,3.6118,3.6407,3.6407,3.6588,3.6792,3.6792,3.6297,3.59,3.59,3.5718,3.5615,3.5603,3.5603,3.5333,3.4781,3.4478,3.4121,3.3645,3.3047,3.2745,3.2544,3.2533,3.2117,3.1564,3.1072,3.0575,2.9987,2.9062,2.8389,2.7831,2.7482,2.6672,2.5916,0.0,0.0,0.0,0.0,0.0,0.0,0.0,0.0,0.0,0.0,0.0,0.0,0.0,0.0,0.0,0.0,0.0,0.0,0.0,2.3031,2.4007,2.4879,2.5603,2.6349,2.7063,2.7274,2.786,2.8828,2.8712,2.8816,2.9119,2.8987,2.8662,2.821,2.7694,2.7457,2.7262,2.6566,2.6276,2.6131,2.5185,2.4528,2.4045,2.2946,2.1902,2.1031,0.0,0.0,0.0,0.0,0.0,1.9724,2.0098,2.0592,2.136,2.2913,2.4505,2.5881,0.0,0.0,2.8857,2.9358,2.9848,3.0376,3.0719,3.0947,3.0991,3.1097,3.1151,3.1241,3.1241,3.1423,3.1781,3.2476,3.2877,3.3253,3.397,3.4357,3.4628,3.4792,3.4918,0.0,0.0,0.0,0.0,3.5866,3.624,3.6537,3.6537,3.6649,3.6614,3.6402,3.6414,3.6038,3.5279,3.5279,3.4738,3.3697,3.3356,3.2904,3.2521,3.2331,3.2026,3.164,3.164,3.1435,3.1013,3.0852,3.03,2.9576,2.9262,2.8363,2.7317,2.7175,2.6547,2.5804,0.0,0.0,0.0,0.0,0.0,0.0,0.0,0.0,0.0,0.0,0.0,0.0,0.0,0.0,0.0,0.0,0.0,0.0,0.0,0.0,2.2459,2.3298,2.4124,2.4741,2.5199,2.5712,2.6282,2.699,2.7176,2.7429,2.7691,2.755,2.7273,2.6874,2.644,2.6148,2.5936,2.5297,2.5074,2.4945,2.3953,2.3365,2.2934,2.2056,2.1094,0.0,0.0,0.0,0.0,0.0,0.0,1.9396,1.9785,2.0862,2.2297,2.3939,2.5554,2.6904,2.7524,2.8701,2.9873,3.0377,3.0767,3.1019,3.1205,3.1136,3.104,3.0617,3.069,3.069,3.069,3.0859,3.1304,3.2019,3.2464,3.294,3.3563,3.4098,3.4437,3.4693,3.4819,0.0,0.0,0.0,0.0,3.5585,3.5933,3.6224,3.6224,3.6418,3.6375,3.6277,3.6277,3.5899,3.5267,3.5147,3.433,3.3033,3.2358,3.1834,3.1516,3.1516,3.1424,3.1023,3.092,3.0713,3.0516,3.0412,2.9912,2.9219,2.9055,2.833,2.7292,2.7142,2.6507,2.5664,0.0,0.0,0.0,0.0,0.0,0.0,0.0,0.0,0.0,0.0,0.0,0.0,0.0,0.0,0.0,0.0,0.0,0.0,0.0,0.0,0.0,2.1086,2.2353,2.3253,2.3608,2.4184,2.4632,2.4882,2.5545,2.5565,2.5102,2.4988,2.4761,2.4412,2.4061,2.3794,2.3575,2.3029,2.2817,2.2747,2.2168,2.1856,2.178,2.0994,0.0,0.0,0.0,0.0,0.0,0.0,0.0,0.0,0.0,2.162,2.3677,2.468,2.6099,2.7431,2.8495,2.9494,3.0368,3.0972,3.1077,3.1054,3.1054,3.0801,3.0438,2.9915,2.9963,3.0114,0.0,0.0,3.0148,3.1182,3.1492,3.1894,3.271,3.33,3.3887,0.0,0.0,0.0,0.0,0.0,0.0,3.5374,0.0,3.5806,3.5806,3.5511,3.5312,3.5312,3.5312,3.5312,3.5312,3.5046,3.4109,3.2642,3.1682,3.1023,3.0734,3.0724,3.0724,3.0724,3.0401,3.0193,2.9889,2.9659,2.9343,2.8986,2.8575,2.8083,2.7493,2.7094,2.6352,2.5519,0.0,0.0,0.0,0.0,0.0,0.0,0.0,0.0,0.0,0.0,0.0,0.0,0.0,0.0,0.0,0.0,0.0,0.0,0.0,0.0,0.0,0.0,0.0,0.0,0.0,0.0,0.0,0.0,0.0,2.3642,2.3791,2.408,2.4054,2.376,2.3865,2.3751,2.3398,2.3009,2.2654,2.2481,0.0,2.1619,2.1138,0.0,0.0,0.0,0.0,0.0,0.0,0.0,0.0,0.0,0.0,2.2897,2.4328,2.6074,2.7183,2.8043,2.9446,3.0278,3.0967,3.1938,3.1834,3.1582,3.1582,3.0963,3.0168,2.9673,2.9346,2.9069,0.0,0.0,0.0,3.0251,3.0887,0.0,3.2509,3.3297,0.0,0.0,0.0,3.4604,3.4736,3.43,0.0,0.0,3.4781,3.5191,3.5191,3.4947,3.4613,3.4423,3.4423,3.4311,3.4076,3.3254,3.2662,3.2308,3.1158,3.0505,3.0203,2.9984,2.9764,2.9554,2.9448,2.9343,2.9343,2.9016,2.8804,2.8485,2.8164,2.7612,2.7017,2.6912,2.639,2.5713,0.0,0.0,0.0,0.0,0.0,0.0,0.0,0.0,0.0,0.0,0.0,0.0,0.0,0.0,0.0,0.0,0.0,0.0,0.0,0.0,0.0,0.0,0.0,0.0,0.0,0.0,0.0,0.0,0.0,0.0,0.0,2.2527,2.2395,2.2126,2.2101,2.1955,2.1763,2.1356,0.0,0.0,0.0,0.0,0.0,0.0,0.0,0.0,0.0,0.0,0.0,0.0,0.0,2.1093,2.2571,2.3716,2.4882,2.6693,0.0,2.8622,2.9855,3.077,3.1453,3.2041,3.1961,3.1651,3.1192,3.0468,2.9642,2.87,2.8264,0.0,0.0,0.0,0.0,0.0,0.0,0.0,3.1895,3.286,3.3686,0.0,3.4107,0.0,3.4076,3.3727,3.3388,0.0,3.4076,3.4423,3.4423,3.4177,3.3942,3.3727,3.3738,3.3501,3.3037,3.2117,3.1558,3.1439,3.0302,2.9764,2.9564,2.9448,2.9237,2.891,0.0,2.8708,2.8601,2.8271,2.8067,2.7862,2.7745,2.728,2.6761,2.6761,2.618,2.5427,0.0,0.0,0.0,0.0,0.0,0.0,0.0,0.0,0.0,0.0,0.0,0.0,0.0,0.0,0.0,0.0,0.0,0.0,0.0,0.0,0.0,0.0,0.0,0.0,0.0,0.0,0.0,0.0,0.0,0.0,0.0,0.0,0.0,0.0,0.0,0.0,0.0,0.0,0.0,0.0,0.0,0.0,0.0,0.0,0.0,0.0,0.0,0.0,0.0,0.0,2.0722,2.1718,2.3094,2.4243,2.5354,2.6926,2.8038,2.8967,3.0086,3.1046,3.1697,3.1834,3.1766,3.141,3.0434,2.9734,2.8907,2.7435,0.0,2.6943,2.6943,0.0,2.7228,2.8517,0.0,3.041,3.0998,3.2077,3.2965,3.3168,3.3439,3.3512,3.3512,3.3161,3.3037,3.3037,3.3275,3.3399,3.3399,3.3399,3.3275,3.3037,3.3037,3.2696,3.2113,3.1289,3.0731,3.046,2.9507,2.9086,2.892,2.892,2.8708,2.8485,0.0,0.0,2.7853,2.7422,2.7314,2.7323,2.7215,2.6881,2.6436,2.6436,2.5901,2.5191,0.0,0.0,0.0,0.0,0.0,0.0,0.0,0.0,0.0,0.0,1.7076,1.7158,0.0,0.0,0.0,0.0,0.0,0.0,0.0,0.0,0.0,0.0,0.0,0.0,0.0,0.0,0.0,0.0,0.0,0.0,0.0,0.0,0.0,0.0,0.0,0.0,0.0,0.0,0.0,0.0,0.0,0.0,0.0,0.0,0.0,0.0,0.0,0.0,0.0,0.0,2.1062,2.2298,2.3644,2.4763,2.5903,2.7847,2.8517,2.9147,3.1052,3.1292,3.1341,3.2156,3.1743,3.0985,3.0354,2.9106,0.0,0.0,0.0,2.5487,2.5487,2.6082,0.0,2.6741,0.0,0.0,0.0,0.0,3.2287,0.0,0.0,0.0,0.0,0.0,0.0,0.0,0.0,0.0,3.2457,3.2238,3.2133,3.2018,3.2018,3.2018,3.1903,3.1378,3.07,3.0097,2.9262,2.8623,2.8067,2.7853,2.7638,2.7638,0.0,0.0,2.7431,2.6989,2.6763,2.6663,2.6227,2.5898,2.5898,2.5898,2.5753,2.559,0.0,0.0,0.0,0.0,0.0,0.0,0.0,1.5692,1.6434,1.7384,1.745,1.7279,1.6895,1.6727,1.6617,0.0,0.0,0.0,0.0,0.0,0.0,0.0,0.0,0.0,0.0,0.0,0.0,0.0,0.0,0.0,0.0,0.0,0.0,0.0,0.0,0.0,0.0,0.0,0.0,0.0,0.0,0.0,0.0,0.0,0.0,0.0,0.0,0.0,0.0,0.0,2.1086,2.2255,2.3503,2.4758,2.6082,2.7816,2.8494,2.9053,3.0916,3.1203,3.1123,3.1605,3.1157,3.0308,2.9452,0.0,0.0,0.0,0.0,2.4767,2.4767,0.0,0.0,0.0,0.0,0.0,0.0,0.0,0.0,0.0,0.0,0.0,0.0,0.0,0.0,0.0,0.0,0.0,3.1662,3.1315,3.1092,3.1092,3.0859,3.0859,3.0859,3.043,2.9886,2.9327,2.868,2.8148,2.7638,2.7314,2.7098,2.6989,2.6772,0.0,2.6445,2.6227,2.6118,2.6118,2.5789,2.5569,2.545,2.545,2.5238,2.5026,0.0,0.0,0.0,0.0,0.0,0.0,0.0,1.5687,1.6554,1.7677,1.7697,1.744,1.6909,1.6799,1.6667,0.0,0.0,0.0,0.0,0.0,0.0,0.0,0.0,0.0,0.0,0.0,0.0,0.0,0.0,0.0,0.0,0.0,0.0,0.0,0.0,0.0,0.0,0.0,0.0,0.0,0.0,0.0,0.0,0.0,0.0,0.0,0.0,0.0,0.0,0.0,2.0938,2.206,2.2982,2.4306,2.5915,2.7426,2.8241,2.901,3.0445,3.0847,3.0847,3.0847,3.0354,2.9679,2.8407,2.7295,0.0,0.0,2.429,2.3944,2.3944,0.0,0.0,0.0,0.0,0.0,0.0,0.0,0.0,0.0,0.0,0.0,0.0,0.0,0.0,0.0,0.0,0.0,3.0976,3.0509,3.0265,3.0265,2.9922,2.9795,2.9795,2.9367,2.9,2.8568,2.8033,2.7622,2.7129,2.6818,2.6663,2.6445,2.6118,0.0,0.0,2.5569,2.5459,2.5459,2.5348,2.5128,2.4898,2.4898,2.4693,2.4264,0.0,0.0,0.0,0.0,0.0,0.0,0.0,1.5903,1.686,1.7474,1.741,1.7432,1.7757,1.7404,1.7071,0.0,0.0,0.0,0.0,0.0,0.0,0.0,0.0,0.0,0.0,0.0,0.0,0.0,0.0,0.0,0.0,0.0,0.0,0.0,0.0,0.0,0.0,0.0,0.0,0.0,0.0,0.0,0.0,0.0,0.0,0.0,0.0,0.0,0.0,0.0,0.0,2.1898,2.1811,2.3351,2.5477,2.6852,0.0,0.0,2.9998,3.0285,3.0285,3.0285,2.9737,2.8908,2.7368,0.0,0.0,2.3729,2.2919,2.2517,2.2517,2.2783,0.0,0.0,0.0,0.0,0.0,0.0,0.0,0.0,0.0,0.0,0.0,0.0,0.0,0.0,0.0,0.0,0.0,2.9931,2.9922,2.9922,2.9667,2.9422,2.9422,2.9176,2.8718,2.7957,2.754,2.7037,2.6332,2.5958,2.5789,2.5798,0.0,0.0,0.0,2.5119,2.4889,2.4787,2.4248,2.4024,2.4024,2.4024,2.4033,2.3921,0.0,0.0,0.0,0.0,0.0,0.0,1.4796,1.5796,1.6882,1.7745,1.7731,1.7959,1.8706,1.8253,1.753,1.6759,0.0,0.0,0.0,0.0,0.0,0.0,0.0,0.0,0.0,0.0,0.0,0.0,0.0,0.0,0.0,0.0,0.0,0.0,0.0,0.0,0.0,0.0,0.0,0.0,0.0,0.0,0.0,0.0,0.0,0.0,0.0,0.0,0.0,0.0,0.0,0.0,2.1554,2.2592,0.0,0.0,2.7024,2.8035,2.9033,2.9309,2.9309,2.9309,2.8756,2.798,2.693,0.0,2.4725,2.3392,2.2714,2.2154,2.1789,2.2114,2.2561,0.0,0.0,0.0,0.0,0.0,0.0,0.0,0.0,0.0,0.0,0.0,0.0,0.0,0.0,0.0,0.0,2.8737,2.8737,2.8737,2.8609,2.86,2.86,2.8498,2.8065,2.732,2.692,2.6399,2.5576,2.5103,2.4923,2.4923,0.0,0.0,0.0,2.4359,2.4239,2.4239,2.4024,2.3921,2.3921,2.3921,2.3809,2.3697,0.0,0.0,0.0,0.0,0.0,1.4555,1.4606,1.5449,1.6459,1.7562,1.7711,1.8062,1.8863,1.8611,1.7934,1.6778,1.6354,0.0,0.0,0.0,0.0,0.0,0.0,0.0,0.0,0.0,0.0,0.0,0.0,0.0,0.0,0.0,0.0,0.0,0.0,0.0,0.0,0.0,0.0,0.0,0.0,0.0,0.0,0.0,0.0,0.0,0.0,0.0,0.0,0.0,0.0,0.0,0.0,0.0,0.0,0.0,2.598,2.7001,2.7989,2.8367,2.8448,2.8299,2.7736,2.7103,0.0,0.0,2.3974,2.2856,2.2143,2.1637,2.1161,2.1403,2.1835,0.0,0.0,2.4304,0.0,0.0,0.0,0.0,0.0,0.0,0.0,0.0,0.0,0.0,0.0,0.0,0.0,2.7659,2.7659,2.7891,2.7779,2.7668,2.7539,2.7539,2.7088,2.6455,2.6209,2.5689,2.4949,2.4521,2.4264,2.4264,0.0,0.0,0.0,2.3809,2.3689,2.3576,2.3585,2.3464,2.3352,2.3352,2.3247,2.3135,0.0,0.0,0.0,0.0,0.0,0.0,1.4343,1.481,1.5494,1.6563,1.712,1.7533,1.7866,1.8331,1.8173,1.718,1.6222,0.0,0.0,0.0,0.0,0.0,0.0,0.0,0.0,0.0,0.0,0.0,0.0,0.0,0.0,0.0,0.0,0.0,0.0,0.0,0.0,0.0,0.0,0.0,0.0,0.0,0.0,0.0,0.0,0.0,0.0,0.0,0.0,0.0,0.0,0.0,0.0,0.0,0.0,0.0,2.5061,2.5957,2.6967,2.761,2.7874,2.7369,2.6903,2.6262,0.0,0.0,2.275,2.18,2.1073,2.0601,2.0601,2.085,2.1267,2.1954,2.2642,0.0,0.0,0.0,0.0,0.0,0.0,0.0,0.0,0.0,0.0,0.0,0.0,0.0,0.0,2.6822,2.6926,2.7521,2.7306,2.6952,2.6571,2.6319,2.5902,2.5555,2.5175,2.4804,2.4547,2.4078,2.3921,0.0,0.0,0.0,0.0,2.3585,2.336,2.3014,2.2683,2.2456,2.2116,2.2116,2.2116,2.2108,0.0,0.0,0.0,0.0,0.0,0.0,0.0,1.4318,1.5096,1.5654,1.6101,1.6655,1.7411,1.7422,1.737,1.7301,1.6782,0.0,0.0,0.0,0.0,0.0,0.0,0.0,0.0,0.0,1.392,1.4566,1.4541,1.4688,0.0,0.0,0.0,0.0,0.0,0.0,0.0,0.0,0.0,0.0,0.0,0.0,0.0,0.0,0.0,0.0,0.0,0.0,0.0,0.0,0.0,0.0,0.0,0.0,0.0,0.0,0.0,0.0,2.5474,2.6037,2.6393,2.6232,2.5871,2.524,2.4097,0.0,2.263,2.1214,2.0766,2.0425,1.9825,2.0339,2.081,2.0741,2.1927,0.0,0.0,0.0,0.0,0.0,0.0,0.0,0.0,0.0,0.0,0.0,0.0,0.0,0.0,2.6319,2.6319,2.6554,2.6441,2.6319,2.6197,2.5965,2.5539,2.5167,2.4447,2.386,2.3513,2.2949,0.0,0.0,0.0,0.0,0.0,2.2562,2.2456,2.2343,2.2343,2.223,2.2116,2.2116,2.2116,2.2116,0.0,0.0,0.0,0.0,0.0,0.0,0.0,1.377,1.4401,1.4747,1.5284,1.5935,1.6599,1.6586,1.6671,1.6956,1.669,0.0,0.0,0.0,0.0,0.0,0.0,0.0,0.0,1.3674,1.4017,1.4702,1.4743,1.5005,1.5446,1.535,0.0,0.0,0.0,0.0,0.0,0.0,0.0,0.0,0.0,0.0,1.5602,0.0,0.0,0.0,0.0,0.0,0.0,0.0,0.0,0.0,0.0,0.0,0.0,0.0,2.1541,0.0,0.0,2.474,2.5142,2.5066,2.4751,0.0,0.0,0.0,2.18,2.0841,2.0315,2.002,1.9634,2.0073,2.0545,2.0604,2.1734,0.0,0.0,0.0,0.0,0.0,0.0,0.0,0.0,0.0,0.0,0.0,0.0,0.0,0.0,0.0,2.5586,2.5333,2.5586,2.5521,2.5132,2.4932,2.4579,2.409,2.3518,2.3004,2.2675,2.2222,0.0,0.0,0.0,0.0,0.0,2.2116,2.2002,2.2002,2.2002,2.1888,2.1774,2.1774,2.1774,2.1774,0.0,0.0,0.0,0.0,0.0,0.0,0.0,1.3075,1.3414,1.3752,1.456,1.5214,1.5457,1.584,1.6112,1.617,0.0,0.0,0.0,0.0,0.0,0.0,0.0,0.0,0.0,1.393,1.4228,1.4581,1.4993,1.5317,1.565,1.565,1.5473,1.511,0.0,0.0,0.0,0.0,0.0,0.0,0.0,0.0,0.0,0.0,0.0,0.0,0.0,0.0,0.0,0.0,0.0,0.0,0.0,0.0,0.0,0.0,0.0,0.0,0.0,2.3578,0.0,0.0,0.0,0.0,0.0,0.0,0.0,0.0,1.9846,1.9421,1.9891,2.006,2.0378,2.1283,2.187,0.0,0.0,0.0,0.0,0.0,0.0,0.0,0.0,0.0,0.0,0.0,0.0,0.0,0.0,0.0,2.4734,2.4108,2.471,2.4538,2.3604,2.3551,2.3223,2.262,2.2597,2.2421,2.2108,2.2002,0.0,0.0,0.0,0.0,0.0,2.1995,2.1888,2.1668,2.1668,2.1439,2.1096,2.1096,2.1096,2.1096,0.0,0.0,0.0,0.0,0.0,0.0,0.0,0.0,0.0,0.0,1.3185,1.3734,1.4467,1.4738,1.4999,0.0,0.0,0.0,0.0,0.0,0.0,0.0,0.0,0.0,0.0,1.3857,1.4146,1.4628,1.4837,1.507,1.5237,1.5237,1.5247,1.5305,1.4932,0.0,0.0,0.0,0.0,0.0,0.0,0.0,0.0,0.0,0.0,0.0,1.4944,1.5353,0.0,0.0,0.0,0.0,0.0,0.0,0.0,0.0,1.8755,1.9261,2.0414,0.0,2.2635,2.2635,2.2425,2.2151,0.0,0.0,0.0,0.0,0.0,0.0,0.0,0.0,2.0169,0.0,0.0,0.0,0.0,0.0,0.0,0.0,0.0,0.0,0.0,0.0,0.0,0.0,0.0,0.0,0.0,0.0,2.4108,2.3736,2.3603,2.3559,2.3604,2.31,2.2772,2.2612,2.213,2.1857,2.1782,2.1554,0.0,0.0,0.0,0.0,2.1432,2.1189,2.0952,2.0952,2.073,2.0622,2.0507,2.0507,2.0507,2.0507,0.0,0.0,0.0,0.0,0.0,0.0,0.0,0.0,0.0,0.0,0.0,1.2995,1.3811,1.4087,0.0,0.0,0.0,0.0,0.0,0.0,0.0,0.0,0.0,0.0,1.3935,1.3951,1.4302,1.4977,1.5014,1.5195,1.5454,1.5454,1.5406,1.5287,1.4665,0.0,0.0,0.0,0.0,0.0,0.0,0.0,0.0,0.0,0.0,0.0,1.4477,1.4735,0.0,1.5296,1.5829,1.6367,0.0,0.0,0.0,0.0,1.7906,1.8189,1.8923,2.0298,2.1531,2.1609,2.1528,2.1325,0.0,0.0,0.0,0.0,0.0,0.0,0.0,0.0,0.0,0.0,0.0,0.0,0.0,0.0,0.0,0.0,0.0,0.0,0.0,0.0,0.0,0.0,0.0,0.0,0.0,0.0,2.366,2.314,2.283,2.278,2.2909,2.2408,2.2072,2.1676,2.1391,2.1196,2.1081,2.0852,0.0,0.0,0.0,0.0,2.0737,2.0615,2.0493,2.0493,2.0385,2.027,2.027,2.027,2.027,2.027,0.0,0.0,0.0,0.0,0.0,0.0,0.0,0.0,0.0,0.0,0.0,0.0,0.0,0.0,0.0,0.0,0.0,0.0,0.0,0.0,0.0,0.0,0.0,1.3983,1.4143,1.4114,1.4447,1.5265,1.5189,1.5372,1.5798,1.5798,1.5528,1.5054,1.4438,1.386,0.0,0.0,0.0,0.0,1.3515,0.0,0.0,0.0,0.0,0.0,0.0,0.0,0.0,1.4938,1.5222,1.553,1.6232,0.0,0.0,0.0,0.0,0.0,1.7956,1.9171,2.0311,2.0609,2.0684,2.0628,0.0,0.0,0.0,0.0,0.0,0.0,0.0,0.0,0.0,0.0,0.0,0.0,0.0,0.0,0.0,0.0,0.0,0.0,0.0,0.0,0.0,0.0,0.0,0.0,0.0,0.0,0.0,2.2435,2.2137,2.1984,2.1984,2.1664,2.1235,2.0601,2.0601,2.0493,2.027,2.027,2.027,0.0,0.0,0.0,2.027,2.027,2.027,2.027,2.0155,2.0162,2.0162,2.0162,2.0162,2.0162,0.0,0.0,0.0,0.0,0.0,0.0,0.0,0.0,0.0,0.0,0.0,0.0,0.0,0.0,0.0,0.0,0.0,0.0,0.0,0.0,0.0,0.0,1.3132,1.3439,1.3598,1.3848,1.4169,1.4627,1.4879,1.5148,1.5332,1.5332,1.5019,1.4453,1.4526,1.4043,1.3218,1.3266,1.3266,1.3266,1.3266,0.0,0.0,0.0,0.0,0.0,0.0,0.0,0.0,1.4189,1.4468,1.486,1.496,0.0,0.0,0.0,0.0,0.0,1.737,1.7877,1.8564,1.9564,1.9788,1.9818,0.0,0.0,0.0,0.0,0.0,0.0,0.0,0.0,0.0,0.0,0.0,0.0,0.0,0.0,0.0,0.0,0.0,0.0,0.0,0.0,0.0,0.0,0.0,0.0,0.0,0.0,0.0,2.1867,2.155,2.1274,2.1053,2.0959,2.0658,2.0385,2.0385,2.0385,2.027,2.027,2.027,0.0,0.0,2.027,2.027,2.004,1.9931,1.9815,1.9591,1.9597,1.9597,1.9597,1.9597,1.9597,0.0,0.0,0.0,0.0,0.0,0.0,0.0,0.0,0.0,0.0,0.0,0.0,0.0,0.0,0.0,0.0,0.0,0.0,0.0,0.0,0.0,1.2175,1.2479,1.2889,1.3374,1.3661,1.4073,1.4494,1.4924,1.5068,1.4902,1.5029,1.4821,1.4318,1.4184,1.3769,1.3124,1.289,1.2803,1.2803,0.0,0.0,0.0,0.0,0.0,0.0,0.0,0.0,0.0,0.0,1.37,1.4157,1.431,0.0,0.0,0.0,0.0,0.0,1.6781,1.7246,1.7687,1.8342,1.9019,1.9515,0.0,0.0,0.0,0.0,0.0,0.0,0.0,0.0,0.0,0.0,0.0,0.0,0.0,0.0,0.0,0.0,0.0,0.0,0.0,0.0,0.0,0.0,0.0,0.0,0.0,0.0,0.0,0.0,2.1156,2.0765,2.0254,2.0224,2.0155,2.0046,2.0046,1.9931,1.9815,1.9651,1.9576,1.9562,0.0,1.9426,1.9576,1.9347,1.9449,1.9591,1.9482,1.9366,1.9366,1.9366,1.9366,1.9366,0.0,0.0,0.0,0.0,0.0,0.0,0.0,0.0,0.0,0.0,0.0,0.0,0.0,0.0,0.0,0.0,0.0,0.0,0.0,0.0,1.2126,1.1778,1.2035,1.2484,1.3113,1.3503,1.3938,1.4436,1.4885,1.4998,1.4736,1.4831,1.4685,1.4214,1.3891,1.3465,1.3058,1.265,1.248,1.248,0.0,0.0,0.0,0.0,0.0,0.0,0.0,0.0,0.0,0.0,0.0,0.0,0.0,0.0,0.0,1.4717,1.5014,1.5315,1.5938,1.6547,1.7024,1.7224,0.0,0.0,0.0,0.0,0.0,0.0,0.0,0.0,0.0,0.0,0.0,0.0,0.0,0.0,0.0,0.0,0.0,0.0,0.0,0.0,0.0,0.0,0.0,0.0,0.0,0.0,0.0,0.0,0.0,0.0,2.0627,2.0282,1.9707,1.9632,1.9632,1.97,1.9632,1.9483,1.9252,1.8958,1.8824,1.8804,1.8591,1.8617,1.8824,1.8824,1.8998,1.9265,1.9265,1.9305,1.9366,1.9366,1.9366,1.9366,0.0,0.0,0.0,0.0,0.0,0.0,0.0,0.0,0.0,0.0,0.0,0.0,0.0,0.0,0.0,0.0,0.0,0.0,0.0,0.0,1.1619,1.1377,1.1916,1.2363,1.2665,1.3059,1.3628,1.4301,1.4533,1.472,1.4781,1.4592,1.4384,1.4091,1.3836,1.3465,1.3058,1.265,1.248,1.248,1.248,0.0,0.0,0.0,0.0,0.0,0.0,0.0,0.0,0.0,0.0,0.0,0.0,0.0,1.3567,1.3625,1.4214,1.4795,1.4741,1.5586,1.6419,1.6344,0.0,0.0,0.0,0.0,0.0,0.0,0.0,0.0,0.0,0.0,0.0,0.0,0.0,0.0,0.0,0.0,0.0,0.0,0.0,0.0,0.0,0.0,0.0,0.0,0.0,0.0,0.0,0.0,0.0,0.0,0.0,1.9727,1.9482,1.9092,1.9092,1.9482,1.9085,1.8958,1.8945,1.8651,1.8524,1.8517,1.8504,1.8504,1.8524,1.8524,1.8691,1.8958,1.8958,1.9125,1.9366,1.9366,1.9366,1.9366,0.0,0.0,0.0,0.0,0.0,0.0,0.0,0.0,0.0,0.0,0.0,0.0,0.0,0.0,0.0,0.0,0.0,0.0,0.0,0.0,1.1267,1.0922,1.1464,1.1792,1.1936,1.2647,1.3218,1.3495,1.3803,1.4162,1.4693,1.4369,1.41,1.3997,1.3394,1.3077,1.2886,1.225,1.1977,1.2026,1.2076,1.2175,0.0,0.0,0.0,0.0,0.0,0.0,0.0,0.0,1.1589,1.1977,0.0,1.2376,1.2704,1.2908,1.3396,1.3931,1.4137,1.5039,1.5976,1.6075,0.0,0.0,0.0,0.0,0.0,0.0,0.0,0.0,0.0,0.0,0.0,0.0,0.0,0.0,0.0,0.0,0.0,0.0,0.0,0.0,0.0,0.0,0.0,0.0,0.0,0.0,0.0,0.0,0.0,0.0,0.0,1.9199,1.9092,1.8804,1.8711,1.8818,1.8711,1.8651,1.8644,1.835,1.8217,1.8203,1.78,1.782,1.7875,1.776,1.7929,1.8369,1.8774,1.9143,1.9366,1.9366,1.9366,1.9366,0.0,0.0,0.0,0.0,0.0,0.0,0.0,0.0,0.0,0.0,0.0,0.0,0.0,0.0,0.0,0.0,0.0,0.0,0.0,1.1167,1.0922,1.0675,1.1034,1.128,1.1431,1.2193,1.2801,1.3153,1.3453,1.3889,1.4452,1.4074,1.395,1.3974,1.3185,1.2776,1.2723,1.2006,1.1728,1.1728,1.1778,1.1877,0.0,0.0,0.0,0.0,0.0,0.0,0.0,0.0,1.0856,1.1401,0.0,0.0,1.1941,1.2184,1.2643,1.3104,1.3378,1.4384,1.543,0.0,0.0,0.0,0.0,0.0,0.0,0.0,0.0,0.0,0.0,0.0,0.0,0.0,0.0,0.0,0.0,0.0,0.0,0.0,0.0,0.0,0.0,0.0,0.0,0.0,0.0,0.0,0.0,0.0,0.0,0.0,0.0,0.0,1.8784,1.8497,1.835,1.835,1.825,1.8257,1.8337,1.8036,1.7795,1.7681,1.737,1.7284,1.7352,1.713,1.7359,1.7906,1.841,1.8925,1.9243,1.9243,1.9243,1.9243,0.0,0.0,0.0,0.0,0.0,0.0,0.0,0.0,0.0,0.0,0.0,0.0,0.0,0.0,0.0,0.0,0.0,0.0,1.1275,1.082,1.0522,1.0522,1.0576,1.0801,1.1254,1.1604,1.23,1.3379,1.3713,1.3967,1.4084,1.3891,1.389,1.3974,1.3129,1.2776,1.2723,1.2006,1.1728,1.1728,1.1728,1.1728,1.1719,0.0,0.0,0.0,0.0,0.0,0.0,0.0,1.0342,1.0692,0.0,0.0,0.0,1.1351,1.1817,1.2395,1.2416,1.3495,0.0,0.0,0.0,0.0,0.0,0.0,0.0,0.0,0.0,0.0,0.0,0.0,0.0,0.0,0.0,0.0,0.0,0.0,0.0,0.0,0.0,0.0,0.0,0.0,0.0,0.0,0.0,0.0,0.0,0.0,0.0,0.0,0.0,0.0,1.849,1.819,1.8043,1.8036,1.7729,1.7742,1.8029,1.7722,1.7483,1.7179,1.7179,1.6955,1.673,1.6736,1.7073,1.762,1.79,1.8403,1.8874,1.8874,1.8874,1.8881,0.0,0.0,0.0,0.0,0.0,0.0,0.0,0.0,0.0,0.0,0.0,0.0,0.0,0.0,0.0,0.0,0.0,0.0,1.0872,1.0624,1.0411,1.0154,1.0325,1.0546,1.0794,1.1537,1.231,1.2959,1.3083,1.3277,1.3523,1.3475,1.3528,1.3597,1.2845,1.25,1.2448,1.1748,1.1427,1.1427,1.1528,1.1578,1.1543,0.0,0.0,0.0,0.0,0.0,0.0,0.0,0.0,0.0,0.9979,0.0,1.0535,1.0704,1.1234,1.1809,1.2077,0.0,0.0,0.0,0.0,0.0,0.0,0.0,0.0,0.0,0.0,0.0,0.0,0.0,0.0,0.0,0.0,0.0,0.0,0.0,0.0,0.0,0.0,0.0,0.0,0.0,0.0,0.0,0.0,0.0,0.0,0.0,0.0,0.0,0.0,0.0,1.8183,1.7876,1.7722,1.7716,1.7424,1.743,1.7716,1.7424,1.7279,1.7179,1.6749,1.6537,1.6443,1.6408,1.6696,1.7127,1.7591,1.7938,1.8269,1.8461,1.8532,1.8538,0.0,0.0,0.0,0.0,0.0,0.0,0.0,0.0,0.0,0.0,0.0,0.0,0.0,0.0,0.0,0.0,0.0,0.0,0.0,0.0,1.0316,1.011,1.0144,1.0363,1.0655,1.1414,1.1974,1.2257,1.2599,1.2928,1.3119,1.3241,1.3363,1.3373,1.2732,1.2389,1.2338,1.1593,1.1326,1.1326,1.1377,1.1427,1.1392,0.0,0.0,0.0,0.0,0.0,0.0,0.0,0.0,0.0,0.0,0.0,0.0,1.0171,1.0659,1.1216,1.1505,0.0,0.0,0.0,0.0,0.0,0.0,0.0,0.0,0.0,0.0,0.0,0.0,0.0,0.0,0.0,0.0,0.0,0.0,0.0,0.0,0.0,0.0,0.0,0.0,0.0,0.0,0.0,0.0,0.0,0.0,0.0,0.0,0.0,0.0,0.0,1.7862,1.7576,1.7483,1.7483,1.7166,1.706,1.7265,1.706,1.6961,1.6861,1.6324,1.6111,1.6123,1.6168,1.6302,1.6654,1.6975,1.7284,1.7748,1.7913,1.7976,1.7861,0.0,0.0,0.0,0.0,0.0,0.0,0.0,0.0,0.0,0.0,0.0,0.0,0.0,0.0,0.0,0.0,0.0,0.0,0.0,0.0,1.0316,1.0316,1.011,1.0263,1.0779,1.1233,1.1455,1.1487,1.2317,1.2724,1.2757,1.307,1.3277,1.3277,1.2683,1.2389,1.2338,1.1593,1.1326,1.1326,1.1267,1.1267,1.12,1.0864,0.0,0.0,0.0,0.0,0.0,0.0,0.0,0.0,0.9079,0.929,0.954,0.9658,1.0123,1.0629,0.0,0.0,0.0,0.0,0.0,0.0,0.0,0.0,0.0,0.0,0.0,0.0,0.0,0.0,0.0,0.0,0.0,0.0,0.0,0.0,0.0,0.0,0.0,0.0,0.0,0.0,0.0,0.0,0.0,0.0,0.0,0.0,0.0,0.0,0.0,0.0,1.7582,1.7279,1.7173,0.0,1.6842,1.6624,1.6624,1.6624,1.653,1.6217,1.5998,1.5891,1.5891,1.5891,1.603,1.6247,1.6272,1.6655,1.7105,1.7129,1.7142,1.7142,0.0,0.0,0.0,0.0,0.0,0.0,0.0,0.0,0.0,0.0,0.0,0.0,0.0,0.0,0.0,0.0,0.0,0.0,0.0,0.0,1.0316,1.0316,1.0265,1.0428,1.0779,1.1012,1.1233,1.1487,1.1703,1.1985,1.2384,1.2621,1.2897,1.3277,1.2683,1.2389,1.2338,1.1593,1.1326,1.1267,1.0956,1.083,1.0772,1.0031,0.965,0.0,0.0,0.0,0.0,0.0,0.0,0.0,0.8377,0.8575,0.8788,0.8974,0.959,1.0262,0.0,0.0,0.0,0.0,0.0,0.0,0.0,0.0,0.0,0.0,0.0,0.0,0.0,0.0,0.0,0.0,0.0,0.0,0.0,0.0,0.0,0.0,0.0,0.0,0.0,0.0,0.0,0.0,0.0,0.0,0.0,0.0,0.0,0.0,0.0,1.7483,1.7279,1.7179,1.7067,0.0,1.653,1.643,1.643,1.643,1.6211,1.5998,1.5891,1.5891,1.5891,1.5891,1.5922,1.5994,1.6199,1.6429,1.6508,1.6727,1.6812,1.6812,0.0,0.0,0.0,0.0,0.0,0.0,0.0,0.0,0.0,0.0,0.0,0.0,0.0,0.0,0.0,0.0,0.0,0.0,0.0,0.0,0.0,1.0419,1.0419,1.0454,1.0635,1.074,1.0828,1.1003,1.1169,1.1575,0.0,1.2321,1.2695,1.3147,1.2563,1.2332,1.2338,1.1593,1.1326,1.1267,1.0839,1.0655,1.0529,0.969,0.932,0.9111,0.8614,0.0,0.0,0.0,0.0,0.0,0.0,0.0,0.827,0.8514,0.9109,0.9745,0.0,0.0,0.0,0.0,0.0,0.0,0.0,0.0,0.0,0.0,0.0,0.0,0.0,0.0,0.0,0.0,0.0,0.0,0.0,0.0,0.0,0.0,0.0,0.0,0.0,0.0,0.0,0.0,0.0,0.0,0.0,0.0,0.0,0.0,1.7021,1.7069,1.6755,1.6791,1.6643,1.653,1.6211,1.6111,1.6111,1.6111,1.5998,1.5891,1.5891,1.5891,1.5891,1.5891,1.5891,1.5903,1.6036,1.6097,1.6109,1.626,1.6314,1.6314,0.0,0.0,0.0,0.0,0.0,0.0,0.0,0.0,0.0,0.0,0.0,0.0,0.0,0.0,0.0,0.0,0.0,0.0,0.0,0.0,0.0,0.0,1.047,1.0522,1.0522,1.0522,1.0522,1.0522,0.0,0.0,0.0,0.0,1.2568,1.2981,1.2478,1.2339,1.2346,1.1653,1.1335,1.1267,1.083,1.0615,1.0409,0.9663,0.9241,0.8922,0.8536,0.8191,0.7915,0.7726,0.0,0.0,0.0,0.0,0.7809,0.8133,0.8646,0.9146,0.0,0.0,0.0,0.0,0.0,0.0,0.0,0.0,0.0,0.0,0.0,0.0,0.0,0.0,0.0,0.0,0.0,0.0,0.0,0.0,0.0,0.0,0.0,0.0,0.0,0.0,0.0,0.0,0.0,0.0,0.0,0.0,1.644,1.6147,1.6419,1.6459,1.6144,1.6168,1.6206,1.615,1.598,1.5891,1.5891,1.5891,1.5891,1.5891,1.5891,1.5891,1.5891,1.5891,1.5891,1.5891,1.5891,1.5891,1.5891,1.5891,1.5891,1.5891,0.0,0.0,0.0,0.0,0.0,0.0,0.0,0.0,0.0,0.0,0.0,0.0,0.0,0.0,0.0,0.0,0.0,0.0,1.0051,0.0,0.0,1.0324,1.0419,1.0522,1.0522,1.0522,1.0522,1.0522,0.0,0.0,0.0,0.0,0.0,1.2977,0.0,1.2539,1.2346,1.1913,1.158,1.1267,1.0713,1.0544,1.0433,0.9681,0.9383,0.9228,0.851,0.8196,0.8071,0.7623,0.7258,0.0,0.0,0.0,0.0,0.756,0.8062,0.8612,0.0,0.0,0.0,0.0,0.0,0.0,0.0,0.0,0.0,0.0,0.0,0.0,0.0,0.0,0.0,0.0,0.0,0.0,0.0,0.0,0.0,0.0,0.0,0.0,0.0,0.0,0.0,0.0,0.0,0.0,0.0,1.5518,1.5646,1.5652,1.5927,1.5967,1.565,1.5586,1.5626,1.5658,1.5783,1.5891,1.5891,1.5891,1.5891,1.5891,1.5891,1.5891,1.5891,1.5891,1.5891,1.5891,1.5891,1.5891,1.5891,1.5891,1.5891,1.5891,0.0,0.0,0.0,0.0,0.0,0.0,0.0,0.0,0.0,0.0,0.0,0.0,0.0,0.0,0.0,1.0146,1.011,1.0102,0.9999,1.0007,1.0058,1.011,1.0316,1.0368,1.0368,1.047,1.0522,0.0,0.0,0.0,0.0,1.2164,1.2627,0.0,0.0,0.0,0.0,1.2026,1.1666,1.1387,1.0762,1.0409,1.0221,0.9634,0.9244,0.9009,0.8601,0.8296,0.8059,0.7595,0.7314,0.7125,0.6885,0.0,0.0,0.0,0.758,0.0,0.0,0.0,0.0,0.0,0.0,0.0,0.0,0.0,0.0,0.0,0.0,0.0,0.0,0.0,0.0,0.0,0.0,0.0,0.0,0.0,0.0,0.0,0.0,0.0,0.0,0.0,0.0,0.0,0.0,0.0,1.5083,1.5197,1.5164,1.5067,1.5331,1.5376,1.5077,1.523,1.5263,1.5282,1.5396,1.5529,1.5674,1.5674,1.5753,1.5891,1.5891,1.5891,1.5891,1.5891,1.5891,1.5891,1.5891,1.5891,1.5891,1.5891,1.5891,1.5891,0.0,0.0,0.0,0.0,0.0,0.0,0.0,0.0,0.0,0.0,0.0,0.0,0.0,0.0,0.0,0.0,0.9947,0.9947,0.9888,0.9844,0.9851,0.9947,1.011,1.0213,1.0213,1.0368,0.0,0.0,0.0,0.0,1.1509,1.2139,1.256,0.0,1.265,0.0,0.0,0.0,0.0,1.1653,1.1031,1.064,1.0422,0.9984,0.96,0.92,0.8985,0.8623,0.82,0.7805,0.7502,0.7212,0.6836,0.6729,0.0,0.0,0.0,0.0,0.0,0.0,0.0,0.0,0.0,0.0,0.0,0.0,0.0,0.0,0.0,0.0,0.0,0.0,0.0,0.0,0.0,0.0,0.0,0.0,0.0,0.0,0.0,0.0,0.0,0.0,0.0,0.0,0.0,0.0,1.4885,1.4885,1.479,1.4592,1.4783,1.4796,1.4612,1.4871,1.501,1.501,1.5077,1.5209,1.5403,1.5403,1.5505,1.5698,1.5831,1.5891,1.5891,1.5891,1.5891,1.5891,1.5891,1.5891,1.5891,1.5891,1.5891,1.5891,0.0,0.0,0.0,0.0,0.0,0.0,0.0,0.0,0.0,0.0,0.0,0.0,0.0,0.9999,0.9947,0.9799,0.9799,0.9732,0.9614,0.974,0.9799,0.9799,0.9947,0.0,0.9999,1.0213,0.0,0.0,0.0,0.0,1.1498,1.185,1.2258,1.2629,1.2707,1.2666,1.2525,0.0,0.0,0.0,1.1688,1.1551,1.1407,1.1121,1.0824,0.0,0.0,0.0,0.8665,0.8205,0.77,0.7246,0.691,0.6692,0.6606,0.0,0.0,0.0,0.0,0.0,0.0,0.0,0.0,0.0,0.0,0.0,0.0,0.0,0.0,0.0,0.0,0.0,0.0,0.0,0.0,0.0,0.0,0.0,0.0,0.0,0.0,0.0,0.0,0.0,0.0,0.0,0.0,0.0,1.4298,1.4298,1.4298,1.4298,1.431,1.4316,1.4322,1.46,1.4739,1.4739,1.4992,1.5113,1.5125,1.5125,1.5137,1.5179,1.5674,1.5891,1.5891,1.5891,1.5891,1.5891,1.5891,1.5891,1.5891,1.5891,1.5891,1.5891,0.0,0.0,0.0,0.0,0.0,0.0,0.0,0.0,0.0,0.0,0.0,0.0,0.0,0.9629,0.9621,0.9673,0.9673,0.9673,0.9614,0.9621,0.9673,0.9673,0.9792,0.9844,0.9844,1.0058,0.0,0.0,0.0,1.0962,1.1174,1.1503,1.1897,1.2258,1.2597,1.2789,1.2696,1.2522,0.0,0.0,1.1728,1.1608,1.1563,0.0,0.0,0.0,0.0,0.0,0.0,0.0,0.8092,0.7623,0.7261,0.6901,0.6597,0.6497,0.6662,0.6993,0.741,0.0,0.0,0.0,0.0,0.0,0.0,0.0,0.0,0.0,0.0,0.0,0.0,0.0,0.0,0.0,0.0,0.0,0.0,0.0,0.0,0.0,0.0,0.0,0.0,0.0,0.0,0.0,0.0,0.0,1.4298,1.4298,1.4298,1.4298,1.4298,1.4298,1.4298,1.4395,1.4449,1.4449,1.4545,1.4684,1.4859,1.4859,1.495,1.5119,1.5306,1.5481,1.5638,1.5638,1.5635,1.569,1.569,1.547,1.5357,1.5357,1.5357,1.5357,0.0,0.0,0.0,0.0,0.0,0.0,0.0,0.0,0.0,0.0,0.0,0.0,0.0,0.0,0.9361,0.9465,0.9465,0.9465,0.9465,0.9465,0.9465,0.9465,0.9577,0.9688,0.9688,0.0,0.0,0.0,0.0,0.0,0.0,1.1124,1.1464,1.1787,1.2193,1.2502,0.0,0.0,0.0,1.2254,0.0,1.1941,1.1896,0.0,0.0,0.0,0.0,0.0,0.0,0.0,0.0,0.0,0.7514,0.6936,0.6463,0.6437,0.6477,0.6567,0.6879,0.0,0.0,0.0,0.0,0.0,0.0,0.0,0.0,0.0,0.0,0.0,0.0,0.0,0.0,0.0,0.0,0.0,0.0,0.0,0.0,0.0,0.0,0.0,0.0,0.0,0.0,0.0,0.0,0.0,1.4112,1.4208,1.4208,1.4298,1.4298,1.4298,1.4298,1.4298,1.4298,1.4298,1.4298,1.4304,1.4386,1.4386,1.4481,1.4542,1.4542,1.4838,1.5263,1.5263,1.5157,1.5118,1.5211,1.5134,1.4927,1.5007,1.5041,1.5041,0.0,0.0,0.0,0.0,0.0,0.0,0.0,0.0,0.0,0.0,0.0,0.0,0.0,0.0,0.0,0.9225,0.9225,0.9225,0.9211,0.9211,0.9211,0.9211,0.9309,0.9413,0.9413,0.0,0.0,0.0,0.0,0.0,0.0,0.0,1.0962,1.1302,1.142,1.186,1.2581,0.0,1.2482,1.2321,0.0,1.2577,1.2336,0.0,0.0,0.0,1.154,1.1039,0.0,0.0,0.0,0.0,0.0,0.0,0.6258,0.6278,0.6236,0.6186,0.0,0.0,0.0,0.0,0.0,0.0,0.0,0.0,0.0,0.0,0.0,0.0,0.0,0.0,0.0,0.0,0.0,0.0,0.0,0.0,0.0,0.0,0.0,0.0,0.0,0.0,0.0,0.0,0.0,1.3636,1.3835,1.3931,1.4022,1.4298,1.4298,1.4298,1.4298,1.4298,1.4298,1.4298,1.4298,1.4112,1.3931,1.3931,1.3738,1.3539,1.3539,1.3912,1.4671,1.4677,1.448,1.4304,1.4561,1.467,1.4704,1.4938,1.4928,1.4934,0.0,0.0,0.0,0.0,0.0,0.0,0.0,0.0,0.0,0.0,0.0,0.0,0.0,0.0,0.9785,0.9568,0.9547,0.9449,0.9225,0.9211,0.9211,0.9211,0.9263,0.9263,0.9263,0.0,0.0,0.0,0.0,0.0,0.0,0.0,0.0,0.0,1.0813,1.1082,1.1549,1.1886,0.0,0.0,1.2282,1.2442,0.0,0.0,0.0,0.0,0.0,1.1774,0.0,0.0,0.9782,0.914,0.0,0.0,0.0,0.6673,0.642,0.6215,0.65,0.0,0.0,0.0,0.0,0.0,0.0,0.0,0.0,0.0,0.0,0.0,0.0,0.0,0.0,0.0,0.0,0.0,0.0,0.0,0.0,0.0,0.0,0.0,0.0,0.0,0.0,0.0,1.3244,1.3346,1.3642,1.3636,1.3732,1.4022,1.4022,1.4118,1.4298,1.4118,1.4022,1.4027,1.3823,1.3636,1.3636,1.3636,1.3539,1.3539,1.3539,1.3522,1.356,1.3939,1.4116,1.3976,1.4048,1.4084,1.4041,1.4106,1.4248,1.4407,0.0,0.0,0.0,0.0,0.0,0.0,0.0,0.0,0.0,0.0,0.0,0.0,0.0,0.0,0.0,0.9495,0.9361,0.9268,0.9039,0.8911,0.8896,0.8942,0.9001,0.9061,0.9106,0.0,0.0,0.0,0.0,0.0,0.0,0.0,0.0,0.0,0.0,0.0,0.0,0.0,0.0,0.0,1.2135,0.0,0.0,1.2867,1.2956,0.0,0.0,0.0,1.1866,1.0931,1.0042,0.0,0.0,0.0,0.0,0.0,0.6613,0.6465,0.6524,0.0,0.0,0.0,0.0,0.0,0.0,0.7569,0.0,0.0,0.0,0.0,0.0,0.0,0.0,0.0,0.0,0.0,0.0,0.0,0.0,0.0,0.0,0.0,0.0,0.0,0.0,0.0,1.2898,1.305,1.3346,1.3443,1.3539,1.3738,1.3738,1.3829,1.3919,1.3829,1.3738,1.3738,1.3539,1.3443,1.3346,1.3346,1.3249,1.3249,1.3249,1.3152,1.2969,1.3302,1.3441,1.349,1.3694,1.3762,1.3701,1.39,1.4067,1.4196,0.0,0.0,0.0,0.7521,0.7701,0.0,0.0,0.0,0.0,0.0,0.0,0.0,0.0,0.0,0.0,0.0,0.9048,0.8864,0.8832,0.8572,0.8519,0.8619,0.8712,0.8804,0.8956,0.0,0.0,0.0,0.0,0.0,0.0,0.0,0.0,0.0,0.0,0.0,0.0,0.0,0.0,1.1252,1.2134,1.2539,0.0,0.0,1.3086,0.0,1.2772,1.2516,1.2054,1.1134,1.0171,0.0,0.0,0.0,0.0,0.0,0.687,0.0,0.0,0.0,0.0,0.0,0.0,0.0,0.7179,0.725,0.731,0.0,0.0,0.0,0.0,0.0,0.0,0.0,0.0,0.0,0.0,0.0,0.0,0.0,0.0,0.0,0.0,0.0,1.2068,1.2277,1.2592,1.2834,1.305,1.3249,1.3443,1.3443,1.3443,1.3443,1.3539,1.3443,1.3443,1.3443,1.3443,1.3346,1.305,1.305,1.2953,1.2764,1.2764,1.2764,1.2764,1.2791,1.2802,1.2845,1.327,1.347,1.3566,1.3992,1.4169,1.4191,0.757,0.0,0.0,0.7856,0.7919,0.805,0.0,0.0,0.0,0.0,0.0,0.0,0.0,0.0,0.0,0.0,0.9511,0.9379,0.9157,0.8864,0.8754,0.8754,0.8596,0.8527,0.8679,0.8798,0.0,0.0,0.0,0.0,0.0,0.0,0.0,0.0,0.0,0.0,0.0,0.0,0.0,1.0463,1.1721,0.0,1.2274,1.3124,1.3214,1.3056,1.3149,1.2887,1.2157,0.0,1.023,0.9656,0.0,0.0,0.0,0.0,0.0,0.0,0.0,0.0,0.0,0.0,0.0,0.0,0.6556,0.6696,0.6809,0.0,0.0,0.0,0.0,0.0,0.0,0.0,0.0,0.0,0.0,0.0,0.0,0.0,0.0,0.0,0.0,0.0,1.1283,1.1554,1.1968,1.2278,1.2554,1.2764,1.3055,1.3147,1.3147,1.3244,1.3539,1.3244,1.3147,1.3147,1.3055,1.2958,1.2861,1.2861,1.2861,1.2764,1.2764,1.2764,1.2775,1.2964,1.3039,1.305,1.3141,1.3416,1.3766,1.3646,1.3693,1.3753,0.7251,0.0,0.0,0.0,0.7621,0.786,0.0,0.0,0.0,0.0,0.0,0.0,0.0,0.0,0.0,0.0,0.0,0.0,0.0,0.0,0.8594,0.8571,0.8544,0.8514,0.8474,0.8633,0.8745,0.0,0.0,0.0,0.0,0.0,0.0,0.0,0.0,0.0,0.0,0.0,1.0068,1.0119,1.1439,0.0,1.2422,1.302,1.3231,1.3237,1.3241,1.2832,1.2043,1.1246,1.0626,0.0,0.0,0.8965,0.8594,0.0,0.7859,0.764,0.0,0.0,0.0,0.6872,0.0,0.0,0.0,0.6486,0.0,0.0,0.0,0.0,0.0,0.0,0.0,0.0,0.0,0.0,0.0,0.0,0.0,0.0,0.0,0.0,0.0,0.0,1.0865,1.138,1.1605,1.1869,1.2001,1.2304,1.2544,1.2754,1.2856,1.305,1.3152,1.305,1.2953,1.2953,1.2861,1.2764,1.2764,1.2764,1.2764,1.2764,1.2764,1.2764,1.278,1.3012,1.3079,1.3095,1.3211,1.3397,1.362,1.3422,1.3429,1.3532,0.6745,0.0,0.0,0.0,0.7203,0.7468,0.7748,0.0,0.0,0.0,0.0,0.0,0.0,0.0,0.0,0.0,0.0,0.0,0.0,0.0,0.0,0.8467,0.8531,0.8521,0.8404,0.8498,0.8639,0.0,0.0,0.0,0.0,0.0,0.0,0.0,0.0,0.0,0.0,0.0,0.0,1.0084,0.0,1.1978,1.2579,1.2814,1.3074,1.3366,1.3058,1.2582,1.1922,1.1451,0.0,1.0584,0.9981,0.9468,0.0,0.0,0.0,0.0,0.0,0.0,0.0,0.0,0.0,0.642,0.0,0.0,0.0,0.0,0.0,0.0,0.0,0.0,0.0,0.0,0.0,0.0,0.0,0.0,0.0,0.0,0.0,0.0,0.0,0.0,1.0348,1.1061,1.1187,1.1303,1.1576,1.1826,1.2125,1.2302,1.2543,1.2667,1.2667,1.2667,1.2667,1.2667,1.2667,1.2667,1.2667,1.2667,1.2667,1.2667,1.2667,1.2667,1.2683,1.2862,1.2988,1.2977,1.3304,1.3425,1.3381,1.3249,1.3207,1.3207,0.6214,0.628,0.0,0.0,0.6945,0.7138,0.7689,0.0,0.0,0.0,0.0,0.0,0.0,0.0,0.0,0.0,0.0,0.0,0.9638,0.0,0.0,0.0,0.865,0.8461,0.8305,0.8521,0.8568,0.8427,0.0,0.0,0.0,0.0,0.0,0.0,0.8554,0.0,0.0,0.0,0.9933,0.0,1.0927,1.1639,0.0,1.2796,1.307,1.3351,1.2699,1.2301,1.1922,0.0,1.1187,1.0863,0.0,0.9927,0.0,0.0,0.0,0.0,0.0,0.0,0.0,0.0,0.6832,0.0,0.0,0.0,0.0,0.0,0.0,0.0,0.0,0.0,0.0,0.0,0.0,0.0,0.0,0.0,0.0,0.0,0.0,0.0,0.0,0.0,0.0,1.0081,1.0285,1.0637,1.1051,1.1452,1.1767,1.1787,1.1976,1.2078,1.2078,1.2078,1.2078,1.2078,1.2078,1.2078,1.2078,1.2078,1.2078,1.2078,1.2078,1.2078,1.2109,1.2532,1.2617,1.2668,1.32,1.3311,1.328,1.3088,1.2989,1.2881,0.5951,0.602,0.0,0.0,0.0,0.6781,0.0,0.0,0.0,0.0,0.0,0.0,0.0,0.0,0.0,0.0,0.0,0.9648,0.0,0.0,0.0,0.0,0.0,0.0,0.8415,0.8426,0.846,0.8507,0.833,0.0,0.0,0.0,0.0,0.0,0.8637,0.0,0.911,0.0,0.0,0.0,0.0,0.0,0.0,1.2397,1.2681,1.29,1.2369,1.2123,1.1894,0.0,1.117,0.0,0.0,0.0,0.0,0.0,0.0,0.0,0.0,0.0,0.0,0.0,0.0,0.0,0.0,0.0,0.642,0.0,0.0,0.0,0.0,0.0,0.0,0.0,0.0,0.0,0.0,0.0,0.0,0.0,0.0,0.0,0.0,0.0,0.0,0.0,0.0,0.9904,1.0201,1.0783,1.1203,1.1462,1.1748,1.1854,1.198,1.198,1.198,1.198,1.198,1.198,1.198,1.198,1.198,1.198,1.198,1.198,1.2016,1.2461,1.254,1.2368,1.2926,1.3121,1.2989,1.2767,1.2659,1.255,0.5495,0.0,0.0,0.0,0.0,0.0,0.0,0.0,0.0,0.0,0.0,0.0,0.9331,0.9723,0.0,0.0,0.0,0.9827,0.0,0.0,0.943,0.0,0.0,0.0,0.0,0.0,0.8543,0.8569,0.0,0.0,0.0,0.0,0.0,0.0,0.0,0.8829,0.8958,0.0,0.0,1.0245,1.1046,1.1636,1.2146,1.2349,1.2577,1.2619,1.2289,1.2037,1.1952,1.1516,1.1251,0.0,1.1073,0.0,0.0,0.0,0.0,0.0,0.9124,0.0,0.0,0.0,0.0,0.0,0.0,0.0,0.0,0.0,0.0,0.0,0.0,0.0,0.0,0.0,0.0,0.0,0.0,0.0,0.0,0.0,0.0,0.0,0.0,0.0,0.0,0.0,0.0,0.0,0.9511,0.9986,1.0467,1.0886,1.1143,1.1375,1.1585,1.1585,1.1683,1.1683,1.178,1.178,1.178,1.178,1.178,1.178,1.178,1.178,1.1815,1.2253,1.223,1.2171,1.2602,1.2772,1.2767,1.2441,1.2327,1.2332,0.4846,0.4967,0.0,0.0,0.0,0.0,0.0,0.0,0.0,0.0,0.0,0.0,0.0,0.0,0.0,0.0,0.0,1.0277,1.0297,0.0,0.9828,0.0,0.0,0.9416,0.0,0.0,0.0,0.8498,0.0,0.0,0.0,0.0,0.0,0.0,0.0,0.894,0.9233,0.9756,1.0252,1.0653,1.1211,1.1762,1.2337,0.0,1.2875,1.2705,1.2448,0.0,0.0,1.1763,1.151,0.0,0.0,0.0,0.0,0.0,0.0,0.0,0.0,0.0,0.0,0.8168,0.0,0.0,0.0,0.0,0.6958,0.0,0.0,0.0,0.0,0.0,0.0,0.0,0.0,0.0,0.0,0.0,0.0,0.0,0.0,0.0,0.0,0.0,0.0,0.0,0.0,0.0,0.9034,0.9247,0.9535,0.9833,1.0017,1.0211,1.0408,1.0703,1.0801,1.0801,1.1096,1.1194,1.1194,1.1194,1.1194,1.1194,1.1194,1.1194,1.1227,1.1642,1.1817,1.186,1.2276,1.2441,1.2441,1.2441,1.2223,1.2005,0.0,0.0,0.0,0.0,0.0,0.0,0.0,0.7184,0.0,0.0,0.0,0.0,0.0,0.0,0.9899,0.0,0.0,1.0187,1.0245,1.0223,0.0,0.0,0.0,0.9542,0.0,0.0,0.0,0.0,0.0,0.0,0.0,0.0,0.0,0.0,0.0,0.8967,0.0,0.0,0.0,0.0,0.0,1.2158,1.2343,0.0,0.0,1.2448,1.2203,1.1952,0.0,1.1521,1.1348,1.1262,1.1262,1.0992,1.0549,1.0559,1.0207,0.0,0.0,0.0,0.8717,0.8374,0.0,0.0,0.0,0.0,0.0,0.0,0.0,0.0,0.0,0.0,0.0,0.0,0.0,0.0,0.0,0.0,0.0,0.0,0.0,0.0,0.0,0.0,0.0,0.0,0.0,0.0,0.0,0.8958,0.924,0.9626,0.9824,1.0017,1.0211,1.044,1.0511,1.0511,1.0605,1.0703,1.0703,1.0703,1.0703,1.0703,1.0703,1.0703,1.0735,1.1137,1.13,1.134,1.1738,1.1896,1.1896,1.2114,1.2114,1.1891,0.4556,0.0,0.0,0.0,0.0,0.0,0.0,0.0,0.0,0.0,0.8496,0.0,0.9263,0.0,0.9979,0.0,1.0214,1.0269,1.0422,1.0429,0.0,1.0189,0.9989,0.0,0.0,0.0,0.0,0.0,0.0,0.8673,0.0,0.0,0.0,0.0,0.0,0.0,0.0,0.0,1.0563,0.0,0.0,1.2123,0.0,0.0,1.2454,1.2363,0.0,1.1785,1.1699,1.1354,1.1262,1.1262,1.1181,1.0997,1.0641,1.0554,1.0294,0.9923,0.9705,0.9271,0.0,0.8569,0.8041,0.0,0.7456,0.0,0.0,0.0,0.0,0.0,0.0,0.0,0.0,0.0,0.0,0.0,0.0,0.5111,0.0,0.0,0.0,0.0,0.0,0.0,0.0,0.0,0.7033,0.0,0.0,0.0,0.861,0.9068,0.9325,0.9545,0.9827,1.0117,1.0216,1.0216,1.0314,1.0413,1.0413,1.0413,1.0413,1.0413,1.0413,1.0413,1.0444,1.083,1.0988,1.1028,1.1419,1.1568,1.1568,1.1787,1.1787,1.1564,0.0,0.0,0.0,0.0,0.5494,0.0,0.0,0.0,0.7207,0.0,0.8396,0.9053,0.913,0.9807,1.0391,1.056,1.0453,0.0,1.0735,1.064,0.0,0.0,1.0627,1.0469,1.0187,0.0,0.0,0.0,0.0,0.0,0.0,0.0,0.0,0.0,0.878,0.0,0.9556,1.0048,1.0515,1.0872,1.1369,1.173,1.2043,1.1957,0.0,1.2283,1.1866,1.1699,1.1613,1.1354,1.1262,1.1267,1.1094,1.0824,1.0641,1.0381,1.0125,0.9951,0.9689,0.9289,0.8972,0.8709,0.0,0.0,0.0,0.0,0.7596,0.0,0.0,0.0,0.0,0.0,0.0,0.0,0.0,0.0,0.0,0.0,0.0,0.0,0.0,0.0,0.0,0.0,0.6134,0.6142,0.6436,0.6686,0.0,0.0,0.7597,0.8177,0.8516,0.8875,0.934,0.9714,0.9912,0.992,1.0216,1.0314,1.0314,1.0314,1.0314,1.0314,1.0314,1.0417,1.0457,1.0835,1.0997,1.1041,1.1419,1.1568,1.1568,1.1568,1.135,1.1021,0.455,0.4639,0.4809,0.0,0.56,0.6002,0.0,0.0,0.0,0.0,0.825,0.873,0.9101,0.9575,0.9904,0.9947,1.0281,0.0,0.0,0.0,0.0,1.0765,1.0466,1.0333,1.0238,1.0206,0.0,0.9681,0.0,0.0,0.8753,0.0,0.0,0.0,0.0,0.0,0.9736,0.9863,1.0437,1.122,1.1712,1.198,0.0,0.0,1.1785,1.1866,1.1699,1.1613,1.1354,1.1348,1.1181,1.1094,1.1008,1.0738,1.0381,1.0294,1.0125,0.9951,0.9689,0.9392,0.9147,0.8743,0.8421,0.817,0.0,0.0,0.0,0.0,0.0,0.0,0.0,0.0,0.0,0.0,0.0,0.0,0.0,0.0,0.0,0.0,0.0,0.0,0.0,0.0,0.5264,0.5576,0.5827,0.6194,0.0,0.0,0.0,0.7744,0.808,0.8332,0.8589,0.9048,0.9299,0.943,0.9727,0.9826,0.9826,0.9826,0.9826,0.9826,0.9826,0.99,1.0037,1.0273,1.0451,1.0601,1.0824,1.0802,1.0696,1.0911,1.0802,1.0472,0.4542,0.0,0.0,0.5291,0.0,0.0,0.6353,0.0,0.0,0.7599,0.8099,0.0,0.9068,0.9373,0.9671,0.9747,1.0106,0.0,0.0,0.0,0.0,1.0744,1.0432,1.0394,1.0558,1.0241,0.0,0.991,0.0,0.0,0.8802,0.0,0.0,0.0,0.0,0.9111,0.0,1.0104,1.061,1.1162,1.1584,0.0,0.0,1.1613,1.1527,1.1527,1.1527,1.144,1.1262,1.1262,1.1181,1.1008,1.0916,1.0646,1.0294,1.0207,1.0038,0.9777,0.9519,0.9257,0.9061,0.8694,0.8496,0.8361,0.8178,0.7971,0.77,0.0,0.0,0.0,0.0,0.0,0.0,0.0,0.0,0.0,0.0,0.0,0.0,0.0,0.0,0.0,0.0,0.0,0.4861,0.5141,0.5399,0.5659,0.0,0.0,0.0,0.7238,0.7555,0.7924,0.8337,0.8695,0.8867,0.9031,0.9225,0.9327,0.943,0.943,0.9529,0.9628,0.9628,0.9726,0.99,0.9979,1.0055,1.023,1.0296,1.0253,1.0036,1.0143,1.0147,1.0036,0.0,0.0,0.0,0.0,0.0,0.0,0.0,0.6637,0.0,0.7497,0.0,0.856,0.9019,0.937,0.9548,0.9695,0.0,1.0027,1.0361,1.04,1.0543,1.0693,1.0471,1.0458,1.0742,1.0248,0.0,0.0,0.0,0.0,0.0,0.0,0.0,0.0,0.0,0.0,0.0,1.0462,1.0875,0.0,1.1155,1.1262,1.1262,1.1262,1.1262,1.1262,1.1267,1.1267,1.1262,1.1267,1.1094,1.0916,1.0733,1.0467,1.0207,1.0038,0.9777,0.9515,0.9345,0.9087,0.8828,0.8652,0.8568,0.8524,0.8361,0.8072,0.7858,0.7545,0.7242,0.6933,0.0,0.0,0.0,0.0,0.0,0.0,0.0,0.0,0.0,0.0,0.0,0.0,0.0,0.0,0.0,0.4694,0.0,0.0,0.0,0.0,0.0,0.6612,0.697,0.0,0.8146,0.0,0.8553,0.8726,0.8825,0.8928,0.9133,0.9133,0.9232,0.9529,0.9553,0.9658,0.9835,0.9704,0.9769,0.9935,0.9757,0.9717,0.9735,0.9407,0.9421,0.9654,0.0,0.0,0.0,0.0,0.0,0.5674,0.6287,0.6735,0.7041,0.7243,0.7924,0.0,0.8497,0.904,0.9457,0.9485,0.968,0.0,0.0,0.0,0.0,1.0449,1.0335,1.0367,1.0467,1.0229,1.0013,0.0,0.0,0.0,0.0,0.0,0.0,0.0,0.0,0.0,0.9205,1.0078,0.0,1.0676,1.116,1.1262,1.1262,1.1262,1.1262,1.1267,1.1094,1.1181,1.1267,1.1094,1.0916,1.0733,1.0467,1.0207,1.0038,1.0038,0.9777,0.9515,0.9345,0.9087,0.8828,0.8652,0.8568,0.856,0.8528,0.8253,0.7891,0.7861,0.7318,0.6878,0.6854,0.0,0.0,0.0,0.0,0.0,0.0,0.0,0.0,0.0,0.0,0.0,0.0,0.0,0.0,0.0,0.0,0.0,0.0,0.0,0.0,0.0,0.0,0.0,0.0,0.0,0.8247,0.8432,0.8726,0.8825,0.8825,0.8825,0.8924,0.8931,0.9075,0.9233,0.9399,0.9455,0.9619,0.9775,0.9588,0.9565,0.956,0.9004,0.8967,0.9056,0.0,0.0,0.0,0.0,0.0,0.0,0.0,0.6496,0.0,0.7231,0.7707,0.8054,0.8279,0.8742,0.9167,0.9167,0.9504,0.9807,0.972,0.9865,1.0073,1.0218,1.0156,0.0,1.0375,1.0184,0.9943,0.9538,0.0,0.0,0.0,0.0,0.0,0.0,0.0,0.8755,0.0,0.0,0.0,1.0517,1.0857,1.0997,1.0997,1.0997,1.0997,1.0997,1.0911,1.0911,1.0997,1.0911,1.0733,1.0467,1.0381,1.0125,1.0038,1.0038,0.9777,0.9432,0.9345,0.8999,0.874,0.8656,0.8568,0.8564,0.8384,0.812,0.7856,0.768,0.7355,0.693,0.6599,0.6191,0.0,0.0,0.0,0.0,0.0,0.0,0.0,0.0,0.0,0.0,0.0,0.0,0.0,0.0,0.0,0.0,0.0,0.0,0.0,0.0,0.0,0.0,0.0,0.0,0.0,0.8115,0.8294,0.8432,0.8627,0.8627,0.8627,0.8832,0.9004,0.9171,0.9347,0.9377,0.9413,0.9275,0.9133,0.9089,0.9047,0.8673,0.8671,0.8769,0.0,0.4374,0.0,0.0,0.5175,0.0,0.0,0.6129,0.6609,0.7243,0.7595,0.7829,0.8178,0.8506,0.8803,0.8803,0.9265,0.9557,0.9432,0.9741,0.9943,0.9895,0.9923,0.9957,1.017,1.0037,0.9748,0.0,0.0,0.0,0.0,0.0,0.0,0.0,0.0,0.0,0.0,0.0,1.0161,1.0333,1.0555,1.0727,1.0727,1.0727,1.0727,1.0727,1.0641,1.0641,1.0641,1.0554,1.0467,1.0294,1.0207,1.0125,0.9951,0.9951,0.9607,0.9257,0.9262,0.8915,0.8568,0.8568,0.8568,0.8564,0.8288,0.8028,0.7856,0.7595,0.7323,0.6919,0.6439,0.6153,0.0,0.0,0.0,0.0,0.0,0.0,0.0,0.0,0.0,0.0,0.0,0.0,0.0,0.0,0.0,0.0,0.0,0.0,0.0,0.0,0.0,0.6064,0.6825,0.0,0.7285,0.0,0.7868,0.8038,0.8333,0.8333,0.8432,0.8638,0.8838,0.9038,0.9133,0.9057,0.8954,0.8775,0.8659,0.8625,0.8689,0.8457,0.8461,0.8558,0.0,0.0,0.0,0.0,0.0,0.0,0.0,0.5869,0.6343,0.7013,0.7372,0.7616,0.7962,0.8329,0.8457,0.8457,0.8803,0.9029,0.9013,0.9343,0.9589,0.9669,0.961,0.9587,0.9723,0.9597,0.9452,0.0,0.0,0.0,0.0,0.0,0.0,0.0,0.0,0.0,0.0,0.9692,1.0134,1.0333,1.0555,1.0727,1.0727,1.0727,1.0727,1.0641,1.0381,1.0381,1.0294,1.0125,1.0212,1.0294,1.0125,1.0038,0.9951,0.9689,0.9519,0.9262,0.8999,0.874,0.8568,0.8568,0.8568,0.8564,0.8288,0.8028,0.7856,0.7595,0.7323,0.6919,0.6439,0.6316,0.6087,0.0,0.0,0.0,0.0,0.0,0.0,0.0,0.0,0.0,0.0,0.0,0.0,0.0,0.0,0.0,0.0,0.0,0.0,0.5438,0.0,0.5892,0.6365,0.668,0.0,0.753,0.7575,0.7743,0.8038,0.8038,0.8038,0.8055,0.844,0.8515,0.8556,0.8257,0.823,0.8234,0.8246,0.8396,0.861,0.8269,0.8239,0.8349,0.0,0.0,0.0,0.0,0.0,0.0,0.0,0.553,0.5927,0.6531,0.6836,0.7151,0.7504,0.7926,0.8213,0.8336,0.8696,0.8897,0.8691,0.9101,0.9337,0.927,0.9478,0.9516,0.958,0.9453,0.9338,0.0,0.0,0.0,0.0,0.0,0.0,0.0,0.0,0.8751,0.9222,0.9587,0.999,1.0299,1.0513,1.0607,1.0499,1.0499,1.0416,1.0299,1.0125,1.0125,1.012,1.0038,1.0038,1.012,1.0038,1.0038,0.9951,0.9689,0.9432,0.9257,0.8999,0.874,0.8568,0.8568,0.8568,0.8476,0.8116,0.794,0.7764,0.7323,0.7143,0.6946,0.6452,0.6355,0.6138,0.0,0.0,0.0,0.0,0.0,0.0,0.0,0.0,0.0,0.0,0.0,0.0,0.0,0.0,0.0,0.0,0.0,0.0,0.5355,0.0,0.5766,0.6158,0.6453,0.6771,0.7117,0.7236,0.7441,0.7537,0.7537,0.7633,0.7804,0.7998,0.8084,0.8162,0.8133,0.8201,0.8151,0.8194,0.8201,0.8301,0.7777,0.7712,0.7755,0.3086,0.0,0.3563,0.0,0.4252,0.4642,0.5004,0.5193,0.5494,0.6116,0.6283,0.6577,0.703,0.7459,0.7875,0.8122,0.8491,0.8693,0.8594,0.8787,0.8915,0.8944,0.9198,0.0,0.9316,0.9268,0.9216,0.9038,0.8866,0.0,0.0,0.0,0.0,0.0,0.8737,0.9011,0.9334,0.961,0.9862,1.0281,1.0426,1.0398,1.0357,1.0296,1.0178,1.0036,1.0062,1.0038,1.0038,1.0038,1.0038,1.0038,1.0038,0.9951,0.9864,0.9602,0.9345,0.9087,0.8911,0.874,0.8568,0.8568,0.8568,0.8476,0.8116,0.7944,0.7779,0.7289,0.7173,0.6976,0.6665,0.6459,0.6225,0.579,0.0,0.0,0.0,0.0,0.0,0.0,0.4629,0.4461,0.4206,0.0,0.0,0.0,0.0,0.0,0.0,0.0,0.0,0.0,0.0,0.0,0.0,0.6241,0.6461,0.6747,0.6914,0.7138,0.7238,0.7281,0.7446,0.7712,0.7693,0.7831,0.7885,0.7983,0.7952,0.7925,0.7867,0.7837,0.7761,0.7357,0.7266,0.7266,0.2946,0.2962,0.3085,0.3454,0.3745,0.4159,0.4413,0.4849,0.5279,0.554,0.5595,0.5888,0.6787,0.7263,0.7385,0.7385,0.8,0.8369,0.8366,0.8483,0.8647,0.0,0.0,0.8749,0.8826,0.8998,0.901,0.8844,0.0,0.0,0.8004,0.0,0.846,0.8911,0.9089,0.9268,0.947,0.9749,0.9921,1.02,1.02,1.0385,1.0546,1.0348,1.0272,1.0244,1.0027,1.0038,1.0038,1.0038,1.0038,1.0038,1.0038,0.9777,0.9602,0.9345,0.9087,0.8823,0.8652,0.8568,0.8568,0.8568,0.8568,0.8564,0.8288,0.8028,0.7812,0.7427,0.7248,0.7098,0.6979,0.6706,0.6343,0.6169,0.0,0.0,0.0,0.0,0.0,0.0,0.483,0.4781,0.4731,0.0,0.0,0.0,0.0,0.0,0.0,0.0,0.0,0.5358,0.5368,0.0,0.573,0.5966,0.6272,0.6461,0.6721,0.6942,0.7241,0.7379,0.7586,0.7729,0.7519,0.7552,0.7786,0.7448,0.7243,0.721,0.7212,0.7044,0.6898,0.69,0.69,0.69,0.259,0.2621,0.2766,0.3135,0.3423,0.384,0.4225,0.4498,0.4899,0.5154,0.526,0.5491,0.5976,0.6485,0.6773,0.0,0.751,0.7755,0.0,0.8207,0.8386,0.8295,0.8359,0.8434,0.8414,0.8288,0.8421,0.8709,0.0,0.0,0.0,0.8206,0.8455,0.8734,0.8786,0.9095,0.9481,0.9665,0.9936,1.0143,1.0272,1.0341,1.022,1.0162,1.0154,0.9993,0.9929,0.9986,1.0038,1.0038,1.0038,1.0038,1.0038,0.9777,0.9602,0.9345,0.9087,0.8823,0.8652,0.8568,0.8568,0.8568,0.8568,0.8564,0.8288,0.794,0.7606,0.7478,0.7265,0.7068,0.6853,0.6735,0.6526,0.6171,0.5889,0.0,0.0,0.0,0.0,0.0,0.0,0.4787,0.0,0.4726,0.0,0.0,0.0,0.0,0.0,0.0,0.0,0.0,0.545,0.0,0.5847,0.5823,0.5937,0.6109,0.6067,0.6078,0.6261,0.6458,0.6585,0.6658,0.6631,0.6746,0.6883,0.6847,0.6847,0.6865,0.6941,0.6991,0.69,0.665,0.6528,0.6528,0.2245,0.2267,0.2409,0.2798,0.309,0.3379,0.3899,0.418,0.4455,0.4977,0.4954,0.5067,0.5456,0.5849,0.0,0.6712,0.7079,0.7182,0.7268,0.7635,0.7845,0.7886,0.8002,0.8108,0.8099,0.0,0.0,0.8383,0.8059,0.8079,0.8229,0.8426,0.8583,0.871,0.871,0.8997,0.9299,0.9505,0.9749,1.0056,1.0168,1.0245,1.0233,1.0162,1.0076,0.9938,0.9876,0.992,0.9972,0.9979,1.0095,1.0074,1.0074,0.9948,0.962,0.9389,0.9087,0.8823,0.8652,0.8568,0.8568,0.8568,0.8568,0.8564,0.8288,0.794,0.7609,0.7578,0.7361,0.7071,0.7042,0.692,0.6704,0.6257,0.6101,0.5815,0.5477,0.0,0.0,0.0,0.0,0.0,0.0,0.4753,0.0,0.0,0.0,0.0,0.0,0.0,0.0,0.5178,0.5253,0.0,0.5624,0.5558,0.5575,0.5779,0.5729,0.5751,0.5863,0.6034,0.6136,0.6182,0.6284,0.6386,0.6491,0.6598,0.6584,0.6563,0.6628,0.653,0.6285,0.6158,0.5912,0.5792,0.2033,0.2032,0.0,0.0,0.2615,0.0,0.3562,0.3736,0.4037,0.4707,0.4656,0.475,0.5144,0.5342,0.5781,0.6328,0.0,0.0,0.0,0.69,0.7021,0.7385,0.7522,0.7646,0.788,0.8093,0.8003,0.7732,0.793,0.8007,0.818,0.8487,0.8704,0.8741,0.8744,0.8939,0.9133,0.9236,0.9529,0.992,0.992,1.0117,1.0293,1.0123,1.0049,1.0083,0.9907,0.9854,0.9908,0.9972,1.013,1.0296,1.0296,1.0058,0.9763,0.9402,0.9117,0.8844,0.8673,0.8576,0.8568,0.8568,0.8568,0.8564,0.8292,0.8028,0.7897,0.7771,0.7417,0.7183,0.7329,0.7062,0.6704,0.6432,0.6257,0.5996,0.5499,0.0,0.0,0.0,0.0,0.0,0.0,0.4738,0.4718,0.0,0.0,0.0,0.0,0.0,0.4748,0.4769,0.4788,0.4889,0.5085,0.5193,0.5302,0.5415,0.5611,0.5758,0.5864,0.5969,0.6069,0.6168,0.6266,0.6366,0.6589,0.6577,0.6438,0.628,0.628,0.5912,0.5421,0.5421,0.5177,0.4935,0.0,0.0,0.209,0.2228,0.2522,0.268,0.2948,0.3223,0.3498,0.4035,0.4025,0.4285,0.4816,0.4936,0.5162,0.5479,0.6127,0.6632,0.6535,0.6775,0.69,0.7023,0.6919,0.6968,0.706,0.7101,0.722,0.7519,0.7702,0.7833,0.7706,0.8017,0.825,0.8313,0.8617,0.8747,0.8928,0.9133,0.9232,0.943,0.9628,0.9727,0.9817,0.9776,0.9765,0.9819,0.9729,0.9796,0.985,0.9806,0.9911,0.9951,0.9951,0.989,0.9815,0.9723,0.9228,0.8849,0.8759,0.8666,0.8568,0.8568,0.8568,0.8568,0.8476,0.8208,0.7867,0.7816,0.7432,0.7149,0.7187,0.7078,0.6874,0.6428,0.6343,0.6113,0.5529,0.5507,0.0,0.0,0.4961,0.4961,0.4709,0.4734,0.4665,0.0,0.0,0.0,0.0,0.4181,0.4282,0.4776,0.4924,0.5066,0.5289,0.5015,0.4656,0.44,0.4607,0.4699,0.4675,0.5084,0.5246,0.527,0.5583,0.579,0.5768,0.5741,0.5589,0.5667,0.53,0.5179,0.5056,0.5056,0.4933,0.4935,0.1576,0.1842,0.2114,0.2127,0.2278,0.2559,0.2694,0.2828,0.3095,0.3498,0.3498,0.3767,0.4304,0.444,0.4669,0.4965,0.5525,0.5818,0.5729,0.5939,0.6164,0.641,0.6357,0.6429,0.6741,0.6698,0.6737,0.6845,0.7278,0.7434,0.7313,0.7736,0.7874,0.7953,0.819,0.8418,0.8535,0.8766,0.8931,0.9031,0.9331,0.943,0.943,0.9529,0.9661,0.9656,0.9665,0.9763,0.9759,0.9766,0.9894,0.9969,0.9969,0.9936,0.991,0.991,0.9524,0.9038,0.8946,0.8881,0.8792,0.8706,0.8625,0.8564,0.8472,0.812,0.7856,0.7768,0.7408,0.7051,0.6966,0.6969,0.6789,0.6343,0.6257,0.6036,0.5478,0.5376,0.0,0.4885,0.4787,0.462,0.4369,0.4365,0.4243,0.4155,0.0,0.0,0.3985,0.3758,0.3839,0.4293,0.4424,0.454,0.4628,0.4466,0.4269,0.4148,0.4259,0.4334,0.4267,0.4559,0.4725,0.4763,0.5071,0.5154,0.524,0.5201,0.5138,0.5177,0.4933,0.481,0.4687,0.4687,0.4564,0.4442,0.0795,0.1322,0.1859,0.2016,0.2155,0.2289,0.2559,0.2559,0.2693,0.3095,0.3095,0.3229,0.3633,0.3902,0.4263,0.441,0.4646,0.4862,0.503,0.4967,0.5179,0.5671,0.5796,0.6002,0.6404,0.6407,0.6373,0.6296,0.6834,0.6995,0.6793,0.7437,0.7585,0.7464,0.7761,0.7891,0.8054,0.8327,0.8453,0.8726,0.9031,0.9133,0.9133,0.943,0.9529,0.9505,0.9542,0.9581,0.9556,0.9596,0.9746,0.9887,0.9887,0.9892,0.9821,0.9821,0.9602,0.9259,0.9141,0.9116,0.8963,0.8806,0.8661,0.8464,0.8278,0.8012,0.7841,0.7574,0.7303,0.7022,0.6828,0.6739,0.664,0.6086,0.6083,0.5866,0.5239,0.0,0.5026,0.4697,0.4431,0.4182,0.403,0.3901,0.3713,0.353,0.3553,0.3623,0.0,0.3345,0.3325,0.3457,0.3607,0.3678,0.3755,0.3878,0.3951,0.3869,0.3989,0.4052,0.4173,0.434,0.4408,0.4483,0.4674,0.4749,0.4826,0.478,0.481,0.4687,0.4687,0.4441,0.4193,0.4193,0.3948,0.3703,0.0134,0.0268,0.0537,0.1211,0.175,0.2155,0.2289,0.2289,0.2424,0.2694,0.2828,0.2962,0.3229,0.3363,0.3342,0.3423,0.3378,0.3826,0.4837,0.494,0.4935,0.5056,0.5056,0.5051,0.5161,0.5612,0.594,0.6398,0.6427,0.6376,0.6362,0.7019,0.7174,0.7061,0.7573,0.7654,0.7545,0.8037,0.8157,0.8137,0.863,0.8825,0.8825,0.8924,0.8924,0.892,0.8894,0.8985,0.8981,0.8954,0.8962,0.8985,0.8985,0.9004,0.9023,0.9023,0.8985,0.8916,0.926,0.9107,0.8703,0.84,0.8374,0.8355,0.8262,0.808,0.7805,0.7526,0.7336,0.7108,0.6715,0.6606,0.6475,0.5827,0.5722,0.5625,0.5078,0.0,0.4661,0.4455,0.4188,0.4034,0.3831,0.3576,0.3495,0.34,0.3038,0.2762,0.2762,0.2612,0.2437,0.2527,0.2925,0.318,0.3085,0.3103,0.295,0.2821,0.2837,0.2975,0.3349,0.3582,0.3847,0.4142,0.4559,0.4749,0.4826,0.4534,0.4315,0.4069,0.3824,0.3454,0.3207,0.3207,0.3208,0.3085,-0.0,-0.0,0.0135,0.0404,0.0808,0.1346,0.202,0.2155,0.2289,0.2424,0.2424,0.2558,0.2827,0.2941,0.2911,0.3132,0.3087,0.3285,0.383,0.4071,0.4318,0.4562,0.4685,0.4668,0.4874,0.5,0.5251,0.5394,0.5643,0.5822,0.5822,0.6381,0.6689,0.6638,0.6896,0.713,0.7123,0.7407,0.7613,0.7746,0.8065,0.823,0.8432,0.8531,0.8627,0.8825,0.8825,0.8825,0.8825,0.8825,0.8825,0.8726,0.8627,0.8627,0.8528,0.8432,0.8531,0.881,0.9026,0.8887,0.8661,0.8475,0.8313,0.8059,0.7872,0.7684,0.7402,0.7218,0.6932,0.6626,0.6383,0.6182,0.5977,0.5558,0.5361,0.0,0.0,0.4537,0.4276,0.413,0.3757,0.3394,0.3333,0.2982,0.2807,0.2807,0.2736,0.2654,0.2654,0.248,0.2404,0.2328,0.263,0.2754,0.2696,0.275,0.2692,0.2626,0.2651,0.2783,0.2917,0.3057,0.3212,0.338,0.3671,0.3729,0.3786,0.3689,0.3576,0.3453,0.3331,0.3085,0.2961,0.2961,0.2961,0.2961,-0.0,-0.0,-0.0,-0.0,-0.0,0.0404,0.1481,0.1885,0.1885,0.1885,0.2155,0.2286,0.2547,0.2522,0.2618,0.2829,0.2795,0.2884,0.2841,0.3085,0.3454,0.407,0.4193,0.4292,0.4727,0.4636,0.4561,0.462,0.4976,0.5148,0.5148,0.5712,0.6049,0.6044,0.6294,0.6461,0.6753,0.6787,0.6987,0.7126,0.7327,0.7566,0.7739,0.8035,0.823,0.8428,0.8428,0.8428,0.8428,0.8428,0.8428,0.8428,0.8233,0.8134,0.8035,0.7839,0.8035,0.8329,0.8524,0.8441,0.8355,0.8258,0.7973,0.7695,0.7505,0.7219,0.693,0.6742,0.6452,0.6252,0.5939,0.5648,0.5446,0.5142,0.0,0.0,0.0,0.4095,0.3816,0.3645,0.3167,0.2888,0.2915,0.2561,0.2289,0.2299,0.2332,0.2352,0.2249,0.215,0.2061,0.1986,0.2194,0.2301,0.2311,0.2375,0.2411,0.2421,0.2453,0.2474,0.2484,0.2516,0.2674,0.2843,0.2877,0.2918,0.2961,0.2961,0.2961,0.2838,0.2838,0.2838,0.2715,0.2715,0.2715,0.2715,-0.0,-0.0,-0.0,-0.0,-0.0,-0.0,0.0135,0.0808,0.1212,0.1212,0.175,0.2144,0.2248,0.2243,0.2216,0.2027,0.202,0.2257,0.247,0.259,0.2714,0.3085,0.3455,0.3822,0.4432,0.4301,0.435,0.4698,0.4552,0.459,0.459,0.4817,0.5152,0.5483,0.5701,0.5982,0.6221,0.6418,0.6401,0.6316,0.6821,0.6952,0.6945,0.7138,0.7338,0.7338,0.7338,0.7338,0.7338,0.7338,0.7338,0.7338,0.7335,0.7338,0.7238,0.7238,0.7141,0.7042,0.7534,0.7723,0.7614,0.7319,0.7313,0.7208,0.7208,0.7012,0.6714,0.6512,0.6213,0.5887,0.5591,0.528,0.5052,0.4583,0.0,0.0,0.3908,0.3431,0.307,0.3127,0.2642,0.2382,0.2569,0.2374,0.2184,0.2221,0.1911,0.1488,0.0956,0.0956,0.0957,0.0958,0.1385,0.1716,0.1742,0.1748,0.1764,0.1903,0.1906,0.1923,0.1952,0.1955,0.2339,0.2889,0.2892,0.2918,0.2961,0.2961,0.2837,0.259,0.259,0.2345,0.2099,0.2099,0.2099,0.2099,-0.0,-0.0,-0.0,-0.0,-0.0,-0.0,-0.0,0.0269,0.0404,0.0404,0.0668,0.1061,0.1451,0.1557,0.1534,0.139,0.1753,0.2112,0.2223,0.2222,0.2469,0.2961,0.3085,0.3331,0.3576,0.3349,0.3412,0.3531,0.376,0.3921,0.3921,0.448,0.4704,0.4814,0.4927,0.5133,0.5322,0.5372,0.5524,0.5878,0.6025,0.6246,0.6455,0.6554,0.6606,0.6736,0.6736,0.6736,0.6736,0.6736,0.6736,0.6637,0.6539,0.6494,0.657,0.6434,0.6352,0.6248,0.6453,0.665,0.6833,0.6736,0.6539,0.6439,0.6439,0.6239,0.6037,0.5937,0.5536,0.5227,0.509,0.4686,0.4379,0.4248,0.0,0.3555,0.3458,0.2994,0.272,0.274,0.2462,0.2286,0.2317,0.2005,0.1694,0.1386,0.1494,0.1174,0.032,-0.0108,0.0108,0.0759,0.0986,0.1098,0.1093,0.1215,0.1226,0.1234,0.1247,0.1257,0.1266,0.1762,0.2029,0.2293,0.2316,0.2333,0.2346,0.2346,0.2346,0.2222,0.2222,0.2099,0.1977,0.1482,0.1359,0.1359,-0.0404,-0.0404,-0.0404,-0.0404,-0.0404,-0.0404,-0.0404,-0.0135,-0.0,-0.0,-0.0,0.0131,0.0651,0.0767,0.0756,0.0753,0.1491,0.1853,0.1729,0.1853,0.2223,0.2837,0.2837,0.2838,0.2961,0.2871,0.2824,0.2824,0.3191,0.3365,0.3365,0.3699,0.4033,0.4032,0.4145,0.4369,0.4592,0.4647,0.4828,0.5235,0.5279,0.5411,0.5744,0.5744,0.5904,0.5938,0.5938,0.5938,0.5938,0.5938,0.5938,0.594,0.5739,0.5789,0.5758,0.551,0.553,0.5424,0.5426,0.5536,0.5829,0.6098,0.609,0.5884,0.5749,0.5539,0.5336,0.5236,0.4834,0.4533,0.4533,0.4133,0.3739,0.3762,0.3359,0.2959,0.2976,0.2595,0.2406,0.2406,0.2221,0.1922,0.1825,0.172,0.1402,0.065,0.0542,0.0217,-0.0542,-0.0986,-0.0772,-0.0,0.0223,0.0223,0.022,0.0446,0.0562,0.0565,0.0572,0.0578,0.0584,0.1075,0.1452,0.1581,0.1721,0.1729,0.1729,0.1729,0.1729,0.1729,0.1729,0.1606,0.1359,0.0864,0.0494,0.0371,-0.1212,-0.1077,-0.1077,-0.1077,-0.1077,-0.1077,-0.1077,-0.0538,-0.0,-0.0,-0.0,-0.0,-0.0,-0.0,-0.0,-0.0,0.1235,0.1729,0.0988,0.1606,0.2099,0.2467,0.2467,0.259,0.2961,0.2872,0.2825,0.2824,0.2737,0.2694,0.2693,0.2693,0.2805,0.3137,0.3474,0.3701,0.4038,0.4369,0.4439,0.4266,0.4589,0.4647,0.4574,0.4894,0.5002,0.5,0.5,0.5,0.5,0.5,0.5,0.5,0.5002,0.5002,0.4896,0.4682,0.4574,0.4576,0.4261,0.4156,0.4455,0.5512,0.5796,0.5667,0.5262,0.4939,0.4736,0.4438,0.4137,0.4034,0.4034,0.3533,0.3251,0.3312,0.2802,0.2505,0.2551,0.2238,0.2131,0.2238,0.1918,0.1502,0.0873,0.1314,0.1103,0.0112,-0.1121,-0.1795,-0.1795,-0.1795,-0.1795,-0.1795,-0.1234,-0.0898,-0.0898,-0.0336,-0.0,-0.0,-0.0,-0.0,-0.0,-0.0,0.0365,0.0988,0.0988,0.0988,0.0988,0.0988,0.0988,0.0988,0.0988,0.0617,-0.0,-0.0,-0.0494,-0.099,-0.1885,-0.1885,-0.1885,-0.1885,-0.1885,-0.1879,-0.186,-0.1592,-0.132,-0.078,-0.0644,-0.051,-0.0,-0.0,-0.0,-0.0,0.0741,0.1235,0.0988,0.1606,0.1853,0.1481,0.1852,0.2223,0.2346,0.23,0.2264,0.212,0.2077,0.2043,0.2132,0.2469,0.2693,0.2805,0.2917,0.303,0.3142,0.3141,0.3353,0.3449,0.3559,0.3743,0.4119,0.4229,0.4305,0.4471,0.4471,0.4471,0.4365,0.4257,0.4151,0.4161,0.4213,0.4229,0.4237,0.4507,0.4522,0.4522,0.4414,0.4414,0.4493,0.4682,0.4646,0.4626,0.4439,0.4318,0.4302,0.4145,0.3772,0.3498,0.3498,0.3119,0.2732,0.2746,0.2431,0.2224,0.2235,0.2046,0.1845,0.1845,0.1755,0.1661,0.1558,0.0111,-0.0893,-0.1233,-0.157,-0.1795,-0.1795,-0.1795,-0.1795,-0.1795,-0.1702,-0.1598,-0.1598,-0.137,-0.1144,-0.069,-0.0706,-0.0717,-0.0724,-0.0732,-0.0615,-0.037,-0.037,-0.037,-0.037,-0.037,-0.037,-0.037,-0.037,-0.0494,-0.0741,-0.1235,-0.1482,-0.1733,-0.2155,-0.2155,-0.2155,-0.2155,-0.2155,-0.2144,-0.2114,-0.2109,-0.1963,-0.141,-0.1397,-0.1261,-0.0877,-0.0497,-0.037,-0.037,-0.0,0.037,0.0617,0.0988,0.1112,0.0988,0.1359,0.1606,0.1606,0.1582,0.1557,0.1532,0.1507,0.1596,0.1795,0.2132,0.2356,0.2356,0.2356,0.2356,0.2356,0.2581,0.2806,0.2915,0.2915,0.312,0.3424,0.3424,0.3512,0.359,0.359,0.359,0.359,0.3371,0.3371,0.3378,0.3413,0.3424,0.343,0.3688,0.3811,0.3811,0.3811,0.3811,0.3792,0.3608,0.3895,0.4178,0.3892,0.3771,0.3759,0.3513,0.3226,0.2937,0.2937,0.2645,0.2349,0.2366,0.2153,0.1942,0.2065,0.1646,0.1436,0.1657,0.1337,0.0897,0.0449,-0.0673,-0.157,-0.1795,-0.1795,-0.1795,-0.1795,-0.1806,-0.1812,-0.1812,-0.1842,-0.1858,-0.1858,-0.187,-0.1759,-0.1407,-0.1435,-0.1453,-0.134,-0.1353,-0.1359,-0.1359,-0.1359,-0.1359,-0.1359,-0.1359,-0.1359,-0.1359,-0.1359,-0.1359,-0.1482,-0.1975,-0.2231,-0.2247,-0.2155,-0.2155,-0.2155,-0.2155,-0.2153,-0.214,-0.211,-0.2103,-0.195,-0.2022,-0.2017,-0.2007,-0.1979,-0.1482,-0.1111,-0.1111,-0.1111,-0.0864,-0.0247,-0.0123,0.0123,0.0741,0.0864,0.0864,0.0864,0.0852,0.0959,0.0942,0.0813,0.1142,0.1683,0.1683,0.1683,0.1683,0.1683,0.1795,0.1795,0.2357,0.2581,0.2581,0.2581,0.2581,0.2581,0.2581,0.2693,0.2693,0.2693,0.2693,0.2693,0.2693,0.2693,0.2581,0.2581,0.2581,0.2581,0.2693,0.2693,0.2693,0.2693,0.2693,0.2693,0.2693,0.3438,0.4036,0.3428,0.3308,0.32,0.2664,0.2454,0.2457,0.2457,0.2245,0.2152,0.2187,0.1863,0.1653,0.1791,0.1234,0.1009,0.1458,0.0561,-0.0562,-0.1686,-0.1351,-0.1239,-0.1803,-0.1803,-0.1916,-0.1916,-0.1944,-0.1844,-0.1844,-0.1991,-0.2008,-0.2008,-0.2039,-0.1934,-0.1931,-0.1934,-0.1949,-0.1977,-0.1977,-0.1977,-0.1977,-0.1977,-0.1977,-0.2099,-0.2099,-0.2099,-0.2099,-0.2099,-0.2102,-0.2104,-0.2473,-0.2621,-0.2661,-0.2155,-0.2155,-0.2155,-0.2155,-0.2135,-0.2109,-0.2078,-0.2053,-0.2025,-0.199,-0.1986,-0.1984,-0.1977,-0.1853,-0.1729,-0.1729,-0.1729,-0.1729,-0.1606,-0.1111,-0.0741,-0.0617,-0.0617,-0.0617,-0.0617,-0.0,0.0242,0.0236,0.0235,0.0231,0.0449,0.0897,0.1121,0.1121,0.1121,0.1346,0.1795,0.1908,0.202,0.202,0.202,0.202,0.202,0.202,0.2244,0.2693,0.2469,0.2581,0.2693,0.2693,0.2357,0.202,0.202,0.202,0.202,0.2356,0.2581,0.2693,0.2693,0.2693,0.2693,0.2693,0.291,0.3,0.2839,0.2719,0.2709,0.2565,0.237,0.2284,0.2285,0.209,0.1889,0.1896,0.145,0.1228,0.1682,0.0897,-0.0112,-0.0897,-0.0908,-0.1029,-0.183,-0.1736,-0.1866,-0.2217,-0.2217,-0.2332,-0.2679,-0.2689,-0.2694,-0.2694,-0.2617,-0.2639,-0.2639,-0.268,-0.2442,-0.1932,-0.1955,-0.1971,-0.1977,-0.1977,-0.1977,-0.1977,-0.1977,-0.2099,-0.2344,-0.2344,-0.2591,-0.2838,-0.2838,-0.286,-0.289,-0.3014,-0.3043,-0.296,-0.2155,-0.2155,-0.215,-0.2136,-0.212,-0.2094,-0.2049,-0.2029,-0.2008,-0.198,-0.1977,-0.1977,-0.1977,-0.1977,-0.1977,-0.1977,-0.1977,-0.1977,-0.1977,-0.1729,-0.1482,-0.1482,-0.1482,-0.1482,-0.1482,-0.1112,-0.0855,-0.0477,-0.0473,-0.0233,-0.0,0.0338,0.0449,0.0449,0.0449,0.0673,0.1009,0.1234,0.1346,0.1346,0.1346,0.1346,0.1346,0.1346,0.157,0.1795,0.1683,0.1795,0.1795,0.1795,0.1683,0.1346,0.1346,0.1346,0.1458,0.202,0.2244,0.2244,0.2244,0.2244,0.2244,0.2244,0.2244,0.2351,0.2441,0.2547,0.243,0.2189,0.2091,0.1993,0.2104,0.1672,0.1458,0.1795,0.1009,0.0336,0.0112,-0.0224,-0.0787,-0.1701,-0.1601,-0.1615,-0.2093,-0.2111,-0.224,-0.2591,-0.2592,-0.2709,-0.2943,-0.2846,-0.2857,-0.2857,-0.2902,-0.2925,-0.2925,-0.2949,-0.2827,-0.244,-0.246,-0.2469,-0.2469,-0.2469,-0.2469,-0.2469,-0.2469,-0.2591,-0.2714,-0.2714,-0.2837,-0.2963,-0.2985,-0.3008,-0.3158,-0.3306,-0.3475,-0.3657,-0.2273,-0.2273,-0.2265,-0.2106,-0.2097,-0.2077,-0.2026,-0.2014,-0.2003,-0.1979,-0.1977,-0.1977,-0.1977,-0.1977,-0.1977,-0.1977,-0.1977,-0.1977,-0.1977,-0.1977,-0.1977,-0.1977,-0.1977,-0.1977,-0.1977,-0.1977,-0.1716,-0.1207,-0.1069,-0.0818,-0.0345,-0.0226,-0.0112,-0.0112,-0.0112,-0.0112,-0.0112,0.0336,0.0673,0.0785,0.0785,0.0785,0.0785,0.0785,0.0785,0.0785,0.0785,0.0897,0.1009,0.0785,0.0785,0.0785,0.0785,0.0785,0.0897,0.1346,0.157,0.1683,0.1683,0.1683,0.1683,0.1683,0.1683,0.1795,0.2244,0.2244,0.202,0.1683,0.1683,0.1683,0.1795,0.1234,0.0897,0.1121,0.0449,-0.0561,-0.1689,-0.1352,-0.1247,-0.1844,-0.1968,-0.2101,-0.2491,-0.2496,-0.2613,-0.2967,-0.2966,-0.2967,-0.3086,-0.3125,-0.3026,-0.3026,-0.3064,-0.3208,-0.3208,-0.3208,-0.3208,-0.3208,-0.3208,-0.3085,-0.2961,-0.2961,-0.2961,-0.2961,-0.2961,-0.3085,-0.3086,-0.3093,-0.3096,-0.3224,-0.3274,-0.3299,-0.3312,-0.3616,-0.4056,-0.4371,-0.2596,-0.2596,-0.2464,-0.22,-0.2048,-0.2028,-0.202,-0.1998,-0.1981,-0.1977,-0.1977,-0.1977,-0.1977,-0.1977,-0.1977,-0.1977,-0.1977,-0.1977,-0.1977,-0.1977,-0.1977,-0.1977,-0.1977,-0.1977,-0.1977,-0.1977,-0.1962,-0.181,-0.1782,-0.1636,-0.1494,-0.1017,-0.0785,-0.0785,-0.0785,-0.0785,-0.0785,-0.0673,-0.0336,0.0112,0.0112,0.0112,0.0112,0.0112,0.0112,0.0112,0.0112,0.0785,0.157,0.0449,0.0112,0.0112,0.0112,0.0112,0.0112,0.0224,0.0561,0.1009,0.1009,0.1009,0.1009,0.1009,0.1009,0.1121,0.1795,0.1458,0.1121,0.1009,0.1009,0.1234,0.1683,0.0897,-0.0224,-0.1121,-0.1009,-0.1015,-0.183,-0.1834,-0.1845,-0.1876,-0.2139,-0.2531,-0.2939,-0.2943,-0.3066,-0.3434,-0.3434,-0.3558,-0.3803,-0.3811,-0.3815,-0.3815,-0.3822,-0.3826,-0.3826,-0.3826,-0.3826,-0.3826,-0.3826,-0.3455,-0.2961,-0.2961,-0.2961,-0.2961,-0.2961,-0.3208,-0.3459,-0.338,-0.3648,-0.3903,-0.3962,-0.4017,-0.4068,-0.4523,-0.4686,-0.4829,-0.2968,-0.2839,-0.2703,-0.2425,-0.2281,-0.2265,-0.1997,-0.1984,-0.1977,-0.1977,-0.1977,-0.1977,-0.1977,-0.1977,-0.1977,-0.1977,-0.1977,-0.1977,-0.1977,-0.1977,-0.1977,-0.1977,-0.1977,-0.1977,-0.1977,-0.1977,-0.1962,-0.1931,-0.1901,-0.1879,-0.1865,-0.159,-0.1458,-0.1458,-0.1458,-0.1458,-0.1458,-0.1458,-0.1234,-0.1009,-0.0673,-0.0449,-0.0449,-0.0449,-0.0449,-0.0449,-0.0449,-0.0112,0.0225,-0.034,-0.0569,-0.0569,-0.0575,-0.0577,-0.0575,-0.057,-0.0341,-0.0113,-0.0112,-0.0112,-0.0112,-0.0112,-0.0112,-0.0,0.0224,0.0113,-0.0,0.0337,-0.0112,-0.0562,-0.0341,-0.0455,-0.0799,-0.1727,-0.1615,-0.1619,-0.1864,-0.2099,-0.2229,-0.2383,-0.2661,-0.2939,-0.3207,-0.3332,-0.3455,-0.3703,-0.3703,-0.3826,-0.3951,-0.3951,-0.3951,-0.3951,-0.3951,-0.3951,-0.3951,-0.3951,-0.3951,-0.3951,-0.3951,-0.3703,-0.3455,-0.3455,-0.3455,-0.3455,-0.3455,-0.358,-0.3707,-0.3762,-0.391,-0.4044,-0.4139,-0.4344,-0.4535,-0.4966,-0.5111,-0.5111]},{"header":{"parameterUnit":"m.s-1","parameterCategory":1,"la1":30.6,"la2":28.766,"lo1":-90.7593,"lo2":-88.6598,"dy":0.0162,"dx":0.0183,"nx":116,"ny":114,"refTime":"2023-05-14T12:00:00:Z","depth":0,"parameterNumber":3,"parameterNumberName":"V-component_of_WINDS"},"data":[0.0,0.0,0.0,0.0,0.0,0.0,0.0,0.0,0.0,0.0,0.0,0.0,0.0,0.0,0.0,0.0,0.0,0.0,0.0,0.0,0.0,0.0,0.0,0.0,0.0,0.0,0.0,0.0,0.0,0.0,0.0,0.0,0.0,0.0,0.0,0.0,0.0,0.0,0.0,0.0,0.0,0.0,0.0,0.0,0.0,0.0,0.0,0.0,0.0,0.0,0.0,0.0,0.0,0.0,0.0,0.0,0.0,0.0,0.0,0.0,0.0,0.0,0.0,0.0,0.0,0.0,0.0,0.0,0.0,0.0,0.0,0.0,0.0,0.0,0.0,0.0,0.0,0.0,0.0,0.0,0.0,0.0,0.0,0.0,0.0,0.0,0.0,0.0,0.0,0.0,0.0,0.0,0.0,0.0,0.0,0.0,0.0,0.0,0.0,0.0,0.0,0.0,0.0,0.0,0.0,0.0,0.0,0.0,0.0,0.0,0.0,0.0,0.0,0.0,0.0,0.0,0.0,0.0,0.0,0.0,0.0,0.0,0.0,0.0,0.0,0.0,0.0,0.0,0.0,0.0,0.0,0.0,0.0,0.0,0.0,0.0,0.0,0.0,0.0,0.0,0.0,0.0,0.0,0.0,0.0,0.0,0.0,0.0,0.0,0.0,0.0,0.0,0.0,0.0,0.0,0.0,0.0,0.0,0.0,0.0,0.0,0.0,0.0,0.0,0.0,0.0,0.0,0.0,0.0,0.0,0.0,0.0,0.0,0.0,0.0,0.0,0.0,0.0,0.0,0.0,0.0,0.0,0.0,0.0,0.0,0.0,0.0,0.0,0.0,0.0,0.0,0.0,0.0,0.0,0.0,0.0,0.0,0.0,0.0,0.0,0.0,0.0,0.0,0.0,0.0,0.0,0.0,0.0,0.0,0.0,0.0,0.0,0.0,0.0,0.0,0.0,0.0,0.0,0.0,0.0,0.0,0.0,0.0,0.0,0.0,0.0,0.0,0.0,0.0,0.0,0.0,0.0,0.0,0.0,0.0,0.0,0.0,0.0,0.0,0.0,0.0,0.0,0.0,0.0,0.0,0.0,0.0,0.0,0.0,0.0,0.0,0.0,0.0,0.0,0.0,0.0,0.0,0.0,0.0,0.0,0.0,0.0,0.0,0.0,0.0,0.0,0.0,0.0,0.0,0.0,0.0,0.0,0.0,0.0,0.0,0.0,0.0,0.0,0.0,0.0,0.0,0.0,0.0,0.0,0.0,0.0,0.0,0.0,0.0,0.0,0.0,0.0,0.0,0.0,0.0,0.0,0.0,0.0,0.0,0.0,0.0,0.0,0.0,0.0,0.0,0.0,0.0,0.0,0.0,0.0,0.0,0.0,0.0,0.0,0.0,0.0,0.0,0.0,0.0,0.0,0.0,0.0,0.0,0.0,0.0,0.0,0.0,0.0,0.0,0.0,0.0,0.0,0.0,0.0,0.0,0.0,0.0,0.0,0.0,0.0,0.0,0.0,0.0,0.0,0.0,0.0,0.0,0.0,0.0,0.0,0.0,0.0,0.0,0.0,0.0,0.0,0.0,0.0,0.0,0.0,0.0,0.0,0.0,0.0,0.0,0.0,0.0,0.0,0.0,0.0,0.0,0.0,0.0,0.0,0.0,0.0,0.0,0.0,0.0,0.0,0.0,0.0,0.0,0.0,0.0,0.0,0.0,0.0,0.0,0.0,0.0,0.0,0.0,0.0,0.0,0.0,0.0,0.0,0.0,0.0,0.0,0.0,0.0,0.0,0.0,0.0,0.0,0.0,0.0,0.0,0.0,0.0,0.0,0.0,0.0,0.0,0.0,0.0,0.0,0.0,0.0,0.0,0.0,0.0,0.0,0.0,0.0,0.0,0.0,0.0,0.0,0.0,0.0,0.0,0.0,0.0,0.0,0.0,0.0,0.0,0.0,0.0,0.0,0.0,0.0,0.0,0.0,0.0,0.0,0.0,0.0,0.0,0.0,0.0,0.0,0.0,0.0,0.0,0.0,0.0,0.0,0.0,0.0,0.0,0.0,0.0,0.0,0.0,0.0,0.0,0.0,0.0,0.0,0.0,0.0,0.0,0.0,0.0,0.0,0.0,0.0,0.0,0.0,0.0,0.0,0.0,0.0,0.0,0.0,0.0,0.0,0.0,0.0,0.0,0.0,0.0,0.0,0.0,0.0,0.0,0.0,0.0,0.0,0.0,0.0,0.0,0.0,0.0,0.0,0.0,0.0,0.0,0.0,0.0,0.0,0.0,0.0,0.0,0.0,0.0,0.0,0.0,0.0,0.0,0.0,0.0,0.0,0.0,0.0,0.0,0.0,0.0,0.0,0.0,0.0,0.0,0.0,0.0,0.0,0.0,0.0,0.0,0.0,0.0,0.0,0.0,0.0,0.0,0.0,0.0,0.0,0.0,0.0,0.0,0.0,0.0,0.0,0.0,0.0,0.0,0.0,0.0,0.0,0.0,0.0,0.0,0.0,0.0,0.0,0.0,0.0,0.0,0.0,0.0,0.0,0.0,0.0,0.0,0.0,0.0,0.0,0.0,0.0,0.0,0.0,0.0,0.0,0.0,0.0,0.0,0.0,0.0,0.0,0.0,0.0,0.0,0.0,0.0,0.0,0.0,0.0,0.0,0.0,0.0,0.0,0.0,0.0,0.0,0.0,0.0,0.0,0.0,0.0,0.0,0.0,0.0,0.0,0.0,0.0,0.0,0.0,0.0,0.0,0.0,0.0,0.0,0.0,0.0,0.0,0.0,0.0,0.0,0.0,0.0,0.0,0.0,0.0,0.0,0.0,0.0,0.0,0.0,0.0,0.0,0.0,0.0,0.0,0.0,0.0,0.0,0.0,0.0,0.0,0.0,0.0,0.0,0.0,0.0,0.0,0.0,0.0,0.0,0.0,0.0,0.0,0.0,0.0,0.0,0.0,0.0,0.0,0.0,0.0,0.0,0.0,0.0,0.0,0.0,0.0,0.0,0.0,0.0,0.0,0.0,0.0,0.0,0.0,0.0,0.0,0.0,0.0,0.0,0.0,0.0,0.0,0.0,0.0,0.0,0.0,0.0,0.0,0.0,0.0,0.0,0.0,0.0,0.0,0.0,0.0,0.0,0.0,0.0,0.0,0.0,0.0,0.0,0.0,0.0,0.0,0.0,0.0,0.0,0.0,0.0,0.0,0.0,0.0,0.0,0.0,0.0,0.0,0.0,0.0,0.0,0.0,0.0,0.0,0.0,0.0,0.0,0.0,0.0,0.0,0.0,0.0,0.0,0.0,0.0,0.0,0.0,0.0,0.0,0.0,0.0,0.0,0.0,0.0,0.0,0.0,0.0,0.0,0.0,0.0,0.0,0.0,0.0,0.0,0.0,0.0,0.0,0.0,0.0,0.0,0.0,0.0,0.0,0.0,0.0,0.0,0.0,0.0,0.0,0.0,0.0,0.0,0.0,0.0,0.0,0.0,0.0,0.0,0.0,0.0,0.0,0.0,0.0,0.0,0.0,0.0,0.0,0.0,0.0,0.0,0.0,0.0,0.0,0.0,0.0,0.0,0.0,0.0,0.0,0.0,0.0,0.0,0.0,0.0,0.0,0.0,0.0,0.0,0.0,0.0,0.0,0.0,0.0,0.0,0.0,0.0,0.0,0.0,0.0,0.0,0.0,0.0,0.0,0.0,0.0,0.0,0.0,0.0,0.0,0.0,0.0,0.0,0.0,0.0,0.0,0.0,0.0,0.0,0.0,0.0,0.0,0.0,0.0,0.0,0.0,0.0,0.0,0.0,0.0,0.0,0.0,0.0,0.0,0.0,0.0,0.0,0.0,0.0,0.0,0.0,0.0,0.0,0.0,0.0,0.0,0.0,0.0,0.0,0.0,0.0,0.0,0.0,0.0,0.0,0.0,0.0,0.0,0.0,0.0,0.0,0.0,0.0,0.0,0.0,0.0,0.0,0.0,0.0,0.0,0.0,0.0,0.0,0.0,0.0,0.0,0.0,0.0,0.0,0.0,0.0,0.0,0.0,0.0,0.0,0.0,0.0,0.0,0.0,0.0,0.0,0.0,0.0,0.0,0.0,0.0,0.0,0.0,0.0,0.0,0.0,0.0,0.0,0.0,0.0,0.0,0.0,0.0,0.0,0.0,0.0,0.0,0.0,0.0,0.0,0.0,0.0,0.0,0.0,0.0,0.0,0.0,0.0,0.0,0.0,0.0,0.0,0.0,0.0,0.0,0.0,0.0,0.0,0.0,0.0,0.0,0.0,0.0,0.0,0.0,0.0,0.0,0.0,0.0,0.0,0.0,0.0,0.0,0.0,0.0,0.0,0.0,0.0,0.0,0.0,0.0,0.0,0.0,0.0,0.0,0.0,0.0,0.0,0.0,0.0,0.0,0.0,0.0,0.0,0.0,0.0,0.0,0.0,0.0,0.0,0.0,0.0,0.0,0.0,0.0,0.0,0.0,0.0,0.0,0.0,0.0,0.0,0.0,0.0,0.0,0.0,0.0,0.0,0.0,0.0,0.0,0.0,0.0,0.0,0.0,0.0,0.0,0.0,0.0,0.0,0.0,0.0,0.0,0.0,0.0,0.0,0.0,0.0,0.0,0.0,0.0,0.0,0.0,0.0,0.0,0.0,0.0,0.0,0.0,0.0,0.0,0.0,0.0,0.0,0.0,0.0,0.0,0.0,0.0,0.0,0.0,0.0,0.0,0.0,0.0,0.0,0.0,0.0,0.0,0.0,0.0,0.0,0.0,0.0,0.0,0.0,0.0,0.0,0.0,0.0,0.0,0.0,0.0,0.0,0.0,0.0,0.0,0.0,0.0,0.0,0.0,0.0,0.0,0.0,0.0,0.0,0.0,0.0,0.0,0.0,0.0,0.0,0.0,0.0,0.0,0.0,0.0,0.0,0.0,0.0,0.0,0.0,0.0,0.0,0.0,0.0,0.0,0.0,0.0,0.0,0.0,0.0,0.0,0.0,0.0,0.0,0.0,0.0,0.0,0.0,0.0,0.0,0.0,0.0,0.0,0.0,0.0,0.0,0.0,0.0,0.0,0.0,0.0,0.0,0.0,0.0,0.0,0.0,0.0,0.0,0.0,0.0,0.0,0.0,0.0,0.0,0.0,0.0,0.0,0.0,0.0,0.0,0.0,0.0,0.0,0.0,0.0,0.0,0.0,0.0,0.0,0.0,0.0,0.0,0.0,0.0,0.0,0.0,0.0,0.0,0.0,0.0,0.0,0.0,0.0,0.0,0.0,0.0,0.0,0.0,0.0,0.0,0.0,0.0,0.0,0.0,0.0,0.0,0.0,0.0,0.0,0.0,0.0,0.0,0.0,0.0,0.0,0.0,0.0,0.0,0.0,0.0,0.0,0.0,0.0,0.0,0.0,0.0,0.0,0.0,0.0,0.0,0.0,0.0,0.0,0.0,0.0,0.0,0.0,0.0,0.0,0.0,0.0,0.0,0.0,0.0,0.0,0.0,0.0,0.0,0.0,0.0,0.0,0.0,0.0,0.0,0.0,0.0,0.0,0.0,0.0,0.0,0.0,0.0,0.0,0.0,0.0,0.0,0.0,0.0,0.0,0.0,0.0,0.0,0.0,0.0,0.0,0.0,0.0,0.0,0.0,0.0,0.0,0.0,0.0,0.0,0.0,0.0,0.0,0.0,0.0,0.0,0.0,0.0,0.0,0.0,0.0,0.0,0.0,0.0,0.0,0.0,0.0,0.0,0.0,0.0,0.0,0.0,0.0,0.0,0.0,0.0,0.0,0.0,0.0,0.0,0.0,0.0,0.0,0.0,0.0,0.0,0.0,0.0,0.0,0.0,0.0,0.0,0.0,0.0,0.0,0.0,0.0,0.0,0.0,0.0,0.0,0.0,0.0,0.0,0.0,0.0,0.0,0.0,0.0,0.0,0.0,0.0,0.0,0.0,0.0,0.0,0.0,0.0,0.0,0.0,0.0,0.0,0.0,0.0,0.0,0.0,0.0,0.0,0.0,0.0,0.0,0.0,0.0,0.0,0.0,0.0,0.0,0.0,0.0,0.0,0.0,0.0,0.0,0.0,0.0,0.0,0.0,-1.573,0.0,0.0,0.0,0.0,0.0,0.0,0.0,0.0,0.0,0.0,0.0,0.0,0.0,0.0,0.0,0.0,0.0,0.0,0.0,0.0,0.0,0.0,0.0,0.0,0.0,0.0,0.0,0.0,0.0,0.0,0.0,0.0,0.0,0.0,0.0,0.0,0.0,0.0,0.0,0.0,0.0,0.0,0.0,0.0,0.0,0.0,0.0,0.0,0.0,0.0,0.0,0.0,0.0,0.0,0.0,0.0,0.0,0.0,0.0,0.0,0.0,0.0,0.0,0.0,0.0,0.0,0.0,0.0,0.0,0.0,0.0,0.0,0.0,0.0,0.0,0.0,0.0,0.0,0.0,0.0,0.0,0.0,0.0,0.0,0.0,0.0,0.0,0.0,0.0,0.0,0.0,0.0,0.0,0.0,0.0,0.0,0.0,0.0,0.0,0.0,0.0,0.0,0.0,0.0,0.0,0.0,0.0,0.0,0.0,0.0,0.0,0.0,0.0,0.0,0.0,0.0,-1.6923,0.0,0.0,0.0,0.0,0.0,0.0,0.0,0.0,0.0,0.0,0.0,0.0,0.0,0.0,0.0,0.0,0.0,0.0,0.0,0.0,0.0,0.0,0.0,0.0,0.0,0.0,0.0,0.0,0.0,0.0,0.0,0.0,0.0,0.0,0.0,0.0,0.0,0.0,0.0,0.0,0.0,0.0,0.0,0.0,0.0,0.0,0.0,0.0,0.0,0.0,0.0,0.0,0.0,0.0,0.0,0.0,0.0,0.0,0.0,0.0,0.0,0.0,0.0,0.0,0.0,0.0,0.0,0.0,0.0,0.0,0.0,0.0,0.0,0.0,0.0,0.0,0.0,0.0,0.0,0.0,0.0,0.0,0.0,0.0,0.0,0.0,0.0,0.0,0.0,0.0,0.0,0.0,0.0,0.0,0.0,0.0,0.0,0.0,0.0,0.0,0.0,0.0,0.0,0.0,0.0,0.0,0.0,0.0,-2.1117,-2.154,-2.2069,-2.2283,-2.2365,-2.23,-2.0358,-1.9075,-1.8347,0.0,0.0,0.0,0.0,0.0,0.0,0.0,0.0,0.0,0.0,0.0,0.0,0.0,0.0,0.0,0.0,0.0,0.0,0.0,0.0,0.0,0.0,0.0,0.0,0.0,0.0,0.0,0.0,0.0,0.0,0.0,0.0,0.0,0.0,0.0,0.0,0.0,0.0,0.0,-2.2085,-2.2326,-2.2419,-2.2423,0.0,0.0,0.0,0.0,0.0,0.0,0.0,0.0,0.0,0.0,0.0,0.0,0.0,0.0,0.0,0.0,0.0,0.0,0.0,0.0,0.0,0.0,0.0,0.0,0.0,0.0,0.0,0.0,0.0,0.0,0.0,0.0,0.0,0.0,0.0,0.0,0.0,0.0,0.0,0.0,0.0,0.0,0.0,0.0,-1.469,-1.5161,0.0,0.0,0.0,0.0,0.0,0.0,0.0,0.0,0.0,0.0,0.0,0.0,0.0,0.0,-2.0919,-2.148,-2.1916,-2.2314,-2.2899,-2.334,-2.3612,-2.3663,-2.3764,-2.4,-2.3674,0.0,-2.0911,-2.0022,0.0,0.0,0.0,0.0,0.0,0.0,0.0,0.0,0.0,0.0,0.0,0.0,0.0,0.0,0.0,0.0,0.0,0.0,0.0,0.0,0.0,0.0,0.0,0.0,0.0,0.0,0.0,0.0,0.0,0.0,0.0,0.0,0.0,0.0,0.0,0.0,-2.2414,-2.3264,-2.4118,-2.4308,-2.4326,-2.4186,-2.3393,-2.2169,-2.0695,-2.0187,0.0,0.0,0.0,0.0,0.0,0.0,0.0,0.0,0.0,0.0,0.0,0.0,0.0,0.0,0.0,0.0,0.0,0.0,0.0,0.0,0.0,0.0,0.0,0.0,0.0,0.0,0.0,0.0,0.0,0.0,0.0,0.0,0.0,0.0,0.0,0.0,0.0,0.0,0.0,-1.5703,-1.6179,-1.6704,-1.6784,-1.6864,0.0,0.0,0.0,0.0,0.0,0.0,0.0,0.0,0.0,-2.1471,-2.2717,-2.3392,-2.3564,-2.3876,-2.4271,-2.4722,-2.5093,-2.5453,-2.5953,-2.6118,-2.6297,-2.6378,-2.6197,-2.542,-2.4175,-2.229,-2.1196,-2.0614,0.0,0.0,0.0,0.0,0.0,-1.9491,0.0,0.0,0.0,0.0,0.0,0.0,0.0,0.0,0.0,0.0,0.0,0.0,0.0,0.0,0.0,-1.4867,0.0,0.0,0.0,0.0,0.0,0.0,0.0,0.0,0.0,0.0,0.0,0.0,-2.35,-2.4302,-2.5358,-2.5623,-2.5589,-2.534,-2.5261,-2.4108,-2.2322,-2.1791,-2.085,0.0,0.0,0.0,0.0,0.0,0.0,0.0,0.0,0.0,0.0,0.0,0.0,0.0,0.0,0.0,0.0,0.0,0.0,0.0,0.0,0.0,0.0,0.0,0.0,0.0,0.0,0.0,0.0,0.0,0.0,0.0,0.0,0.0,0.0,0.0,0.0,0.0,0.0,-1.7448,-1.7733,-1.8256,-1.8457,-1.8749,0.0,0.0,0.0,0.0,0.0,0.0,-2.2143,-2.3138,-2.3892,-2.4191,-2.531,-2.604,-2.6321,-2.6378,-2.6671,-2.7173,-2.729,-2.7586,-2.8138,-2.8205,-2.8266,-2.8353,-2.7952,-2.7515,-2.692,-2.4577,-2.3178,-2.2469,-2.1576,-2.1127,-2.0907,-2.0548,-2.0692,-2.1167,0.0,0.0,0.0,0.0,0.0,0.0,0.0,0.0,0.0,0.0,0.0,0.0,0.0,0.0,-1.5004,-1.5255,-1.5941,-1.6415,0.0,0.0,0.0,0.0,0.0,0.0,0.0,0.0,0.0,-2.2739,-2.4091,-2.4822,-2.5065,-2.5358,-2.5597,-2.5772,-2.6105,-2.5378,-2.3811,-2.3004,-2.2414,-2.2041,0.0,0.0,0.0,0.0,0.0,0.0,0.0,0.0,0.0,0.0,0.0,0.0,0.0,0.0,0.0,0.0,0.0,0.0,0.0,0.0,0.0,0.0,0.0,0.0,0.0,0.0,0.0,0.0,0.0,0.0,0.0,0.0,0.0,0.0,0.0,0.0,0.0,0.0,0.0,-2.0199,-2.0792,0.0,0.0,0.0,0.0,-2.358,-2.4211,-2.4716,-2.4885,-2.5611,-2.6342,-2.7055,-2.769,-2.8374,-2.8969,-2.9045,-2.9122,-2.9275,-2.9275,-2.9414,-2.9737,-2.9128,-2.9023,-2.9304,-2.8727,-2.8594,-2.8627,-2.6667,-2.5116,-2.399,-2.4071,-2.3393,-2.2396,-2.2491,-2.2224,-2.1801,0.0,0.0,0.0,0.0,0.0,0.0,0.0,0.0,0.0,0.0,0.0,0.0,0.0,-1.4443,-1.5292,-1.6083,-1.6461,-1.6798,-1.7021,0.0,0.0,0.0,0.0,0.0,0.0,0.0,-2.3091,-2.3886,-2.474,-2.5378,-2.5917,-2.6263,-2.6594,-2.6778,-2.6863,-2.6644,-2.6102,-2.4929,-2.3877,-2.2875,-2.215,-2.1514,0.0,0.0,0.0,0.0,0.0,0.0,0.0,0.0,0.0,0.0,0.0,0.0,0.0,0.0,0.0,0.0,0.0,0.0,0.0,0.0,0.0,0.0,0.0,0.0,0.0,0.0,0.0,0.0,0.0,0.0,0.0,0.0,0.0,0.0,0.0,0.0,0.0,-2.3022,-2.3639,0.0,0.0,-2.5161,-2.5832,-2.6051,-2.7042,-2.7679,-2.774,-2.8346,-2.8837,-2.9107,-2.9739,-3.022,-3.0457,-3.0615,-3.0746,-3.0861,-3.0861,-3.0991,-3.1247,-3.1146,-3.1157,-3.1281,-3.125,-3.0864,-3.0075,-2.9599,-2.8119,-2.6056,-2.576,-2.5191,-2.4507,-2.4642,-2.4669,-2.4646,0.0,0.0,0.0,0.0,0.0,0.0,0.0,0.0,0.0,0.0,0.0,-1.3053,-1.3708,-1.4557,-1.5407,-1.6217,-1.6587,-1.6857,-1.7095,0.0,0.0,0.0,0.0,0.0,0.0,-2.268,-2.3699,-2.4518,-2.5191,-2.5816,-2.6371,-2.6807,-2.7079,-2.7201,-2.7419,-2.745,-2.7332,-2.664,-2.5549,-2.424,-2.3914,-2.3224,-2.2265,0.0,0.0,0.0,0.0,0.0,0.0,0.0,0.0,0.0,0.0,0.0,0.0,0.0,0.0,0.0,0.0,0.0,0.0,0.0,0.0,0.0,0.0,0.0,0.0,0.0,0.0,0.0,0.0,0.0,0.0,0.0,0.0,0.0,0.0,0.0,-2.5188,-2.5467,-2.6242,-2.6823,-2.7045,-2.7792,-2.8415,-2.883,-2.9619,-3.0252,-3.0512,-3.0862,-3.1263,-3.1471,-3.2038,-3.24,-3.2624,-3.2633,-3.267,-3.2709,-3.2511,-3.2544,-3.2743,-3.2659,-3.2703,-3.2738,-3.2806,-3.2346,-3.1646,-3.1664,-3.0476,-2.8657,-2.7629,-2.6841,-2.6354,-2.6302,-2.626,-2.6259,0.0,0.0,0.0,0.0,0.0,0.0,0.0,0.0,0.0,0.0,0.0,-1.3568,-1.3774,-1.4649,-1.5332,-1.5692,-1.6247,-1.6678,-1.6818,-1.7532,0.0,0.0,0.0,0.0,-2.1896,-2.3269,-2.4186,-2.4474,-2.5432,-2.598,-2.6213,-2.6752,-2.7024,-2.7011,-2.7749,-2.7876,-2.7503,-2.803,-2.7415,-2.6196,-2.6247,-2.5085,-2.3244,0.0,0.0,0.0,0.0,0.0,0.0,0.0,0.0,0.0,0.0,0.0,0.0,0.0,0.0,0.0,0.0,0.0,0.0,0.0,0.0,0.0,0.0,0.0,0.0,0.0,0.0,0.0,0.0,0.0,0.0,0.0,0.0,0.0,-2.445,-2.6356,-2.7802,-2.7478,-2.856,-2.9559,-3.0131,-3.0214,-3.0713,-3.1889,-3.2,-3.2333,-3.3128,-3.3156,-3.3507,-3.4253,-3.4454,-3.4809,-3.552,-3.5053,-3.4796,-3.4796,-3.4225,-3.4008,-3.4171,-3.3552,-3.3477,-3.3747,-3.3147,-3.3059,-3.3297,-3.2644,-3.2154,-3.1649,-2.9629,-2.8439,-2.7825,-2.7418,-2.6995,-2.6562,0.0,0.0,0.0,0.0,0.0,0.0,0.0,0.0,0.0,0.0,-1.2328,-1.3568,-1.3774,-1.4649,-1.5449,-1.6049,-1.6307,-1.6628,-1.7267,0.0,0.0,0.0,0.0,0.0,-2.2567,-2.3549,-2.4248,-2.4708,-2.5487,-2.591,-2.598,-2.6671,-2.7079,-2.7214,-2.7815,-2.8233,-2.8429,-2.8809,-2.8699,-2.8182,-2.6828,-2.6136,-2.5775,0.0,0.0,0.0,0.0,0.0,0.0,0.0,0.0,0.0,0.0,0.0,0.0,0.0,0.0,0.0,0.0,0.0,0.0,0.0,0.0,0.0,0.0,0.0,0.0,0.0,0.0,0.0,0.0,0.0,0.0,0.0,0.0,-2.855,-2.7353,-2.8909,-3.0316,-3.0693,-3.1446,-3.2184,-3.2823,-3.3277,-3.3619,-3.3959,-3.4427,-3.4839,-3.5023,-3.5095,-3.5167,-3.5337,-3.541,-3.5495,-3.5753,-3.5582,-3.5554,-3.5669,-3.5511,-3.5567,-3.5933,-3.5758,-3.5809,-3.5957,-3.5473,-3.5124,-3.4842,-3.428,-3.3789,-3.3182,-3.1056,-2.997,-2.9556,-2.9526,-2.9527,-2.9619,0.0,0.0,0.0,0.0,0.0,0.0,0.0,0.0,0.0,0.0,-1.2131,-1.3308,-1.3746,-1.443,-1.5177,-1.5871,-1.6147,-1.6537,-1.7104,0.0,0.0,0.0,0.0,-2.2127,-2.2902,-2.385,-2.4472,-2.479,-2.556,-2.591,-2.591,-2.6671,-2.7079,-2.7348,-2.7934,-2.843,-2.8867,-2.9261,-2.9439,-2.9425,-2.8182,-2.7596,-2.7342,-2.6017,-2.5216,-2.4701,-2.3863,-2.3122,-2.2511,-2.2334,0.0,0.0,0.0,0.0,0.0,0.0,0.0,0.0,0.0,0.0,0.0,0.0,0.0,0.0,0.0,0.0,0.0,0.0,0.0,0.0,0.0,0.0,0.0,0.0,-3.0689,-3.1599,-3.1515,-3.2017,-3.2585,-3.3082,-3.3779,-3.4323,-3.4681,-3.5039,-3.5396,-3.5896,-3.6296,-3.6828,-3.7296,-3.7325,-3.7325,-3.7325,-3.7401,-3.7347,-3.7089,-3.6965,-3.6837,-3.6707,-3.6488,-3.6514,-3.674,-3.674,-3.681,0.0,-3.6841,-3.6604,-3.637,-3.5586,-3.5154,0.0,0.0,0.0,0.0,0.0,-3.0791,-3.0992,0.0,0.0,0.0,0.0,0.0,0.0,0.0,0.0,0.0,0.0,0.0,-1.2911,-1.3651,-1.4088,-1.462,-1.5245,-1.5822,-1.6287,0.0,0.0,0.0,-2.0349,-2.1559,-2.2464,-2.2992,-2.4186,-2.479,-2.479,-2.556,-2.591,-2.5968,-2.6671,-2.7146,-2.7403,-2.8039,-2.8481,-2.8853,-2.9401,-2.9851,-3.0129,-2.984,-2.917,-2.8287,-2.781,-2.725,-2.6606,-2.5499,-2.5062,-2.4895,-2.4551,0.0,0.0,0.0,0.0,0.0,0.0,0.0,0.0,0.0,0.0,0.0,0.0,0.0,0.0,0.0,0.0,0.0,0.0,0.0,0.0,0.0,0.0,0.0,0.0,-3.3146,-3.475,-3.6153,-3.5336,-3.4747,-3.5167,-3.5812,-3.6257,-3.6329,-3.6329,-3.6699,-3.7773,-3.7859,-3.8359,-3.9584,0.0,0.0,0.0,0.0,-3.9636,-3.9136,-3.8876,-3.8457,-3.796,-3.7517,-3.7379,-3.7379,-3.7305,-3.7401,-3.7625,-3.7629,-3.7775,-3.779,-3.6717,-3.6364,-3.6292,-3.3602,-3.2588,-3.2585,-3.1706,-3.1473,-3.1557,0.0,0.0,0.0,0.0,0.0,0.0,0.0,0.0,0.0,-1.082,-1.1636,-1.2494,-1.3162,-1.3578,-1.4105,-1.4863,-1.5037,-1.5702,0.0,0.0,-1.9488,-2.0796,-2.1735,-2.2632,-2.3436,-2.4371,-2.479,-2.479,-2.556,-2.5968,-2.6164,-2.6739,-2.7268,-2.7723,-2.8105,-2.8675,-2.9233,-2.9623,-3.0068,-3.0507,-3.0749,-3.0366,-2.9658,-2.9159,-2.839,-2.7564,-2.7293,-2.6667,-2.5909,-2.5832,-2.5799,-2.5687,-2.5118,0.0,0.0,0.0,0.0,0.0,0.0,0.0,0.0,0.0,0.0,0.0,0.0,0.0,0.0,0.0,0.0,0.0,0.0,0.0,0.0,-3.3784,-3.4937,-3.6378,-3.8216,-3.8133,-3.7944,-3.7989,-3.8441,-3.8978,-3.9532,-3.9392,-3.9387,-3.9634,-3.9648,-3.9857,-4.0304,-4.0319,0.0,-4.0524,-4.0602,-4.0543,-4.0426,-4.0371,-4.033,-4.0197,0.0,0.0,-4.0232,-3.9921,-3.9813,-3.9971,-3.9113,-3.8766,-3.8894,-3.8284,-3.7573,-3.6751,-3.5027,-3.4519,-3.4595,-3.3896,-3.3757,-3.38,0.0,0.0,0.0,0.0,0.0,0.0,0.0,0.0,0.0,0.0,-1.1371,-1.2134,-1.2736,-1.3204,-1.3772,-1.436,-1.4824,0.0,0.0,-1.8103,-1.9169,-2.0583,-2.1658,-2.2565,-2.3212,-2.429,-2.479,-2.479,-2.556,-2.5968,-2.6233,-2.6739,-2.7268,-2.7842,-2.8249,-2.8753,-2.931,-2.9775,-3.0205,-3.0642,-3.0955,-3.094,-3.0628,-3.0116,-2.9484,-2.8755,-2.8525,-2.7902,-2.7224,-2.7287,-2.7118,-2.6826,-2.6562,-2.622,-2.5799,0.0,0.0,0.0,0.0,0.0,0.0,0.0,0.0,0.0,0.0,0.0,0.0,0.0,0.0,-3.2064,0.0,0.0,-3.5574,-3.6174,-3.7263,-3.8532,-3.9854,-4.0531,-4.0591,-3.9889,-4.0003,-4.025,-4.0588,-4.0524,-4.0563,-4.0885,-4.09,-4.114,-4.1571,-4.1586,-4.1666,-4.173,-4.173,-4.1568,-4.1244,-4.1477,-4.1392,-4.108,-4.1293,-4.146,-4.1535,-4.128,-4.1262,-4.1291,-4.097,-4.0622,-4.0293,-3.9668,-3.8982,-3.8245,-3.7613,-3.6495,-3.5291,-3.5117,-3.5138,-3.5214,0.0,0.0,0.0,0.0,0.0,0.0,0.0,0.0,0.0,0.0,0.0,-1.164,-1.2244,-1.2685,-1.3188,0.0,0.0,0.0,0.0,-1.7789,-1.8786,-2.0126,-2.1393,-2.234,-2.2913,-2.4059,-2.4684,-2.4849,-2.556,-2.6037,-2.6302,-2.6794,-2.7335,-2.7855,-2.8392,-2.8894,-2.931,-2.9851,-3.028,-3.0702,-3.0955,-3.119,-3.1276,-3.0705,-3.0228,-2.9773,-2.9197,-2.8667,-2.8235,-2.8348,-2.8042,-2.7643,-2.7767,-2.741,-2.6882,-2.6557,-2.5964,0.0,0.0,0.0,0.0,0.0,0.0,0.0,0.0,0.0,-3.2213,-3.2931,-3.4007,-3.4789,-3.4638,-3.6128,-3.7633,-3.8302,-3.9428,-4.0451,-4.1271,-4.2303,-4.2606,-4.1573,-4.1374,-4.1296,-4.1218,-4.1218,-4.1347,-4.1877,-4.1907,-4.2143,-4.2739,-4.2769,-4.285,-4.2864,-4.293,-4.2678,-4.2159,-4.2551,-4.2436,-4.1911,-4.2229,-4.2379,-4.2379,-4.2317,-4.233,-4.233,-4.2633,-4.2391,-4.1844,-4.1064,-4.0497,-4.0087,-4.0116,-3.8587,-3.6381,-3.6302,-3.6258,-3.6238,0.0,0.0,0.0,0.0,0.0,0.0,0.0,0.0,0.0,0.0,0.0,0.0,0.0,0.0,0.0,0.0,0.0,0.0,-1.6168,-1.7483,-1.8637,-1.9647,-2.0864,-2.1958,-2.2902,-2.3688,-2.4354,-2.4945,-2.5618,-2.6176,-2.6645,-2.7066,-2.7536,-2.8079,-2.856,-2.898,-2.931,-2.9851,-3.0355,-3.0821,-3.1014,-3.1249,-3.1392,-3.0761,-3.0283,-2.9864,-2.9249,-2.8732,-2.8396,-2.8411,-2.835,-2.8288,-2.8465,-2.8513,-2.8545,-2.8491,0.0,-2.8588,-2.8577,-3.1817,-3.4627,-3.2431,-3.2228,-3.285,0.0,0.0,-3.4651,-3.5768,-3.663,-3.709,-3.6868,-3.803,-3.9139,-3.9686,-4.0375,-4.1331,-4.2591,-4.2895,-4.3183,-4.3622,-4.3277,-4.2947,-4.2773,-4.2628,-4.2511,-4.2585,-4.2585,-4.268,-4.2981,-4.317,-4.3344,-4.3596,-4.3754,-4.3786,-4.3711,-4.3789,-4.3758,-4.3682,-4.376,-4.376,-4.3745,-4.3516,-4.3389,-4.3433,-4.3211,-4.3255,-4.3431,-4.2643,-4.2132,-4.1869,-4.1339,-4.0611,-3.9747,-3.8447,-3.7576,-3.7112,0.0,0.0,0.0,0.0,0.0,0.0,0.0,0.0,0.0,0.0,0.0,0.0,0.0,0.0,0.0,0.0,0.0,0.0,-1.6032,-1.6937,-1.7935,-1.9147,-2.0368,-2.1285,-2.2048,-2.3028,-2.3847,-2.4576,-2.5156,-2.5865,-2.6714,-2.7134,-2.7616,-2.8145,-2.8624,-2.898,-2.931,-2.9851,-3.0355,-3.0658,-3.0543,-3.0628,-3.0723,-2.9734,-2.9155,-2.8855,-2.8976,-2.8473,0.0,0.0,-2.7859,-2.7937,-2.8062,-2.8436,-2.8842,-2.8951,-2.9046,0.0,-3.2078,-3.463,0.0,0.0,-3.5351,-3.6135,-3.6533,-3.6847,-3.7219,-3.7602,-3.82,-3.8611,-3.853,-3.9649,-4.0662,0.0,-4.1816,-4.2705,-4.3271,-4.3684,-4.396,-4.4174,-4.3972,-4.3801,-4.3566,-4.3503,-4.3423,-4.3423,-4.3863,-4.4073,-4.4138,-4.4594,-4.4886,-4.5061,-4.5141,-4.5038,-4.48,-4.4862,-4.4818,-4.4511,-4.4663,-4.4678,-4.4663,-4.4611,-4.462,-4.4883,-4.4322,-4.4306,-4.4591,-4.3874,-4.3389,-4.3057,-4.2815,-4.2194,-4.1314,-4.0144,-3.9617,-3.9357,0.0,0.0,0.0,0.0,0.0,0.0,0.0,0.0,0.0,0.0,0.0,0.0,0.0,0.0,0.0,0.0,0.0,0.0,0.0,-1.6371,-1.7265,-1.8337,-1.9596,-2.061,-2.1228,-2.2252,-2.3242,-2.4258,-2.4676,-2.5331,-2.6324,-2.667,-2.7131,-2.7651,-2.8058,-2.8498,-2.8747,-2.9327,-2.9748,-2.9987,-2.984,-2.9947,-2.9911,-2.8764,-2.8177,-2.805,-2.8354,-2.7862,0.0,0.0,-2.7195,-2.7348,-2.7518,-2.8029,-2.8607,-2.8982,-2.9623,-3.1187,-3.5374,0.0,0.0,-3.7171,-3.7786,-3.8654,-3.8654,-3.8885,-3.916,-3.9148,-3.9462,-3.9801,-3.9801,-4.0616,0.0,-4.1888,-4.2808,-4.3565,-4.3951,-4.443,-4.48,-4.4833,-4.4849,-4.4864,-4.4909,-4.4523,-4.4261,-4.4261,-4.4962,-4.5327,-4.5327,-4.5944,-4.6299,-4.6299,-4.6299,-4.6229,-4.5895,-4.5958,-4.5758,-4.5228,-4.5469,-4.5466,-4.5278,-4.5426,-4.5646,-4.592,-4.5381,-4.5355,-4.5656,-4.5018,-4.4623,-4.4383,-4.3993,-4.3385,-4.2692,-4.1868,-4.1419,-4.1107,0.0,0.0,0.0,0.0,0.0,0.0,0.0,0.0,0.0,0.0,0.0,0.0,0.0,0.0,0.0,0.0,0.0,0.0,0.0,-1.5954,-1.6885,-1.7076,-1.8463,-1.9744,-2.0903,-2.1434,-2.246,-2.4037,-2.4247,-2.4638,-2.5345,-2.5561,-2.5876,-2.6361,-2.6823,-2.7152,-2.7405,-2.7979,-2.8355,-2.8511,-2.8961,-2.9252,-2.9282,-2.8113,-2.7806,-2.7929,-2.7306,0.0,0.0,0.0,-2.65,-2.6607,-2.7132,-2.7409,0.0,-2.8779,-3.1024,-3.4101,0.0,0.0,-3.9301,-3.8613,-3.8965,-3.9582,-4.0132,-4.011,-4.0131,-4.0597,-4.0615,-4.0493,-4.0493,-4.0662,-4.1279,-4.2643,-4.3003,-4.3613,-4.5001,-4.5204,-4.5453,-4.6093,-4.6155,-4.6436,0.0,-4.5815,-4.4959,-4.4959,-4.5791,-4.6253,-4.6253,-4.6667,-4.6998,-4.6998,-4.7185,-4.7263,-4.7247,-4.7247,-4.6889,-4.6155,-4.6382,-4.6112,-4.5468,-4.5905,-4.612,-4.6262,-4.6246,-4.6512,-4.6795,-4.6067,-4.5976,-4.6176,-4.4751,-4.4348,-4.4539,-4.3767,-4.2684,-4.1475,0.0,0.0,0.0,0.0,0.0,0.0,0.0,0.0,0.0,0.0,0.0,0.0,0.0,0.0,0.0,0.0,0.0,0.0,0.0,-1.5028,-1.589,-1.6624,-1.7679,-1.8622,-1.9572,-2.0274,-2.1378,-2.2931,-2.3044,-2.3966,-2.5537,-2.5421,-2.5582,-2.5964,-2.6627,-2.6982,-2.7262,-2.7752,-2.8054,-2.8268,-2.8466,-2.834,-2.7906,-2.7225,-2.657,-2.5971,0.0,0.0,0.0,0.0,0.0,-2.6174,-2.643,-2.7451,-2.8998,-3.125,-3.3884,-3.6621,0.0,0.0,-4.0832,-4.0594,-4.1083,-4.1617,-4.1704,-4.1633,-4.1502,-4.1081,-4.0966,-4.0898,-4.0898,-4.1324,-4.1984,-4.2903,-4.3432,-4.4128,-4.5079,-4.5594,-4.5953,-4.6171,-4.6761,0.0,0.0,0.0,0.0,-4.6531,-4.7229,-4.7617,-4.7617,-4.8195,-4.8589,-4.8748,-4.8764,-4.8702,-4.8557,-4.8557,-4.8032,-4.7024,-4.6548,-4.6343,-4.623,-4.6388,-4.6598,-4.6909,-4.6909,-4.7046,-4.7302,-4.7057,-4.6881,-4.6649,-4.6154,-4.5611,-4.5016,-4.4783,-4.4181,-4.3373,0.0,0.0,0.0,0.0,0.0,0.0,0.0,0.0,0.0,0.0,0.0,0.0,0.0,0.0,0.0,0.0,0.0,0.0,0.0,0.0,-1.5007,-1.5789,-1.6658,-1.7648,-1.8646,-1.92,-2.0258,-2.1758,-2.2303,-2.322,-2.4499,-2.4481,-2.4557,-2.4734,-2.531,-2.5695,-2.5936,-2.6425,-2.6771,-2.7104,-2.7313,-2.7357,-2.721,-2.6519,-2.5818,0.0,0.0,0.0,0.0,0.0,0.0,-2.5392,-2.5438,-2.7811,-3.0973,-3.2798,-3.5991,-3.9146,-4.0047,-4.118,-4.2075,-4.2002,-4.2347,-4.2695,-4.2559,-4.227,-4.1758,-4.1002,-4.0727,-4.0727,-4.0727,-4.1138,-4.1731,-4.2685,-4.3474,-4.4313,-4.5358,-4.608,-4.6752,-4.7316,-4.7925,0.0,0.0,0.0,0.0,-4.7871,-4.8561,-4.8954,-4.8954,-4.9441,-4.9836,-4.9931,-4.9931,-4.9867,-4.9671,-4.9732,-4.9256,-4.8063,-4.7081,-4.6754,-4.6945,-4.6945,-4.703,-4.7319,-4.7386,-4.7521,-4.7671,-4.7737,-4.7637,-4.7448,-4.7182,-4.6686,-4.6102,-4.5849,-4.5452,-4.4902,0.0,0.0,0.0,0.0,0.0,0.0,0.0,0.0,0.0,0.0,0.0,0.0,0.0,0.0,0.0,0.0,0.0,0.0,0.0,0.0,0.0,-1.456,-1.5579,-1.674,-1.8033,-1.8307,-1.9072,-2.0511,-2.1817,-2.242,-2.2208,-2.2598,-2.2789,-2.2764,-2.3134,-2.3382,-2.3575,-2.4162,-2.4576,-2.4933,-2.5501,-2.6279,-2.6896,-2.5925,0.0,0.0,0.0,0.0,0.0,0.0,0.0,0.0,0.0,-2.856,-3.3348,-3.366,-3.7447,-4.164,-4.1655,-4.2318,-4.2969,-4.2825,-4.2774,-4.2742,-4.2742,-4.2007,-4.1135,-4.0428,-4.0125,-3.9963,0.0,0.0,-4.0742,-4.214,-4.3147,-4.4304,-4.5857,-4.6684,-4.7728,0.0,0.0,0.0,0.0,0.0,0.0,-4.9138,0.0,-5.0198,-5.0198,-5.048,-5.0666,-5.0666,-5.0666,-5.0666,-5.0666,-5.0755,-5.0332,-4.9316,-4.7867,-4.7319,-4.7554,-4.7537,-4.7537,-4.7537,-4.7721,-4.7853,-4.8066,-4.8163,-4.8356,-4.848,-4.7792,-4.7676,-4.7861,-4.7166,-4.6578,-4.6037,0.0,0.0,0.0,0.0,0.0,0.0,0.0,0.0,0.0,0.0,0.0,0.0,0.0,0.0,0.0,0.0,0.0,0.0,0.0,0.0,0.0,0.0,0.0,0.0,0.0,0.0,0.0,0.0,0.0,-2.0015,-2.0681,-2.1211,-2.1564,-2.1772,-2.2061,-2.2441,-2.2893,-2.3009,-2.3357,-2.3794,0.0,-2.4761,-2.4532,0.0,0.0,0.0,0.0,0.0,0.0,0.0,0.0,0.0,0.0,-3.0386,-3.4107,-3.8294,-4.0491,-4.1772,-4.2446,-4.2842,-4.3214,-4.3959,-4.3816,-4.3469,-4.3469,-4.2422,-4.1333,-4.0655,-4.0023,-3.9645,0.0,0.0,0.0,-4.1828,-4.3103,0.0,-4.6,-4.7333,0.0,0.0,0.0,-5.0822,-5.1016,-5.1333,0.0,0.0,-5.0843,-5.0727,-5.0727,-5.0848,-5.1075,-5.1275,-5.1275,-5.135,-5.1483,-5.048,-4.9818,-4.9513,-4.821,-4.7654,-4.7869,-4.7984,-4.8098,-4.8227,-4.8292,-4.8356,-4.8356,-4.853,-4.8656,-4.8844,-4.8781,-4.8557,-4.8243,-4.8055,-4.7609,-4.7112,0.0,0.0,0.0,0.0,0.0,0.0,0.0,0.0,0.0,0.0,0.0,0.0,0.0,0.0,0.0,0.0,0.0,0.0,0.0,0.0,0.0,0.0,0.0,0.0,0.0,0.0,0.0,0.0,0.0,0.0,0.0,-1.9842,-2.0253,-2.0633,-2.0973,-2.1295,-2.1574,-2.1732,0.0,0.0,0.0,0.0,0.0,0.0,0.0,0.0,0.0,0.0,0.0,0.0,0.0,-2.7488,-3.1498,-3.387,-3.5867,-3.9573,0.0,-4.1259,-4.2637,-4.3138,-4.349,-4.4101,-4.399,-4.3564,-4.2932,-4.1936,-4.0798,-3.9503,-3.8902,0.0,0.0,0.0,0.0,0.0,0.0,0.0,-4.5763,-4.7589,-4.9013,0.0,-5.0804,0.0,-5.1483,-5.1688,-5.1908,0.0,-5.1483,-5.1275,-5.1275,-5.1392,-5.1524,-5.1688,-5.1704,-5.1835,-5.2109,-5.0657,-5.0017,-5.0069,-4.8729,-4.8098,-4.8244,-4.8292,-4.842,-4.8593,0.0,-4.8736,-4.8798,-4.8968,-4.9107,-4.9246,-4.929,-4.9214,-4.9032,-4.9032,-4.8724,-4.8329,0.0,0.0,0.0,0.0,0.0,0.0,0.0,0.0,0.0,0.0,0.0,0.0,0.0,0.0,0.0,0.0,0.0,0.0,0.0,0.0,0.0,0.0,0.0,0.0,0.0,0.0,0.0,0.0,0.0,0.0,0.0,0.0,0.0,0.0,0.0,0.0,0.0,0.0,0.0,0.0,0.0,0.0,0.0,0.0,0.0,0.0,0.0,0.0,0.0,0.0,-2.9051,-3.0307,-3.5562,-3.7331,-3.7767,-3.9178,-3.9856,-4.061,-4.2571,-4.3325,-4.3627,-4.3816,-4.3722,-4.3232,-4.1889,-4.0925,-3.9787,-3.7935,0.0,-3.7255,-3.7255,0.0,-3.8348,-4.0164,0.0,-4.3632,-4.5314,-4.7556,-4.9336,-5.035,-5.1246,-5.1851,-5.1851,-5.2053,-5.2109,-5.2109,-5.198,-5.1924,-5.1924,-5.1924,-5.198,-5.2109,-5.2109,-5.2324,-5.2661,-5.131,-5.0643,-5.0693,-4.9351,-4.8647,-4.861,-4.861,-4.8736,-4.8844,0.0,0.0,-4.9229,-4.9471,-4.953,-4.9547,-4.9607,-4.9767,-4.9982,-4.9982,-4.9756,-4.944,0.0,0.0,0.0,0.0,0.0,0.0,0.0,0.0,0.0,0.0,-1.1356,-1.141,0.0,0.0,0.0,0.0,0.0,0.0,0.0,0.0,0.0,0.0,0.0,0.0,0.0,0.0,0.0,0.0,0.0,0.0,0.0,0.0,0.0,0.0,0.0,0.0,0.0,0.0,0.0,0.0,0.0,0.0,0.0,0.0,0.0,0.0,0.0,0.0,0.0,0.0,-2.9528,-3.1405,-3.4726,-3.654,-3.7867,-3.9585,-4.0164,-4.0674,-4.2936,-4.3269,-4.3137,-4.4259,-4.369,-4.2647,-4.1778,-4.0246,0.0,0.0,0.0,-3.6063,-3.6063,-3.7077,0.0,-3.8547,0.0,0.0,0.0,0.0,-4.9012,0.0,0.0,0.0,0.0,0.0,0.0,0.0,0.0,0.0,-5.2449,-5.2607,-5.2694,-5.2764,-5.2764,-5.2764,-5.2834,-5.1964,-5.1346,-5.0841,-5.0177,-4.9576,-4.9107,-4.9229,-4.935,-4.935,0.0,0.0,-4.9488,-4.9708,-4.9808,-4.9884,-5.0114,-5.0285,-5.0285,-5.0285,-5.0272,-5.0223,0.0,0.0,0.0,0.0,0.0,0.0,0.0,-1.0191,-1.0981,-1.1948,-1.2162,-1.2099,-1.183,-1.1932,-1.2018,0.0,0.0,0.0,0.0,0.0,0.0,0.0,0.0,0.0,0.0,0.0,0.0,0.0,0.0,0.0,0.0,0.0,0.0,0.0,0.0,0.0,0.0,0.0,0.0,0.0,0.0,0.0,0.0,0.0,0.0,0.0,0.0,0.0,0.0,0.0,-2.8496,-3.0352,-3.3256,-3.5358,-3.7077,-3.8817,-3.958,-4.0357,-4.2552,-4.2947,-4.2837,-4.35,-4.2884,-4.1907,-4.0911,0.0,0.0,0.0,0.0,-3.5208,-3.5208,0.0,0.0,0.0,0.0,0.0,0.0,0.0,0.0,0.0,0.0,0.0,0.0,0.0,0.0,0.0,0.0,0.0,-5.2956,-5.3162,-5.3315,-5.3315,-5.345,-5.345,-5.345,-5.2706,-5.2027,-5.1312,-5.0691,-5.0005,-4.935,-4.953,-4.9649,-4.9708,-4.9825,0.0,-4.9999,-5.0114,-5.0171,-5.0171,-5.0341,-5.0453,-5.0492,-5.0492,-5.062,-5.0747,0.0,0.0,0.0,0.0,0.0,0.0,0.0,-1.0482,-1.1431,-1.2551,-1.2858,-1.2846,-1.2512,-1.2431,-1.2446,0.0,0.0,0.0,0.0,0.0,0.0,0.0,0.0,0.0,0.0,0.0,0.0,0.0,0.0,0.0,0.0,0.0,0.0,0.0,0.0,0.0,0.0,0.0,0.0,0.0,0.0,0.0,0.0,0.0,0.0,0.0,0.0,0.0,0.0,0.0,-2.7287,-2.901,-3.1344,-3.3763,-3.5998,-3.7749,-3.8871,-3.9929,-4.1904,-4.2457,-4.2457,-4.2457,-4.1971,-4.1037,-3.9642,-3.8444,0.0,0.0,-3.4851,-3.4354,-3.4354,0.0,0.0,0.0,0.0,0.0,0.0,0.0,0.0,0.0,0.0,0.0,0.0,0.0,0.0,0.0,0.0,0.0,-5.3382,-5.3651,-5.3766,-5.3766,-5.398,-5.4028,-5.4028,-5.3528,-5.286,-5.2073,-5.1363,-5.0609,-4.9965,-4.9911,-4.9884,-4.9999,-5.0171,0.0,0.0,-5.0453,-5.0509,-5.0509,-5.0564,-5.0675,-5.0766,-5.0766,-5.0909,-5.1158,0.0,0.0,0.0,0.0,0.0,0.0,0.0,-1.1033,-1.2082,-1.293,-1.3179,-1.3376,-1.3626,-1.3476,-1.3458,0.0,0.0,0.0,0.0,0.0,0.0,0.0,0.0,0.0,0.0,0.0,0.0,0.0,0.0,0.0,0.0,0.0,0.0,0.0,0.0,0.0,0.0,0.0,0.0,0.0,0.0,0.0,0.0,0.0,0.0,0.0,0.0,0.0,0.0,0.0,0.0,-2.8667,-2.9076,-3.1558,-3.4746,-3.6959,0.0,0.0,-4.1288,-4.1683,-4.1683,-4.1683,-4.1308,-4.0341,-3.8368,0.0,0.0,-3.4526,-3.3661,-3.3226,-3.3226,-3.3777,0.0,0.0,0.0,0.0,0.0,0.0,0.0,0.0,0.0,0.0,0.0,0.0,0.0,0.0,0.0,0.0,0.0,-5.3997,-5.398,-5.398,-5.4076,-5.4188,-5.4188,-5.4299,-5.4011,-5.342,-5.2624,-5.1939,-5.1402,-5.0672,-5.0341,-5.0359,0.0,0.0,0.0,-5.0657,-5.0749,-5.082,-5.1123,-5.1228,-5.1228,-5.1228,-5.1246,-5.1298,0.0,0.0,0.0,0.0,0.0,0.0,-1.0264,-1.132,-1.2549,-1.3802,-1.4041,-1.4413,-1.5352,-1.5589,-1.5172,-1.3753,0.0,0.0,0.0,0.0,0.0,0.0,0.0,0.0,0.0,0.0,0.0,0.0,0.0,0.0,0.0,0.0,0.0,0.0,0.0,0.0,0.0,0.0,0.0,0.0,0.0,0.0,0.0,0.0,0.0,0.0,0.0,0.0,0.0,0.0,0.0,0.0,-2.8217,-2.998,0.0,0.0,-3.7196,-3.8586,-3.9961,-4.034,-4.034,-4.034,-3.9945,-3.9227,-3.8105,0.0,-3.5975,-3.4355,-3.3517,-3.2999,-3.2609,-3.3096,-3.3925,0.0,0.0,0.0,0.0,0.0,0.0,0.0,0.0,0.0,0.0,0.0,0.0,0.0,0.0,0.0,0.0,-5.462,-5.462,-5.462,-5.4665,-5.4648,-5.4648,-5.4745,-5.42,-5.3046,-5.2834,-5.2091,-5.1018,-5.0904,-5.0819,-5.0819,0.0,0.0,0.0,-5.107,-5.1105,-5.1105,-5.1228,-5.1298,-5.1298,-5.1298,-5.135,-5.1402,0.0,0.0,0.0,0.0,0.0,-1.0097,-1.0466,-1.1432,-1.2687,-1.4158,-1.4471,-1.5089,-1.6615,-1.7128,-1.6651,-1.4844,-1.4469,0.0,0.0,0.0,0.0,0.0,0.0,0.0,0.0,0.0,0.0,0.0,0.0,0.0,0.0,0.0,0.0,0.0,0.0,0.0,0.0,0.0,0.0,0.0,0.0,0.0,0.0,0.0,0.0,0.0,0.0,0.0,0.0,0.0,0.0,0.0,0.0,0.0,0.0,0.0,-3.5758,-3.7164,-3.8523,-3.9044,-3.9155,-3.895,-3.8705,-3.8173,0.0,0.0,-3.5045,-3.3727,-3.2983,-3.2382,-3.1971,-3.249,-3.3304,0.0,0.0,-3.852,0.0,0.0,0.0,0.0,0.0,0.0,0.0,0.0,0.0,0.0,0.0,0.0,0.0,-5.5174,-5.5174,-5.5035,-5.5113,-5.5191,-5.5234,-5.5234,-5.4629,-5.3352,-5.3147,-5.2379,-5.1154,-5.1122,-5.1158,-5.1158,0.0,0.0,0.0,-5.135,-5.1384,-5.1436,-5.1454,-5.1487,-5.1538,-5.1538,-5.1607,-5.1658,0.0,0.0,0.0,0.0,0.0,0.0,-1.0661,-1.1467,-1.2491,-1.3837,-1.4175,-1.5108,-1.7178,-1.7625,-1.7704,-1.7483,-1.6508,0.0,0.0,0.0,0.0,0.0,0.0,0.0,0.0,0.0,0.0,0.0,0.0,0.0,0.0,0.0,0.0,0.0,0.0,0.0,0.0,0.0,0.0,0.0,0.0,0.0,0.0,0.0,0.0,0.0,0.0,0.0,0.0,0.0,0.0,0.0,0.0,0.0,0.0,0.0,-3.4179,-3.5726,-3.7117,-3.8002,-3.8365,-3.767,-3.7716,-3.7333,0.0,0.0,-3.3728,-3.2319,-3.1537,-3.1124,-3.1124,-3.1802,-3.2905,-3.446,-3.6059,0.0,0.0,0.0,0.0,0.0,0.0,0.0,0.0,0.0,0.0,0.0,0.0,0.0,0.0,-5.5607,-5.5514,-5.5199,-5.5371,-5.5566,-5.5706,-5.5804,-5.5547,-5.4803,-5.3989,-5.3192,-5.2342,-5.1635,-5.1298,0.0,0.0,0.0,0.0,-5.1454,-5.1556,-5.169,-5.1858,-5.1956,-5.2102,-5.2102,-5.2102,-5.2084,0.0,0.0,0.0,0.0,0.0,0.0,0.0,-1.1492,-1.2667,-1.3728,-1.4371,-1.5531,-1.764,-1.812,-1.8385,-1.8717,-1.7839,0.0,0.0,0.0,0.0,0.0,0.0,0.0,0.0,0.0,-1.7578,-1.856,-1.8951,-1.9404,0.0,0.0,0.0,0.0,0.0,0.0,0.0,0.0,0.0,0.0,0.0,0.0,0.0,0.0,0.0,0.0,0.0,0.0,0.0,0.0,0.0,0.0,0.0,0.0,0.0,0.0,0.0,0.0,-3.5063,-3.5837,-3.6327,-3.6105,-3.6269,-3.6046,-3.4414,0.0,-3.355,-3.1748,-3.1225,-3.1006,-3.0674,-3.1621,-3.2665,-3.3354,-3.5607,0.0,0.0,0.0,0.0,0.0,0.0,0.0,0.0,0.0,0.0,0.0,0.0,0.0,0.0,-5.5804,-5.5804,-5.5671,-5.5746,-5.5804,-5.5861,-5.5366,-5.4768,-5.3971,-5.3336,-5.2659,-5.1894,-5.1847,0.0,0.0,0.0,0.0,0.0,-5.1889,-5.1956,-5.2005,-5.2005,-5.2054,-5.2102,-5.2102,-5.2102,-5.2102,0.0,0.0,0.0,0.0,0.0,0.0,0.0,-1.1452,-1.2519,-1.3278,-1.4253,-1.5523,-1.734,-1.8101,-1.8761,-1.942,-1.9031,0.0,0.0,0.0,0.0,0.0,0.0,0.0,0.0,-1.8064,-1.8857,-2.0051,-2.048,-2.1037,-2.1754,-2.1821,0.0,0.0,0.0,0.0,0.0,0.0,0.0,0.0,0.0,0.0,-2.1474,0.0,0.0,0.0,0.0,0.0,0.0,0.0,0.0,0.0,0.0,0.0,0.0,0.0,-2.9785,0.0,0.0,-3.4051,-3.4604,-3.4659,-3.4861,0.0,0.0,0.0,-3.2625,-3.1339,-3.0985,-3.0828,-3.082,-3.1814,-3.2878,-3.3623,-3.5816,0.0,0.0,0.0,0.0,0.0,0.0,0.0,0.0,0.0,0.0,0.0,0.0,0.0,0.0,0.0,-5.6144,-5.6237,-5.6144,-5.6002,-5.5792,-5.5347,-5.4563,-5.3477,-5.3133,-5.2591,-5.184,-5.2036,0.0,0.0,0.0,0.0,0.0,-5.2102,-5.215,-5.215,-5.215,-5.2198,-5.2246,-5.2246,-5.2246,-5.2246,0.0,0.0,0.0,0.0,0.0,0.0,0.0,-1.1366,-1.2131,-1.2601,-1.3938,-1.528,-1.6431,-1.767,-1.8782,-1.9703,0.0,0.0,0.0,0.0,0.0,0.0,0.0,0.0,0.0,-1.962,-2.0414,-2.1215,-2.2021,-2.2816,-2.3533,-2.3533,-2.3158,-2.2508,0.0,0.0,0.0,0.0,0.0,0.0,0.0,0.0,0.0,0.0,0.0,0.0,0.0,0.0,0.0,0.0,0.0,0.0,0.0,0.0,0.0,0.0,0.0,0.0,0.0,-3.2602,0.0,0.0,0.0,0.0,0.0,0.0,0.0,0.0,-3.0707,-3.0632,-3.1374,-3.226,-3.3417,-3.4901,-3.6578,0.0,0.0,0.0,0.0,0.0,0.0,0.0,0.0,0.0,0.0,0.0,0.0,0.0,0.0,0.0,-5.6546,-5.6794,-5.6492,-5.6098,-5.5608,-5.5482,-5.4709,-5.3288,-5.3235,-5.2821,-5.2084,-5.215,0.0,0.0,0.0,0.0,0.0,-5.2132,-5.2198,-5.2311,-5.2311,-5.2405,-5.2544,-5.2544,-5.2544,-5.2544,0.0,0.0,0.0,0.0,0.0,0.0,0.0,0.0,0.0,0.0,-1.3955,-1.5387,-1.5857,-1.7642,-1.8941,0.0,0.0,0.0,0.0,0.0,0.0,0.0,0.0,0.0,0.0,-2.0738,-2.1577,-2.2312,-2.3177,-2.3654,-2.3802,-2.3802,-2.3703,-2.3456,-2.2883,0.0,0.0,0.0,0.0,0.0,0.0,0.0,0.0,0.0,0.0,0.0,-2.1343,-2.1724,0.0,0.0,0.0,0.0,0.0,0.0,0.0,0.0,-2.6662,-2.738,-2.8885,0.0,-3.2028,-3.2028,-3.2175,-3.208,0.0,0.0,0.0,0.0,0.0,0.0,0.0,0.0,-3.3567,0.0,0.0,0.0,0.0,0.0,0.0,0.0,0.0,0.0,0.0,0.0,0.0,0.0,0.0,0.0,0.0,0.0,-5.6794,-5.6951,-5.6287,-5.5839,-5.5608,-5.4421,-5.3648,-5.3271,-5.2774,-5.2444,-5.2264,-5.2358,0.0,0.0,0.0,0.0,-5.2387,-5.2444,-5.2518,-5.2518,-5.2627,-5.269,-5.2735,-5.2735,-5.2735,-5.2735,0.0,0.0,0.0,0.0,0.0,0.0,0.0,0.0,0.0,0.0,0.0,-1.5764,-1.6533,-1.7869,0.0,0.0,0.0,0.0,0.0,0.0,0.0,0.0,0.0,0.0,-2.1458,-2.2005,-2.2777,-2.3852,-2.4381,-2.4796,-2.5096,-2.5096,-2.4896,-2.4464,-2.3356,0.0,0.0,0.0,0.0,0.0,0.0,0.0,0.0,0.0,0.0,0.0,-2.1262,-2.144,0.0,-2.205,-2.2607,-2.3375,0.0,0.0,0.0,0.0,-2.6299,-2.6839,-2.7923,-2.9396,-3.075,-3.1149,-3.1323,-3.132,0.0,0.0,0.0,0.0,0.0,0.0,0.0,0.0,0.0,0.0,0.0,0.0,0.0,0.0,0.0,0.0,0.0,0.0,0.0,0.0,0.0,0.0,0.0,0.0,0.0,0.0,-5.6771,-5.6563,-5.5803,-5.5338,-5.5306,-5.4097,-5.3285,-5.2983,-5.2614,-5.2462,-5.2508,-5.2599,0.0,0.0,0.0,0.0,-5.2645,-5.2672,-5.2698,-5.2698,-5.2761,-5.2806,-5.2806,-5.2806,-5.2806,-5.2806,0.0,0.0,0.0,0.0,0.0,0.0,0.0,0.0,0.0,0.0,0.0,0.0,0.0,0.0,0.0,0.0,0.0,0.0,0.0,0.0,0.0,0.0,0.0,-2.2054,-2.2967,-2.3145,-2.3926,-2.528,-2.553,-2.5967,-2.6554,-2.6554,-2.6101,-2.5179,-2.3794,-2.2728,0.0,0.0,0.0,0.0,-2.184,0.0,0.0,0.0,0.0,0.0,0.0,0.0,0.0,-2.194,-2.2148,-2.2387,-2.3729,0.0,0.0,0.0,0.0,0.0,-2.765,-2.8556,-2.9553,-3.0554,-3.081,-3.0871,0.0,0.0,0.0,0.0,0.0,0.0,0.0,0.0,0.0,0.0,0.0,0.0,0.0,0.0,0.0,0.0,0.0,0.0,0.0,0.0,0.0,0.0,0.0,0.0,0.0,0.0,0.0,-5.5879,-5.5136,-5.4755,-5.4755,-5.3958,-5.3225,-5.2635,-5.2635,-5.2698,-5.2806,-5.2806,-5.2806,0.0,0.0,0.0,-5.2806,-5.2806,-5.2806,-5.2806,-5.285,-5.2868,-5.2868,-5.2868,-5.2868,-5.2868,0.0,0.0,0.0,0.0,0.0,0.0,0.0,0.0,0.0,0.0,0.0,0.0,0.0,0.0,0.0,0.0,0.0,0.0,0.0,0.0,0.0,0.0,-2.2073,-2.2367,-2.3317,-2.3985,-2.4791,-2.5722,-2.6432,-2.6774,-2.6826,-2.6826,-2.6015,-2.4536,-2.4175,-2.3257,-2.1998,-2.1969,-2.1969,-2.1969,-2.1969,0.0,0.0,0.0,0.0,0.0,0.0,0.0,0.0,-2.1642,-2.2067,-2.2557,-2.2818,0.0,0.0,0.0,0.0,0.0,-2.7005,-2.7794,-2.8722,-2.9982,-3.0326,-3.0516,0.0,0.0,0.0,0.0,0.0,0.0,0.0,0.0,0.0,0.0,0.0,0.0,0.0,0.0,0.0,0.0,0.0,0.0,0.0,0.0,0.0,0.0,0.0,0.0,0.0,0.0,0.0,-5.5159,-5.4361,-5.4008,-5.4136,-5.3208,-5.2781,-5.2761,-5.2761,-5.2761,-5.2806,-5.2806,-5.2806,0.0,0.0,-5.2806,-5.2806,-5.2893,-5.2955,-5.2999,-5.3103,-5.3121,-5.3121,-5.3121,-5.3121,-5.3121,0.0,0.0,0.0,0.0,0.0,0.0,0.0,0.0,0.0,0.0,0.0,0.0,0.0,0.0,0.0,0.0,0.0,0.0,0.0,0.0,0.0,-2.2659,-2.2983,-2.3493,-2.4252,-2.503,-2.5785,-2.6556,-2.7345,-2.7466,-2.7023,-2.6975,-2.633,-2.5178,-2.4692,-2.3849,-2.2846,-2.244,-2.2287,-2.2287,0.0,0.0,0.0,0.0,0.0,0.0,0.0,0.0,0.0,0.0,-2.1609,-2.2221,-2.2679,0.0,0.0,0.0,0.0,0.0,-2.6985,-2.7869,-2.8721,-2.9786,-3.0584,-3.108,0.0,0.0,0.0,0.0,0.0,0.0,0.0,0.0,0.0,0.0,0.0,0.0,0.0,0.0,0.0,0.0,0.0,0.0,0.0,0.0,0.0,0.0,0.0,0.0,0.0,0.0,0.0,0.0,-5.4054,-5.3745,-5.346,-5.3032,-5.285,-5.2912,-5.2912,-5.2955,-5.2999,-5.256,-5.2358,-5.2322,0.0,-5.1956,-5.2358,-5.2443,-5.2718,-5.3103,-5.3164,-5.3206,-5.3206,-5.3206,-5.3206,-5.3206,0.0,0.0,0.0,0.0,0.0,0.0,0.0,0.0,0.0,0.0,0.0,0.0,0.0,0.0,0.0,0.0,0.0,0.0,0.0,0.0,-2.2685,-2.2868,-2.3877,-2.4634,-2.5057,-2.5801,-2.6632,-2.7584,-2.8142,-2.806,-2.7425,-2.7173,-2.6629,-2.5908,-2.506,-2.4291,-2.3557,-2.2822,-2.2515,-2.2515,0.0,0.0,0.0,0.0,0.0,0.0,0.0,0.0,0.0,0.0,0.0,0.0,0.0,0.0,0.0,-2.4493,-2.5112,-2.5614,-2.6789,-2.7813,-2.8757,-2.9387,0.0,0.0,0.0,0.0,0.0,0.0,0.0,0.0,0.0,0.0,0.0,0.0,0.0,0.0,0.0,0.0,0.0,0.0,0.0,0.0,0.0,0.0,0.0,0.0,0.0,0.0,0.0,0.0,0.0,0.0,-5.3735,-5.3533,-5.306,-5.2859,-5.2859,-5.3042,-5.2859,-5.281,-5.2894,-5.2087,-5.172,-5.1665,-5.1077,-5.1151,-5.172,-5.172,-5.2197,-5.2931,-5.2931,-5.3041,-5.3206,-5.3206,-5.3206,-5.3206,0.0,0.0,0.0,0.0,0.0,0.0,0.0,0.0,0.0,0.0,0.0,0.0,0.0,0.0,0.0,0.0,0.0,0.0,0.0,0.0,-2.2927,-2.307,-2.4567,-2.5349,-2.5265,-2.605,-2.7185,-2.8683,-2.8676,-2.858,-2.8395,-2.7589,-2.6771,-2.5953,-2.509,-2.4291,-2.3557,-2.2822,-2.2515,-2.2515,-2.2515,0.0,0.0,0.0,0.0,0.0,0.0,0.0,0.0,0.0,0.0,0.0,0.0,0.0,-2.338,-2.3482,-2.4495,-2.5625,-2.5792,-2.6996,-2.8296,-2.8452,0.0,0.0,0.0,0.0,0.0,0.0,0.0,0.0,0.0,0.0,0.0,0.0,0.0,0.0,0.0,0.0,0.0,0.0,0.0,0.0,0.0,0.0,0.0,0.0,0.0,0.0,0.0,0.0,0.0,0.0,0.0,-5.3115,-5.3164,-5.2454,-5.2454,-5.3164,-5.2435,-5.2087,-5.205,-5.1242,-5.0894,-5.0875,-5.0839,-5.0839,-5.0894,-5.0894,-5.1353,-5.2087,-5.2087,-5.2546,-5.3206,-5.3206,-5.3206,-5.3206,0.0,0.0,0.0,0.0,0.0,0.0,0.0,0.0,0.0,0.0,0.0,0.0,0.0,0.0,0.0,0.0,0.0,0.0,0.0,0.0,-2.3102,-2.3289,-2.4867,-2.5727,-2.5596,-2.6816,-2.7712,-2.8294,-2.8145,-2.825,-2.8528,-2.775,-2.723,-2.6887,-2.5594,-2.4856,-2.4493,-2.3283,-2.2764,-2.2738,-2.2712,-2.2659,0.0,0.0,0.0,0.0,0.0,0.0,0.0,0.0,-2.0484,-2.1386,0.0,-2.2327,-2.3038,-2.3528,-2.4418,-2.5261,-2.5504,-2.6992,-2.8526,-2.8851,0.0,0.0,0.0,0.0,0.0,0.0,0.0,0.0,0.0,0.0,0.0,0.0,0.0,0.0,0.0,0.0,0.0,0.0,0.0,0.0,0.0,0.0,0.0,0.0,0.0,0.0,0.0,0.0,0.0,0.0,0.0,-5.2394,-5.2454,-5.1665,-5.1408,-5.1701,-5.1408,-5.1242,-5.1224,-5.0417,-5.005,-5.0013,-4.9577,-4.9632,-5.0131,-5.0151,-5.0982,-5.2235,-5.2651,-5.2955,-5.3206,-5.3206,-5.3206,-5.3206,0.0,0.0,0.0,0.0,0.0,0.0,0.0,0.0,0.0,0.0,0.0,0.0,0.0,0.0,0.0,0.0,0.0,0.0,0.0,-2.3151,-2.3289,-2.3424,-2.4783,-2.5636,-2.5825,-2.7068,-2.7929,-2.8369,-2.8206,-2.832,-2.8673,-2.7923,-2.7526,-2.7426,-2.5877,-2.5209,-2.5105,-2.3563,-2.2893,-2.2893,-2.2868,-2.2816,0.0,0.0,0.0,0.0,0.0,0.0,0.0,0.0,-1.9484,-2.0567,0.0,0.0,-2.2937,-2.3405,-2.4157,-2.4908,-2.5293,-2.6771,-2.827,0.0,0.0,0.0,0.0,0.0,0.0,0.0,0.0,0.0,0.0,0.0,0.0,0.0,0.0,0.0,0.0,0.0,0.0,0.0,0.0,0.0,0.0,0.0,0.0,0.0,0.0,0.0,0.0,0.0,0.0,0.0,0.0,0.0,-5.161,-5.082,-5.0417,-5.0417,-5.0141,-5.016,-5.038,-4.9554,-4.9226,-4.9246,-4.8714,-4.8807,-4.9342,-4.9399,-5.0415,-5.2003,-5.2718,-5.3074,-5.323,-5.323,-5.323,-5.323,0.0,0.0,0.0,0.0,0.0,0.0,0.0,0.0,0.0,0.0,0.0,0.0,0.0,0.0,0.0,0.0,0.0,0.0,-2.2989,-2.3336,-2.3494,-2.3494,-2.4324,-2.5141,-2.5882,-2.6688,-2.779,-2.9189,-2.9077,-2.8956,-2.8877,-2.8014,-2.7557,-2.7426,-2.5906,-2.5209,-2.5105,-2.3563,-2.2893,-2.2893,-2.2893,-2.2893,-2.2876,0.0,0.0,0.0,0.0,0.0,0.0,0.0,-1.8003,-1.8612,0.0,0.0,0.0,-2.3017,-2.3702,-2.4592,-2.504,-2.6202,0.0,0.0,0.0,0.0,0.0,0.0,0.0,0.0,0.0,0.0,0.0,0.0,0.0,0.0,0.0,0.0,0.0,0.0,0.0,0.0,0.0,0.0,0.0,0.0,0.0,0.0,0.0,0.0,0.0,0.0,0.0,0.0,0.0,0.0,-5.0802,-4.9976,-4.9572,-4.9554,-4.871,-4.8746,-4.9536,-4.8691,-4.8363,-4.8513,-4.8513,-4.855,-4.8587,-4.8605,-4.9584,-5.1172,-5.1985,-5.2699,-5.33,-5.33,-5.33,-5.3318,0.0,0.0,0.0,0.0,0.0,0.0,0.0,0.0,0.0,0.0,0.0,0.0,0.0,0.0,0.0,0.0,0.0,0.0,-2.3183,-2.3448,-2.3522,-2.3634,-2.4473,-2.4995,-2.5123,-2.6376,-2.7487,-2.8436,-2.8379,-2.8311,-2.8194,-2.7936,-2.7736,-2.7572,-2.6048,-2.5347,-2.5242,-2.3692,-2.3045,-2.3045,-2.2995,-2.297,-2.29,0.0,0.0,0.0,0.0,0.0,0.0,0.0,0.0,0.0,-2.0688,0.0,-2.3252,-2.3218,-2.3422,-2.3684,-2.3702,0.0,0.0,0.0,0.0,0.0,0.0,0.0,0.0,0.0,0.0,0.0,0.0,0.0,0.0,0.0,0.0,0.0,0.0,0.0,0.0,0.0,0.0,0.0,0.0,0.0,0.0,0.0,0.0,0.0,0.0,0.0,0.0,0.0,0.0,0.0,-4.9958,-4.9114,-4.8691,-4.8673,-4.8529,-4.8548,-4.8673,-4.8529,-4.8457,-4.8513,-4.8642,-4.8715,-4.8788,-4.9397,-4.9898,-5.0454,-5.1822,-5.2467,-5.2684,-5.3237,-5.344,-5.3459,0.0,0.0,0.0,0.0,0.0,0.0,0.0,0.0,0.0,0.0,0.0,0.0,0.0,0.0,0.0,0.0,0.0,0.0,0.0,0.0,-2.3585,-2.3674,-2.419,-2.4563,-2.48,-2.594,-2.6738,-2.721,-2.7806,-2.8042,-2.7975,-2.7917,-2.7859,-2.7725,-2.6104,-2.5401,-2.5296,-2.3769,-2.3095,-2.3095,-2.307,-2.3045,-2.2975,0.0,0.0,0.0,0.0,0.0,0.0,0.0,0.0,0.0,0.0,0.0,0.0,-2.3392,-2.3389,-2.3647,-2.4956,0.0,0.0,0.0,0.0,0.0,0.0,0.0,0.0,0.0,0.0,0.0,0.0,0.0,0.0,0.0,0.0,0.0,0.0,0.0,0.0,0.0,0.0,0.0,0.0,0.0,0.0,0.0,0.0,0.0,0.0,0.0,0.0,0.0,0.0,0.0,-4.9077,-4.862,-4.8363,-4.8363,-4.8476,-4.8513,-4.842,-4.8513,-4.8569,-4.8624,-4.8787,-4.8857,-4.8895,-4.9394,-4.9802,-5.0138,-5.1102,-5.1658,-5.1913,-5.2393,-5.2578,-5.2617,0.0,0.0,0.0,0.0,0.0,0.0,0.0,0.0,0.0,0.0,0.0,0.0,0.0,0.0,0.0,0.0,0.0,0.0,0.0,0.0,-2.3585,-2.3585,-2.3674,-2.4033,-2.4789,-2.5379,-2.5729,-2.58,-2.7184,-2.7921,-2.7992,-2.7869,-2.7836,-2.7836,-2.6149,-2.5401,-2.5296,-2.3769,-2.3095,-2.3095,-2.3102,-2.3102,-2.3091,-2.3035,0.0,0.0,0.0,0.0,0.0,0.0,0.0,0.0,-1.8823,-2.1113,-2.3762,-2.3608,-2.3562,-2.43,0.0,0.0,0.0,0.0,0.0,0.0,0.0,0.0,0.0,0.0,0.0,0.0,0.0,0.0,0.0,0.0,0.0,0.0,0.0,0.0,0.0,0.0,0.0,0.0,0.0,0.0,0.0,0.0,0.0,0.0,0.0,0.0,0.0,0.0,0.0,0.0,-4.8306,-4.8457,-4.8494,0.0,-4.8569,-4.8623,-4.8623,-4.8623,-4.8697,-4.8822,-4.8874,-4.8909,-4.8909,-4.8909,-4.9336,-5.0005,-5.0079,-5.0508,-5.112,-5.1195,-5.1232,-5.1232,0.0,0.0,0.0,0.0,0.0,0.0,0.0,0.0,0.0,0.0,0.0,0.0,0.0,0.0,0.0,0.0,0.0,0.0,0.0,0.0,-2.3585,-2.3585,-2.3607,-2.3983,-2.4789,-2.4879,-2.5229,-2.58,-2.6132,-2.6605,-2.7174,-2.7065,-2.7346,-2.7836,-2.6149,-2.5401,-2.5296,-2.3769,-2.3095,-2.3102,-2.31,-2.3094,-2.31,-2.307,-2.2872,0.0,0.0,0.0,0.0,0.0,0.0,0.0,-1.9039,-2.1224,-2.3821,-2.4002,-2.4037,-2.4775,0.0,0.0,0.0,0.0,0.0,0.0,0.0,0.0,0.0,0.0,0.0,0.0,0.0,0.0,0.0,0.0,0.0,0.0,0.0,0.0,0.0,0.0,0.0,0.0,0.0,0.0,0.0,0.0,0.0,0.0,0.0,0.0,0.0,0.0,0.0,-4.8363,-4.8457,-4.8513,-4.8532,0.0,-4.8697,-4.8751,-4.8751,-4.8751,-4.8804,-4.8874,-4.8909,-4.8909,-4.8909,-4.8909,-4.9002,-4.9224,-4.9856,-5.0192,-5.0433,-5.1101,-5.1361,-5.1361,0.0,0.0,0.0,0.0,0.0,0.0,0.0,0.0,0.0,0.0,0.0,0.0,0.0,0.0,0.0,0.0,0.0,0.0,0.0,0.0,0.0,-2.3539,-2.3539,-2.3759,-2.417,-2.4123,-2.432,-2.4712,-2.5087,-2.5847,0.0,-2.6881,-2.7225,-2.7876,-2.6488,-2.5711,-2.5296,-2.3769,-2.3095,-2.3102,-2.3112,-2.3111,-2.3104,-2.3109,-2.2226,-2.0829,-1.9233,0.0,0.0,0.0,0.0,0.0,0.0,0.0,-2.1972,-2.3713,-2.4202,-2.4899,0.0,0.0,0.0,0.0,0.0,0.0,0.0,0.0,0.0,0.0,0.0,0.0,0.0,0.0,0.0,0.0,0.0,0.0,0.0,0.0,0.0,0.0,0.0,0.0,0.0,0.0,0.0,0.0,0.0,0.0,0.0,0.0,0.0,0.0,-4.7408,-4.7868,-4.7979,-4.8421,-4.8679,-4.8697,-4.8804,-4.8857,-4.8857,-4.8857,-4.8874,-4.8909,-4.8909,-4.8909,-4.8909,-4.8909,-4.8909,-4.8946,-4.9355,-4.954,-4.9577,-5.0042,-5.0209,-5.0209,0.0,0.0,0.0,0.0,0.0,0.0,0.0,0.0,0.0,0.0,0.0,0.0,0.0,0.0,0.0,0.0,0.0,0.0,0.0,0.0,0.0,0.0,-2.3517,-2.3494,-2.3494,-2.3494,-2.3494,-2.3494,0.0,0.0,0.0,0.0,-2.7262,-2.7996,-2.7067,-2.6162,-2.5314,-2.3761,-2.3112,-2.3102,-2.3094,-2.2764,-2.2321,-2.2357,-2.0878,-1.8812,-1.884,-1.895,-1.9109,-1.9123,0.0,0.0,0.0,0.0,-1.9952,-2.3289,-2.4247,-2.4959,0.0,0.0,0.0,0.0,0.0,0.0,0.0,0.0,0.0,0.0,0.0,0.0,0.0,0.0,0.0,0.0,0.0,0.0,0.0,0.0,0.0,0.0,0.0,0.0,0.0,0.0,0.0,0.0,0.0,0.0,0.0,0.0,-4.579,-4.5915,-4.6689,-4.7131,-4.7219,-4.7974,-4.8435,-4.8618,-4.8818,-4.8909,-4.8909,-4.8909,-4.8909,-4.8909,-4.8909,-4.8909,-4.8909,-4.8909,-4.8909,-4.8909,-4.8909,-4.8909,-4.8909,-4.8909,-4.8909,-4.8909,0.0,0.0,0.0,0.0,0.0,0.0,0.0,0.0,0.0,0.0,0.0,0.0,0.0,0.0,0.0,0.0,0.0,0.0,-2.3678,0.0,0.0,-2.3603,-2.3539,-2.3494,-2.3494,-2.3494,-2.3494,-2.3494,0.0,0.0,0.0,0.0,0.0,-2.8149,0.0,-2.6737,-2.5314,-2.3763,-2.31,-2.3102,-2.3106,-2.1499,-1.9116,-1.9311,-1.9132,-1.8816,-1.9002,-1.9076,-1.9129,-1.9228,-1.9285,0.0,0.0,0.0,0.0,-2.344,-2.4447,-2.519,0.0,0.0,0.0,0.0,0.0,0.0,0.0,0.0,0.0,0.0,0.0,0.0,0.0,0.0,0.0,0.0,0.0,0.0,0.0,0.0,0.0,0.0,0.0,0.0,0.0,0.0,0.0,0.0,0.0,0.0,0.0,-4.4749,-4.5118,-4.5137,-4.593,-4.6371,-4.6437,-4.6583,-4.7043,-4.7834,-4.8574,-4.8909,-4.8909,-4.8909,-4.8909,-4.8909,-4.8909,-4.8909,-4.8909,-4.8909,-4.8909,-4.8909,-4.8909,-4.8909,-4.8909,-4.8909,-4.8909,-4.8909,0.0,0.0,0.0,0.0,0.0,0.0,0.0,0.0,0.0,0.0,0.0,0.0,0.0,0.0,0.0,-2.3616,-2.3674,-2.3656,-2.37,-2.3718,-2.3696,-2.3674,-2.3585,-2.3562,-2.3562,-2.3517,-2.3494,0.0,0.0,0.0,0.0,-2.6846,-2.7708,0.0,0.0,0.0,0.0,-2.4121,-2.3144,-2.3217,-2.3212,-2.245,-2.1308,-2.1387,-2.1516,-2.1616,-2.1697,-2.0662,-1.9218,-1.9281,-1.9305,-1.9314,-1.9442,0.0,0.0,0.0,-2.4601,0.0,0.0,0.0,0.0,0.0,0.0,0.0,0.0,0.0,0.0,0.0,0.0,0.0,0.0,0.0,0.0,0.0,0.0,0.0,0.0,0.0,0.0,0.0,0.0,0.0,0.0,0.0,0.0,0.0,0.0,0.0,-4.3804,-4.4136,-4.4354,-4.4387,-4.5164,-4.5623,-4.5723,-4.6186,-4.6628,-4.7033,-4.7386,-4.7794,-4.824,-4.824,-4.8481,-4.8909,-4.8909,-4.8909,-4.8909,-4.8909,-4.8909,-4.8909,-4.8909,-4.8909,-4.8909,-4.8909,-4.8909,-4.8909,0.0,0.0,0.0,0.0,0.0,0.0,0.0,0.0,0.0,0.0,0.0,0.0,0.0,0.0,0.0,0.0,-2.3721,-2.3721,-2.3725,-2.3765,-2.3783,-2.3721,-2.3674,-2.3629,-2.3629,-2.3562,0.0,0.0,0.0,0.0,-2.5255,-2.7264,-2.8209,0.0,-2.8083,0.0,0.0,0.0,0.0,-2.3892,-2.3927,-2.4039,-2.4113,-2.3664,-2.3611,-2.3812,-2.3873,-2.2464,-2.0553,-2.0602,-2.0611,-2.0507,-1.9852,-1.9682,0.0,0.0,0.0,0.0,0.0,0.0,0.0,0.0,0.0,0.0,0.0,0.0,0.0,0.0,0.0,0.0,0.0,0.0,0.0,0.0,0.0,0.0,0.0,0.0,0.0,0.0,0.0,0.0,0.0,0.0,0.0,0.0,0.0,0.0,-4.3851,-4.3851,-4.3883,-4.3929,-4.4503,-4.4869,-4.4971,-4.5769,-4.6197,-4.6197,-4.6401,-4.681,-4.7404,-4.7404,-4.772,-4.8314,-4.8723,-4.8909,-4.8909,-4.8909,-4.8909,-4.8909,-4.8909,-4.8909,-4.8909,-4.8909,-4.8909,-4.8909,0.0,0.0,0.0,0.0,0.0,0.0,0.0,0.0,0.0,0.0,0.0,0.0,0.0,-2.37,-2.3721,-2.3804,-2.3804,-2.3789,-2.3795,-2.3807,-2.3804,-2.3804,-2.3721,0.0,-2.37,-2.3629,0.0,0.0,0.0,0.0,-2.3706,-2.6772,-2.8192,-2.82,-2.8208,-2.8119,-2.7968,0.0,0.0,0.0,-2.5646,-2.5793,-2.5772,-2.4122,-2.3614,0.0,0.0,0.0,-2.397,-2.4173,-2.4236,-2.3702,-2.0652,-1.9715,-1.9744,0.0,0.0,0.0,0.0,0.0,0.0,0.0,0.0,0.0,0.0,0.0,0.0,0.0,0.0,0.0,0.0,0.0,0.0,0.0,0.0,0.0,0.0,0.0,0.0,0.0,0.0,0.0,0.0,0.0,0.0,0.0,0.0,0.0,-4.4005,-4.4005,-4.4005,-4.4005,-4.4042,-4.4061,-4.4079,-4.4934,-4.5361,-4.5361,-4.6141,-4.6513,-4.655,-4.655,-4.6587,-4.6717,-4.824,-4.8909,-4.8909,-4.8909,-4.8909,-4.8909,-4.8909,-4.8909,-4.8909,-4.8909,-4.8909,-4.8909,0.0,0.0,0.0,0.0,0.0,0.0,0.0,0.0,0.0,0.0,0.0,0.0,0.0,-2.3831,-2.3813,-2.3792,-2.3792,-2.3792,-2.3795,-2.3813,-2.3792,-2.3792,-2.3786,-2.3765,-2.3765,-2.3696,0.0,0.0,0.0,-2.3507,-2.3559,-2.5686,-2.7199,-2.8192,-2.8128,-2.8063,-2.802,-2.7477,0.0,0.0,-2.6035,-2.6537,-2.7407,0.0,0.0,0.0,0.0,0.0,0.0,0.0,-2.6262,-2.4362,-2.3207,-2.2398,-2.1919,-2.2112,-2.3427,-2.4794,-2.4816,0.0,0.0,0.0,0.0,0.0,0.0,0.0,0.0,0.0,0.0,0.0,0.0,0.0,0.0,0.0,0.0,0.0,0.0,0.0,0.0,0.0,0.0,0.0,0.0,0.0,0.0,0.0,0.0,0.0,-4.4005,-4.4005,-4.4005,-4.4005,-4.4005,-4.4005,-4.4005,-4.4302,-4.4469,-4.4469,-4.4766,-4.5194,-4.5732,-4.5732,-4.6011,-4.6531,-4.7107,-4.7646,-4.8129,-4.8129,-4.8479,-4.9015,-4.9015,-4.9064,-4.9079,-4.9079,-4.9079,-4.9079,0.0,0.0,0.0,0.0,0.0,0.0,0.0,0.0,0.0,0.0,0.0,0.0,0.0,0.0,-2.3917,-2.3876,-2.3876,-2.3876,-2.3876,-2.3876,-2.3876,-2.3876,-2.3852,-2.3828,-2.3828,0.0,0.0,0.0,0.0,0.0,0.0,-2.4551,-2.5597,-2.6629,-2.7068,-2.7593,0.0,0.0,0.0,-2.7362,0.0,-2.7627,-2.8368,0.0,0.0,0.0,0.0,0.0,0.0,0.0,0.0,0.0,-2.4968,-2.3795,-2.2915,-2.3408,-2.3964,-2.4507,-2.4806,0.0,0.0,0.0,0.0,0.0,0.0,0.0,0.0,0.0,0.0,0.0,0.0,0.0,0.0,0.0,0.0,0.0,0.0,0.0,0.0,0.0,0.0,0.0,0.0,0.0,0.0,0.0,0.0,0.0,-4.4085,-4.4055,-4.4055,-4.4005,-4.4005,-4.4005,-4.4005,-4.4005,-4.4005,-4.4005,-4.4005,-4.4352,-4.4941,-4.4941,-4.5239,-4.5773,-4.5773,-4.6355,-4.7326,-4.7326,-4.7709,-4.8315,-4.8613,-4.8739,-4.8824,-4.9085,-4.9197,-4.9197,0.0,0.0,0.0,0.0,0.0,0.0,0.0,0.0,0.0,0.0,0.0,0.0,0.0,0.0,0.0,-2.4032,-2.4032,-2.4032,-2.3996,-2.3996,-2.3996,-2.3996,-2.3937,-2.3896,-2.3896,0.0,0.0,0.0,0.0,0.0,0.0,0.0,-2.3507,-2.3562,-2.5059,-2.6639,-2.8093,0.0,-2.8201,-2.8336,0.0,-2.9098,-2.8712,0.0,0.0,0.0,-3.2587,-3.3974,0.0,0.0,0.0,0.0,0.0,0.0,-2.2566,-2.3431,-2.3685,-2.392,0.0,0.0,0.0,0.0,0.0,0.0,0.0,0.0,0.0,0.0,0.0,0.0,0.0,0.0,0.0,0.0,0.0,0.0,0.0,0.0,0.0,0.0,0.0,0.0,0.0,0.0,0.0,0.0,0.0,-4.4255,-4.4214,-4.4184,-4.4135,-4.4005,-4.4005,-4.4005,-4.4005,-4.4005,-4.4005,-4.4005,-4.4005,-4.4085,-4.4184,-4.4184,-4.4244,-4.4285,-4.4285,-4.5151,-4.6531,-4.6549,-4.6632,-4.6788,-4.7628,-4.7983,-4.8095,-4.8861,-4.9211,-4.923,0.0,0.0,0.0,0.0,0.0,0.0,0.0,0.0,0.0,0.0,0.0,0.0,0.0,0.0,-2.5491,-2.4926,-2.4871,-2.4616,-2.4032,-2.3996,-2.3996,-2.3996,-2.3976,-2.3976,-2.3976,0.0,0.0,0.0,0.0,0.0,0.0,0.0,0.0,0.0,-2.4005,-2.489,-2.6093,-2.7012,0.0,0.0,-2.8416,-2.9134,0.0,0.0,0.0,0.0,0.0,-3.3954,0.0,0.0,-3.1504,-2.9209,0.0,0.0,0.0,-2.5347,-2.505,-2.4699,-2.4908,0.0,0.0,0.0,0.0,0.0,0.0,0.0,0.0,0.0,0.0,0.0,0.0,0.0,0.0,0.0,0.0,0.0,0.0,0.0,0.0,0.0,0.0,0.0,0.0,0.0,0.0,0.0,-4.4354,-4.4344,-4.4274,-4.4255,-4.4226,-4.4135,-4.4135,-4.4104,-4.4005,-4.4104,-4.4135,-4.4153,-4.4177,-4.4255,-4.4255,-4.4255,-4.4285,-4.4285,-4.4285,-4.4576,-4.5054,-4.5592,-4.6171,-4.6806,-4.7049,-4.7548,-4.8171,-4.8396,-4.8884,-4.9427,0.0,0.0,0.0,0.0,0.0,0.0,0.0,0.0,0.0,0.0,0.0,0.0,0.0,0.0,0.0,-2.5913,-2.5546,-2.5122,-2.4666,-2.4317,-2.4114,-2.4077,-2.4075,-2.4074,-2.4036,0.0,0.0,0.0,0.0,0.0,0.0,0.0,0.0,0.0,0.0,0.0,0.0,0.0,0.0,0.0,-2.8076,0.0,0.0,-3.0312,-3.2682,0.0,0.0,0.0,-3.6252,-3.632,-3.3365,0.0,0.0,0.0,0.0,0.0,-2.5343,-2.4998,-2.5003,0.0,0.0,0.0,0.0,0.0,0.0,-3.1526,0.0,0.0,0.0,0.0,0.0,0.0,0.0,0.0,0.0,0.0,0.0,0.0,0.0,0.0,0.0,0.0,0.0,0.0,0.0,0.0,-4.4252,-4.4411,-4.4344,-4.4314,-4.4285,-4.4244,-4.4244,-4.4195,-4.4147,-4.4195,-4.4244,-4.4244,-4.4285,-4.4314,-4.4344,-4.4344,-4.4373,-4.4373,-4.4373,-4.4401,-4.4496,-4.4907,-4.5375,-4.591,-4.6604,-4.7215,-4.7781,-4.8476,-4.9058,-4.9509,0.0,0.0,0.0,-2.7587,-2.7537,0.0,0.0,0.0,0.0,0.0,0.0,0.0,0.0,0.0,0.0,0.0,-2.6279,-2.5743,-2.5651,-2.4894,-2.4395,-2.4339,-2.4265,-2.419,-2.4113,0.0,0.0,0.0,0.0,0.0,0.0,0.0,0.0,0.0,0.0,0.0,0.0,0.0,0.0,-2.6669,-2.7906,-2.8496,0.0,0.0,-3.5954,0.0,-3.9017,-3.91,-3.9122,-3.9151,-3.518,0.0,0.0,0.0,0.0,0.0,-2.5416,0.0,0.0,0.0,0.0,0.0,0.0,0.0,-3.0193,-3.0197,-3.1045,0.0,0.0,0.0,0.0,0.0,0.0,0.0,0.0,0.0,0.0,0.0,0.0,0.0,0.0,0.0,0.0,0.0,-4.3149,-4.3171,-4.3914,-4.4393,-4.4411,-4.4373,-4.4314,-4.4314,-4.4314,-4.4314,-4.4285,-4.4314,-4.4314,-4.4314,-4.4314,-4.4344,-4.4411,-4.4411,-4.444,-4.4515,-4.4515,-4.4515,-4.4515,-4.4608,-4.4646,-4.4796,-4.6279,-4.6974,-4.7312,-4.8795,-4.9415,-4.949,-2.9271,0.0,0.0,-2.9317,-2.93,-2.9528,0.0,0.0,0.0,0.0,0.0,0.0,0.0,0.0,0.0,0.0,-2.8019,-2.7239,-2.6593,-2.5743,-2.5244,-2.5244,-2.4616,-2.4247,-2.4173,-2.4171,0.0,0.0,0.0,0.0,0.0,0.0,0.0,0.0,0.0,0.0,0.0,0.0,0.0,-2.4649,-2.7446,0.0,-2.9269,-3.5337,-3.8106,-3.8738,-3.9016,-3.9082,-3.9152,0.0,-3.6889,-3.3398,0.0,0.0,0.0,0.0,0.0,0.0,0.0,0.0,0.0,0.0,0.0,0.0,-3.0195,-3.0204,-3.0399,0.0,0.0,0.0,0.0,0.0,0.0,0.0,0.0,0.0,0.0,0.0,0.0,0.0,0.0,0.0,0.0,0.0,-4.1744,-4.2379,-4.3156,-4.3901,-4.4513,-4.4515,-4.443,-4.4383,-4.4383,-4.4354,-4.4285,-4.4354,-4.4383,-4.4383,-4.443,-4.4458,-4.4487,-4.4487,-4.4487,-4.4515,-4.4515,-4.4515,-4.4552,-4.5209,-4.5472,-4.551,-4.5829,-4.6786,-4.8007,-4.8386,-4.8961,-4.9593,-2.9915,0.0,0.0,0.0,-3.0286,-3.0669,0.0,0.0,0.0,0.0,0.0,0.0,0.0,0.0,0.0,0.0,0.0,0.0,0.0,0.0,-2.6061,-2.5616,-2.5171,-2.4727,-2.4266,-2.421,-2.419,0.0,0.0,0.0,0.0,0.0,0.0,0.0,0.0,0.0,0.0,0.0,-2.4918,-2.6534,-2.8135,0.0,-3.1738,-3.6767,-3.8699,-3.8718,-3.9005,-3.9203,-3.9391,-3.9545,-3.7366,0.0,0.0,-3.2882,-3.2355,0.0,-3.1817,-3.0644,0.0,0.0,0.0,-2.9764,0.0,0.0,0.0,-3.019,0.0,0.0,0.0,0.0,0.0,0.0,0.0,0.0,0.0,0.0,0.0,0.0,0.0,0.0,0.0,0.0,0.0,0.0,-4.0906,-4.2102,-4.2567,-4.3163,-4.4018,-4.3995,-4.411,-4.4477,-4.4468,-4.4411,-4.4401,-4.4411,-4.444,-4.444,-4.4487,-4.4515,-4.4515,-4.4515,-4.4515,-4.4515,-4.4515,-4.4515,-4.4571,-4.5378,-4.5989,-4.6431,-4.6844,-4.7502,-4.8292,-4.8813,-4.9257,-4.9634,-3.0113,0.0,0.0,0.0,-3.089,-3.1409,-3.1663,0.0,0.0,0.0,0.0,0.0,0.0,0.0,0.0,0.0,0.0,0.0,0.0,0.0,0.0,-2.6451,-2.6061,-2.5468,-2.458,-2.4506,-2.4394,0.0,0.0,0.0,0.0,0.0,0.0,0.0,0.0,0.0,0.0,0.0,0.0,-2.9496,0.0,-3.1616,-3.5037,-3.7748,-3.8793,-3.8818,-3.9026,-3.9305,-3.9612,-3.9608,0.0,-3.5446,-3.4808,-3.4728,0.0,0.0,0.0,0.0,0.0,0.0,0.0,0.0,0.0,-3.0204,0.0,0.0,0.0,0.0,0.0,0.0,0.0,0.0,0.0,0.0,0.0,0.0,0.0,0.0,0.0,0.0,0.0,0.0,0.0,0.0,-4.0012,-4.1642,-4.175,-4.2184,-4.3202,-4.3378,-4.3721,-4.4361,-4.4476,-4.4542,-4.4542,-4.4542,-4.4542,-4.4542,-4.4542,-4.4542,-4.4542,-4.4542,-4.4542,-4.4542,-4.4542,-4.4542,-4.4599,-4.5604,-4.644,-4.7194,-4.7974,-4.8407,-4.8662,-4.9447,-4.9721,-4.9721,-3.0207,-3.0194,0.0,0.0,-3.1329,-3.1867,-3.3304,0.0,0.0,0.0,0.0,0.0,0.0,0.0,0.0,0.0,0.0,0.0,-3.1773,0.0,0.0,0.0,-2.7643,-2.6433,-2.556,-2.5468,-2.506,-2.4303,0.0,0.0,0.0,0.0,0.0,0.0,-2.3989,0.0,0.0,0.0,-2.8246,0.0,-3.1291,-3.4042,0.0,-3.8804,-3.9063,-3.905,-3.9082,-3.9312,-3.9612,0.0,-3.9339,-3.8517,0.0,-3.462,0.0,0.0,0.0,0.0,0.0,0.0,0.0,0.0,-3.0194,0.0,0.0,0.0,0.0,0.0,0.0,0.0,0.0,0.0,0.0,0.0,0.0,0.0,0.0,0.0,0.0,0.0,0.0,0.0,0.0,0.0,0.0,-4.006,-4.0129,-4.0764,-4.2351,-4.3114,-4.3535,-4.3611,-4.4308,-4.4685,-4.4685,-4.4685,-4.4685,-4.4685,-4.4685,-4.4685,-4.4685,-4.4685,-4.4685,-4.4685,-4.4685,-4.4685,-4.4799,-4.6364,-4.7089,-4.7277,-4.8003,-4.8823,-4.956,-4.9712,-4.9778,-4.9807,-3.026,-3.0266,0.0,0.0,0.0,-3.2603,0.0,0.0,0.0,0.0,0.0,0.0,0.0,0.0,0.0,0.0,0.0,-3.4496,0.0,0.0,0.0,0.0,0.0,0.0,-2.6488,-2.5931,-2.5468,-2.506,-2.4192,0.0,0.0,0.0,0.0,0.0,-2.5263,0.0,-2.6836,0.0,0.0,0.0,0.0,0.0,0.0,-3.8728,-3.9027,-3.9119,-3.9229,-3.9346,-3.9518,0.0,-3.9607,0.0,0.0,0.0,0.0,0.0,0.0,0.0,0.0,0.0,0.0,0.0,0.0,0.0,0.0,0.0,-3.0204,0.0,0.0,0.0,0.0,0.0,0.0,0.0,0.0,0.0,0.0,0.0,0.0,0.0,0.0,0.0,0.0,0.0,0.0,0.0,0.0,-3.9721,-4.0915,-4.1695,-4.2554,-4.3536,-4.3844,-4.424,-4.4712,-4.4712,-4.4712,-4.4712,-4.4712,-4.4712,-4.4712,-4.4712,-4.4712,-4.4712,-4.4712,-4.4712,-4.4844,-4.6504,-4.7211,-4.7397,-4.8664,-4.94,-4.9778,-4.9816,-4.9843,-4.9871,-3.0386,0.0,0.0,0.0,0.0,0.0,0.0,0.0,0.0,0.0,0.0,0.0,-3.8495,-3.8639,0.0,0.0,0.0,-3.6675,0.0,0.0,-3.3158,0.0,0.0,0.0,0.0,0.0,-2.6488,-2.5987,0.0,0.0,0.0,0.0,0.0,0.0,0.0,-2.658,-2.6969,0.0,0.0,-3.1768,-3.3499,-3.5546,-3.766,-3.8579,-3.8998,-3.9129,-3.9275,-3.9373,-3.9399,-3.9508,-3.9564,0.0,-3.9594,0.0,0.0,0.0,0.0,0.0,-3.6594,0.0,0.0,0.0,0.0,0.0,0.0,0.0,0.0,0.0,0.0,0.0,0.0,0.0,0.0,0.0,0.0,0.0,0.0,0.0,0.0,0.0,0.0,0.0,0.0,0.0,0.0,0.0,0.0,0.0,-3.9616,-4.0426,-4.1594,-4.3261,-4.3478,-4.3983,-4.4796,-4.4796,-4.477,-4.477,-4.4745,-4.4745,-4.4745,-4.4745,-4.4745,-4.4745,-4.4745,-4.4745,-4.4877,-4.6539,-4.7292,-4.7488,-4.9172,-4.9835,-4.9816,-4.9898,-4.9906,-4.9925,-3.0595,-3.0497,0.0,0.0,0.0,0.0,0.0,0.0,0.0,0.0,0.0,0.0,0.0,0.0,0.0,0.0,0.0,-3.9384,-3.8429,0.0,-3.544,0.0,0.0,-3.2044,0.0,0.0,0.0,-2.6954,0.0,0.0,0.0,0.0,0.0,0.0,0.0,-2.5965,-2.6814,-2.8535,-3.0202,-3.1839,-3.3506,-3.5669,-3.7968,0.0,-3.9045,-3.9101,-3.9183,0.0,0.0,-3.9395,-3.9489,0.0,0.0,0.0,0.0,0.0,0.0,0.0,0.0,0.0,0.0,-3.5378,0.0,0.0,0.0,0.0,-3.2386,0.0,0.0,0.0,0.0,0.0,0.0,0.0,0.0,0.0,0.0,0.0,0.0,0.0,0.0,0.0,0.0,0.0,0.0,0.0,0.0,0.0,-3.8746,-3.9659,-4.0895,-4.2591,-4.339,-4.4227,-4.5084,-4.5014,-4.4991,-4.4991,-4.4919,-4.4895,-4.4895,-4.4895,-4.4895,-4.4895,-4.4895,-4.4895,-4.5028,-4.6695,-4.7397,-4.7567,-4.9235,-4.9898,-4.9898,-4.9898,-4.9952,-5.0005,0.0,0.0,0.0,0.0,0.0,0.0,0.0,-3.784,0.0,0.0,0.0,0.0,0.0,0.0,-4.2455,0.0,0.0,-4.1241,-4.034,-3.9176,0.0,0.0,0.0,-3.3552,0.0,0.0,0.0,0.0,0.0,0.0,0.0,0.0,0.0,0.0,0.0,-2.7192,0.0,0.0,0.0,0.0,0.0,-3.7143,-3.7986,0.0,0.0,-3.9183,-3.9301,-3.9399,0.0,-3.9527,-3.9577,-3.9602,-3.9602,-3.9637,-3.9717,-3.9754,-3.9826,0.0,0.0,0.0,-3.7757,-3.6272,0.0,0.0,0.0,0.0,0.0,0.0,0.0,0.0,0.0,0.0,0.0,0.0,0.0,0.0,0.0,0.0,0.0,0.0,0.0,0.0,0.0,0.0,0.0,0.0,0.0,0.0,0.0,-3.8803,-4.0021,-4.1696,-4.2552,-4.339,-4.4227,-4.4775,-4.508,-4.508,-4.5038,-4.5014,-4.5014,-4.5014,-4.5014,-4.5014,-4.5014,-4.5014,-4.5147,-4.6839,-4.7523,-4.7694,-4.9366,-5.0031,-5.0031,-4.9978,-4.9978,-5.0012,-3.2416,0.0,0.0,0.0,0.0,0.0,0.0,0.0,0.0,0.0,-4.1762,0.0,-4.3577,0.0,-4.41,0.0,-4.3805,-4.319,-4.2591,-4.1442,0.0,-3.8701,-3.7279,0.0,0.0,0.0,0.0,0.0,0.0,-2.8147,0.0,0.0,0.0,0.0,0.0,0.0,0.0,0.0,-3.2753,0.0,0.0,-3.8159,0.0,0.0,-3.9202,-3.921,0.0,-3.9469,-3.9495,-3.9596,-3.9602,-3.9602,-3.9645,-3.9656,-3.9712,-3.9735,-3.9804,-3.9797,-3.9288,-3.8991,0.0,-3.749,-3.6648,0.0,-3.5076,0.0,0.0,0.0,0.0,0.0,0.0,0.0,0.0,0.0,0.0,0.0,0.0,-2.7915,0.0,0.0,0.0,0.0,0.0,0.0,0.0,0.0,-3.4186,0.0,0.0,0.0,-3.9242,-4.0901,-4.2065,-4.3056,-4.3874,-4.4709,-4.5148,-4.5148,-4.5125,-4.5103,-4.5103,-4.5103,-4.5103,-4.5103,-4.5103,-4.5103,-4.5236,-4.691,-4.7596,-4.7767,-4.9461,-5.0108,-5.0108,-5.0057,-5.0057,-5.0089,0.0,0.0,0.0,0.0,-3.676,0.0,0.0,0.0,-4.0873,0.0,-4.3195,-4.4498,-4.538,-4.6137,-4.687,-4.7632,-4.6195,0.0,-4.5147,-4.3483,0.0,0.0,-4.0363,-3.9071,-3.7367,0.0,0.0,0.0,0.0,0.0,0.0,0.0,0.0,0.0,-2.7848,0.0,-2.963,-3.1154,-3.285,-3.4745,-3.7187,-3.867,-3.9391,-3.9418,0.0,-3.9256,-3.9425,-3.9495,-3.952,-3.9596,-3.9602,-3.962,-3.9669,-3.9703,-3.9712,-3.9781,-3.9867,-3.9911,-3.9975,-3.9448,-3.8861,-3.888,0.0,0.0,0.0,0.0,-3.6124,0.0,0.0,0.0,0.0,0.0,0.0,0.0,0.0,0.0,0.0,0.0,0.0,0.0,0.0,0.0,0.0,0.0,-3.1558,-3.1596,-3.3111,-3.4395,0.0,0.0,-3.8635,-4.0192,-4.1857,-4.3139,-4.394,-4.4739,-4.5175,-4.5213,-4.5148,-4.5125,-4.5125,-4.5125,-4.5125,-4.5125,-4.5125,-4.5122,-4.5293,-4.693,-4.7634,-4.7824,-4.9461,-5.0108,-5.0108,-5.0108,-5.0158,-5.0231,-3.5766,-3.7783,-3.9887,0.0,-3.9843,-3.8994,0.0,0.0,0.0,0.0,-4.4515,-4.5438,-4.6282,-4.7063,-4.7614,-4.7824,-4.7354,0.0,0.0,0.0,0.0,-4.3995,-4.1977,-4.0318,-3.9233,-3.809,0.0,-3.4325,0.0,0.0,-2.9551,0.0,0.0,0.0,0.0,0.0,-3.1355,-3.1766,-3.3612,-3.6416,-3.8308,-3.9186,0.0,0.0,-3.9469,-3.9425,-3.9495,-3.952,-3.9596,-3.9577,-3.9645,-3.9669,-3.9693,-3.9727,-3.9781,-3.9804,-3.9867,-3.9911,-3.9975,-3.9886,-3.9622,-3.9033,-3.8784,-3.8438,0.0,0.0,0.0,0.0,0.0,0.0,0.0,0.0,0.0,0.0,0.0,0.0,0.0,0.0,0.0,0.0,0.0,0.0,0.0,0.0,-3.1041,-3.1621,-3.2628,-3.3832,0.0,0.0,0.0,-3.9382,-4.1088,-4.2372,-4.3177,-4.3981,-4.4707,-4.5338,-4.5275,-4.5254,-4.5254,-4.5254,-4.5254,-4.5254,-4.5254,-4.5598,-4.6228,-4.7315,-4.8136,-4.8823,-4.9854,-5.0278,-5.0321,-5.0255,-5.0278,-5.0348,-3.6988,0.0,0.0,-4.3094,0.0,0.0,-4.1884,0.0,0.0,-4.4809,-4.5932,0.0,-4.776,-4.8218,-4.8618,-4.9001,-4.8589,0.0,0.0,0.0,0.0,-4.5627,-4.3874,-4.2477,-4.1571,-3.9958,0.0,-3.6349,0.0,0.0,-3.0696,0.0,0.0,0.0,0.0,-3.0035,0.0,-3.3571,-3.5254,-3.7087,-3.8796,0.0,0.0,-3.952,-3.9546,-3.9546,-3.9546,-3.9571,-3.9602,-3.9602,-3.9645,-3.9693,-3.9698,-3.9731,-3.9804,-3.9826,-3.9889,-3.9954,-4.0036,-4.0098,-4.0042,-3.9624,-3.9547,-3.9336,-3.8476,-3.832,-3.8276,0.0,0.0,0.0,0.0,0.0,0.0,0.0,0.0,0.0,0.0,0.0,0.0,0.0,0.0,0.0,0.0,0.0,-3.0692,-3.1141,-3.2266,-3.3371,0.0,0.0,0.0,-3.8585,-4.0274,-4.1735,-4.2889,-4.3714,-4.4576,-4.54,-4.5341,-4.5339,-4.5338,-4.5338,-4.5317,-4.5297,-4.5297,-4.5755,-4.6577,-4.7458,-4.834,-4.9182,-5.0046,-5.0393,-5.0457,-5.0416,-5.0435,-5.0457,0.0,0.0,0.0,0.0,0.0,0.0,0.0,-4.508,0.0,-4.6034,0.0,-4.8548,-4.9259,-4.9353,-4.9697,-5.0464,0.0,-4.9283,-4.9274,-4.8407,-4.7556,-4.6782,-4.5811,-4.4851,-4.39,-4.1487,0.0,0.0,0.0,0.0,0.0,0.0,0.0,0.0,0.0,0.0,0.0,-3.5604,-3.7009,0.0,-3.8901,-3.9602,-3.9602,-3.9602,-3.9602,-3.9602,-3.962,-3.962,-3.9602,-3.962,-3.9669,-3.9698,-3.9708,-3.9758,-3.9826,-3.9889,-3.9954,-4.0017,-4.0077,-4.0157,-4.0234,-4.0272,-4.031,-4.01,-3.9336,-3.9237,-3.9061,-3.8367,-3.8147,-3.7867,0.0,0.0,0.0,0.0,0.0,0.0,0.0,0.0,0.0,0.0,0.0,0.0,0.0,0.0,0.0,-3.05,0.0,0.0,0.0,0.0,0.0,-3.7983,-3.9527,0.0,-4.2905,0.0,-4.4518,-4.5419,-4.54,-4.54,-4.5399,-4.5399,-4.5379,-4.5317,-4.5432,-4.5929,-4.677,-4.7695,-4.8558,-4.9382,-5.0193,-5.0579,-5.0675,-5.0757,-5.0833,-5.0849,0.0,0.0,0.0,0.0,0.0,-4.8851,-4.7752,-4.7178,-4.7113,-4.7754,-4.8656,0.0,-4.9451,-4.999,-5.041,-5.0563,-5.0387,0.0,0.0,0.0,0.0,-4.8636,-4.7102,-4.5814,-4.489,-4.3019,-4.0921,0.0,0.0,0.0,0.0,0.0,0.0,0.0,0.0,0.0,-3.2369,-3.5735,0.0,-3.723,-3.892,-3.9602,-3.9602,-3.9602,-3.9602,-3.962,-3.9669,-3.9645,-3.962,-3.9669,-3.9698,-3.9708,-3.9758,-3.9826,-3.9889,-3.9889,-3.9954,-4.0017,-4.0077,-4.0157,-4.0234,-4.0272,-4.031,-4.0272,-4.0119,-4.0117,-4.013,-3.9976,-3.9484,-3.9008,-3.8873,0.0,0.0,0.0,0.0,0.0,0.0,0.0,0.0,0.0,0.0,0.0,0.0,0.0,0.0,0.0,0.0,0.0,0.0,0.0,0.0,0.0,0.0,0.0,0.0,0.0,-4.396,-4.5495,-4.5419,-4.54,-4.54,-4.54,-4.5381,-4.5419,-4.6147,-4.6952,-4.7795,-4.864,-4.9484,-5.0289,-5.0504,-5.0985,-5.1582,-5.1722,-5.2184,-5.2704,0.0,0.0,0.0,0.0,0.0,0.0,0.0,-5.0187,0.0,-4.9119,-5.0074,-5.085,-5.0834,-5.1549,-5.1991,-5.1991,-5.191,-5.1655,-5.1195,-5.0749,-5.0071,-4.9124,-4.8299,0.0,-4.5852,-4.4554,-4.2645,-4.0112,0.0,0.0,0.0,0.0,0.0,0.0,0.0,-3.2392,0.0,0.0,0.0,-3.7924,-3.9147,-3.9656,-3.9656,-3.9656,-3.9656,-3.9656,-3.9679,-3.9679,-3.9656,-3.9679,-3.9708,-3.9758,-3.9781,-3.9867,-3.9889,-3.9889,-3.9954,-4.0057,-4.0077,-4.0176,-4.0253,-4.0291,-4.031,-4.0291,-4.0309,-4.0363,-4.0415,-4.0449,-4.0172,-3.9811,-3.9432,-3.8015,0.0,0.0,0.0,0.0,0.0,0.0,0.0,0.0,0.0,0.0,0.0,0.0,0.0,0.0,0.0,0.0,0.0,0.0,0.0,0.0,0.0,0.0,0.0,0.0,0.0,-4.4878,-4.5302,-4.5495,-4.5438,-4.5438,-4.5438,-4.5438,-4.632,-4.7183,-4.8084,-4.9391,-5.0179,-5.0662,-5.1144,-5.1548,-5.1972,-5.2531,-5.3244,-5.3841,0.0,-4.8769,0.0,0.0,-5.2539,0.0,0.0,-5.277,-5.287,-5.0735,-5.1592,-5.2387,-5.2373,-5.2954,-5.3321,-5.3321,-5.3223,-5.2854,-5.2162,-5.1926,-5.1152,-4.9748,-4.9324,-4.84,-4.6838,-4.5748,-4.3971,0.0,0.0,0.0,0.0,0.0,0.0,0.0,0.0,0.0,0.0,0.0,-3.792,-3.8561,-3.9392,-3.9689,-3.9689,-3.9689,-3.9689,-3.9689,-3.9712,-3.9712,-3.9712,-3.9735,-3.9758,-3.9804,-3.9826,-3.9867,-3.9911,-3.9911,-4.0015,-4.0098,-4.0117,-4.0215,-4.031,-4.031,-4.031,-4.0291,-4.0289,-4.0362,-4.0415,-4.0485,-4.0495,-4.0269,-3.9538,-3.8852,0.0,0.0,0.0,0.0,0.0,0.0,0.0,0.0,0.0,0.0,0.0,0.0,0.0,0.0,0.0,0.0,0.0,0.0,0.0,0.0,0.0,-3.9399,-4.1909,0.0,-4.3535,0.0,-4.5199,-4.5586,-4.5513,-4.5513,-4.5495,-4.5496,-4.6551,-4.7607,-4.8682,-5.0086,-5.0779,-5.1068,-5.1741,-5.2242,-5.2627,-5.3397,-5.4187,-5.4805,0.0,0.0,0.0,0.0,0.0,0.0,0.0,-5.3586,-5.3591,-5.3271,-5.3301,-5.3346,-5.3275,-5.3338,-5.3397,-5.3397,-5.3321,-5.3244,-5.3147,-5.2317,-5.1736,-5.1542,-5.0023,-4.8754,-4.779,-4.6141,-4.3996,0.0,0.0,0.0,0.0,0.0,0.0,0.0,0.0,0.0,0.0,-3.7478,-3.8493,-3.8561,-3.9392,-3.9689,-3.9689,-3.9689,-3.9689,-3.9712,-3.9781,-3.9781,-3.9804,-3.9867,-3.9845,-3.9804,-3.9867,-3.9889,-3.9911,-3.9975,-4.0036,-4.0117,-4.0176,-4.0253,-4.031,-4.031,-4.031,-4.0291,-4.0289,-4.0362,-4.0415,-4.0485,-4.0495,-4.0269,-3.9538,-3.932,-3.8981,0.0,0.0,0.0,0.0,0.0,0.0,0.0,0.0,0.0,0.0,0.0,0.0,0.0,0.0,0.0,0.0,0.0,0.0,-3.809,0.0,-3.9425,-4.1961,-4.2782,0.0,-4.4405,-4.5269,-4.5657,-4.5586,-4.5586,-4.5586,-4.5682,-4.726,-4.8913,-5.0451,-5.0699,-5.1238,-5.1989,-5.2066,-5.3011,-5.4361,-5.4513,-5.513,-5.5864,0.0,0.0,0.0,0.0,0.0,0.0,0.0,-5.4917,-5.523,-5.5181,-5.4691,-5.4316,-5.4249,-5.4663,-5.4956,-5.4957,-5.4901,-5.4632,-5.4111,-5.3667,-5.2953,-5.1913,-5.1141,-5.012,-4.8715,-4.7526,-4.5896,0.0,0.0,0.0,0.0,0.0,0.0,0.0,0.0,-3.6806,-3.7335,-3.8814,-3.97,-4.0185,-4.1018,-4.1014,-4.0598,-4.0598,-4.0276,-3.9823,-3.9867,-3.9867,-3.9848,-3.9889,-3.9889,-3.9848,-3.9889,-3.9889,-3.9911,-3.9975,-4.0057,-4.0098,-4.0176,-4.0253,-4.031,-4.031,-4.031,-4.031,-4.0344,-4.0379,-4.0413,-4.0495,-4.0508,-4.0423,-4.0169,-4.0125,-3.9882,0.0,0.0,0.0,0.0,0.0,0.0,0.0,0.0,0.0,0.0,0.0,0.0,0.0,0.0,0.0,0.0,0.0,0.0,-3.8102,0.0,-3.9168,-4.1202,-4.2541,-4.3361,-4.3701,-4.5047,-4.5687,-4.5651,-4.5651,-4.623,-4.727,-4.8446,-4.9639,-5.0813,-5.1352,-5.1776,-5.2199,-5.324,-5.4069,-5.4725,-5.5335,-5.5758,-5.6068,-5.4346,0.0,-5.6235,0.0,-5.558,-5.5862,-5.5792,-5.652,-5.706,-5.6997,-5.6232,-5.5569,-5.5258,-5.5714,-5.6031,-5.6016,-5.5981,-5.5673,-5.5036,-5.4709,-5.3995,-5.2743,-5.2164,0.0,-4.9661,-4.8815,-4.7413,-4.5438,-4.358,0.0,0.0,0.0,0.0,0.0,-3.8614,-3.9032,-3.9638,-4.0416,-4.1079,-4.162,-4.2208,-4.2094,-4.1541,-4.1294,-4.0821,-4.0252,-3.9984,-3.9889,-3.9889,-3.9889,-3.9889,-3.9889,-3.9889,-3.9911,-3.9933,-3.9996,-4.0077,-4.0157,-4.0196,-4.0253,-4.031,-4.031,-4.031,-4.031,-4.0344,-4.0398,-4.049,-4.0819,-4.0681,-4.0596,-4.0926,-4.0781,-4.0442,-3.9934,0.0,0.0,0.0,0.0,0.0,0.0,-3.2938,-3.2251,-3.1419,0.0,0.0,0.0,0.0,0.0,0.0,0.0,0.0,0.0,0.0,0.0,0.0,-4.2394,-4.3231,-4.3207,-4.492,-4.5715,-4.57,-4.597,-4.7012,-4.869,-4.9266,-5.0154,-5.1233,-5.187,-5.2428,-5.3024,-5.4257,-5.4892,-5.5219,-5.5885,-5.6133,-5.6133,-5.6212,-5.6524,-5.6498,-5.6476,-5.7143,-5.7663,-5.7683,-5.8353,-5.8865,-5.888,-5.811,-5.7217,-5.6291,-5.6114,-5.6098,-5.6098,-5.6033,-5.5999,-5.598,-5.5113,-5.4593,0.0,0.0,-5.1588,-5.0702,-4.9759,-4.8029,-4.5496,0.0,0.0,-4.166,0.0,-4.0233,-4.0196,-4.0997,-4.1377,-4.1431,-4.2229,-4.255,-4.2484,-4.2484,-4.2439,-4.2299,-4.1503,-4.12,-4.1086,-4.0214,-3.9889,-3.9889,-3.9889,-3.9889,-3.9889,-3.9889,-3.9954,-3.9996,-4.0077,-4.0157,-4.0215,-4.0272,-4.031,-4.031,-4.031,-4.031,-4.0291,-4.0289,-4.0362,-4.0663,-4.1588,-4.1104,-4.0773,-4.1705,-4.1176,-4.0621,-4.0668,0.0,0.0,0.0,0.0,0.0,0.0,-3.4369,-3.4021,-3.314,0.0,0.0,0.0,0.0,0.0,0.0,0.0,0.0,-3.8121,-3.8199,0.0,-4.0771,-4.2454,-4.3258,-4.3231,-4.4969,-4.5765,-4.5719,-4.6587,-4.7899,-4.9498,-4.957,-5.0532,-5.2097,-5.2166,-5.322,-5.4762,-5.4781,-5.5374,-5.618,-5.6199,-5.6199,-5.6199,-5.6484,-5.7166,-5.759,-5.7414,-5.8044,-5.8585,-5.8578,-5.8793,-5.8957,-5.8915,-5.8651,-5.8355,-5.8072,-5.6917,-5.6175,0.0,-5.6101,-5.6068,0.0,-5.5747,-5.5285,-5.4687,-5.3531,-5.251,-5.1663,-5.0199,-4.9008,-4.8164,0.0,0.0,0.0,-4.2218,-4.2029,-4.1992,-4.224,-4.2335,-4.233,-4.315,-4.3469,-4.3501,-4.4053,-4.3916,-4.3403,-4.3156,-4.2294,-4.1228,-4.0962,-4.0426,-3.9889,-3.9889,-3.9889,-3.9889,-3.9889,-3.9954,-3.9996,-4.0077,-4.0157,-4.0215,-4.0272,-4.031,-4.031,-4.031,-4.031,-4.0291,-4.0289,-4.0379,-4.0543,-4.0844,-4.0684,-4.06,-4.0954,-4.0795,-4.0631,-4.0687,-3.9998,0.0,0.0,0.0,0.0,0.0,0.0,-3.406,0.0,-3.3102,0.0,0.0,0.0,0.0,0.0,0.0,0.0,0.0,-3.8779,0.0,-4.1603,-4.2789,-4.3621,-4.4169,-4.5318,-4.6164,-4.677,-4.8241,-4.919,-4.9732,-5.0366,-5.1237,-5.2283,-5.2898,-5.3824,-5.4924,-5.5525,-5.5932,-5.6199,-5.619,-5.6204,-5.6204,-5.7143,-5.769,-5.8094,-5.8253,-5.8962,-5.9513,-5.9482,-5.9776,-5.9952,-5.9891,-5.9619,-5.9413,-5.9379,-5.8085,0.0,-5.6713,-5.6629,-5.6459,-5.6153,-5.6104,-5.5818,-5.5241,-5.4355,-5.3451,-5.2622,0.0,0.0,-4.9431,-4.7524,-4.5817,-4.44,-4.4383,-4.4154,-4.379,-4.379,-4.3732,-4.3749,-4.4244,-4.4431,-4.4443,-4.4938,-4.4821,-4.4322,-4.4018,-4.3216,-4.2205,-4.1537,-4.0924,-4.0369,-4.0025,-4.0116,-4.0404,-4.0404,-4.0656,-4.0855,-4.0267,-4.0157,-4.0215,-4.0272,-4.031,-4.031,-4.031,-4.031,-4.0291,-4.0289,-4.0379,-4.0562,-4.0886,-4.0707,-4.062,-4.0981,-4.0804,-4.0603,-4.0654,-4.0223,-3.9496,-3.8361,0.0,0.0,0.0,0.0,0.0,0.0,-3.436,0.0,0.0,0.0,0.0,0.0,0.0,0.0,-3.8678,-3.924,0.0,-4.2008,-4.2942,-4.3826,-4.4647,-4.5835,-4.6836,-4.7747,-4.9143,-4.9976,-5.0344,-5.1178,-5.2012,-5.2865,-5.3737,-5.4604,-5.5453,-5.5996,-5.6223,-5.6251,-5.6226,-5.6253,-5.6285,-5.8207,-5.8187,0.0,0.0,-5.9904,0.0,-6.0403,-6.1077,-6.1586,-6.1519,-6.0857,-6.036,-6.0308,-5.9565,-5.87,-5.7779,0.0,0.0,0.0,-5.6199,-5.6164,-5.6098,-5.5272,-5.4407,-5.3524,-5.2584,-5.1254,-4.9517,-4.8694,-4.785,-4.6989,-4.6934,-4.6398,-4.5496,-4.5515,-4.5457,-4.5399,-4.5398,-4.5317,-4.5213,-4.5213,-4.517,-4.503,-4.4287,-4.3964,-4.3675,-4.2072,-4.1442,-4.1269,-4.0369,-4.0631,-4.1294,-4.1294,-4.1895,-4.2286,-4.0726,-4.029,-4.0311,-4.0368,-4.0348,-4.031,-4.031,-4.031,-4.0291,-4.0308,-4.0362,-4.0626,-4.1426,-4.1014,-4.0739,-4.1566,-4.1097,-4.0603,-4.0607,-4.0654,-4.0121,-3.8516,0.0,0.0,0.0,0.0,0.0,0.0,-3.6609,-3.7084,0.0,0.0,0.0,0.0,0.0,-3.7986,-3.9557,-3.9712,-4.0546,-4.2175,-4.3067,-4.3978,-4.4909,-4.6538,-4.7759,-4.8632,-4.9505,-5.0338,-5.1153,-5.1967,-5.2801,-5.3659,-5.4546,-5.5428,-5.6213,-5.6213,-5.6253,-5.6302,-5.6302,-5.6345,-5.6406,0.0,0.0,-5.9846,-6.0056,-6.0807,-6.1387,-6.1374,-6.1497,-6.16,-6.1567,-6.1411,-6.1276,-6.1197,-6.1011,-6.0522,-5.9631,-5.8292,-5.7097,-5.6262,-5.6194,-5.6199,-5.6184,-5.535,-5.4773,-5.4545,-5.3042,-5.137,-4.957,-4.9324,-4.8769,-4.7979,-4.7908,-4.7393,-4.6549,-4.6493,-4.6071,-4.54,-4.5399,-4.5379,-4.5338,-4.5297,-4.5275,-4.5216,-4.5025,-4.4508,-4.3836,-4.3435,-4.2859,-4.2246,-4.2055,-4.2091,-4.2262,-4.2262,-4.2417,-4.2514,-4.2115,-4.1626,-4.1189,-4.1208,-4.0769,-4.031,-4.031,-4.031,-4.031,-4.031,-4.0345,-4.0473,-4.0682,-4.0595,-4.0546,-4.0758,-4.0658,-4.0534,-4.0588,-4.0621,-4.0301,-3.934,-3.9185,0.0,0.0,-3.7683,-3.7683,-3.7675,-3.7869,-3.7996,0.0,0.0,0.0,0.0,-3.9781,-3.9908,-3.9615,-4.0837,-4.202,-4.3075,-4.4012,-4.5249,-4.6766,-4.7845,-4.8798,-4.9683,-5.0487,-5.0981,-5.1214,-5.2025,-5.2867,-5.3754,-5.4621,-5.55,-5.6278,-5.6333,-5.6364,-5.6375,-5.6375,-5.6386,-5.6406,-6.0194,-6.0304,-6.0529,-6.092,-6.1383,-6.1705,-6.1699,-6.1673,-6.1621,-6.16,-6.16,-6.1584,-6.1549,-6.1559,-6.1032,-5.9755,-5.8725,-5.7774,-5.69,-5.6505,-5.6284,-5.6257,-5.5791,-5.535,-5.49,-5.3587,-5.2046,-5.0298,-5.0198,-4.974,-4.8929,-4.8844,-4.8347,-4.7523,-4.7046,-4.655,-4.6052,-4.563,-4.5419,-4.54,-4.5359,-4.5338,-4.5338,-4.5317,-4.497,-4.4472,-4.405,-4.3588,-4.3128,-4.2726,-4.2857,-4.318,-4.318,-4.3469,-4.3795,-4.3795,-4.2961,-4.2067,-4.2087,-4.1781,-4.1361,-4.096,-4.0578,-4.0291,-4.0291,-4.0363,-4.0415,-4.0432,-4.046,-4.0504,-4.0539,-4.0558,-4.0569,-4.0621,-4.0654,-4.0391,-3.9603,-3.9499,0.0,-3.8401,-3.8296,-3.8316,-3.8346,-3.9073,-3.9539,-3.9528,0.0,0.0,-4.139,-4.1902,-4.1777,-4.0849,-4.2092,-4.3199,-4.4035,-4.5347,-4.6464,-4.7416,-4.8681,-4.9537,-5.0033,-5.0831,-5.1424,-5.1832,-5.2666,-5.3522,-5.4416,-5.5283,-5.5917,-5.6345,-5.6386,-5.6397,-5.6407,-5.6407,-5.6417,-5.6446,-6.0737,-6.0591,-6.0831,-6.1568,-6.1701,-6.1696,-6.1705,-6.1705,-6.1679,-6.1621,-6.1621,-6.1615,-6.1612,-6.1595,-6.0964,-5.9348,-5.9036,-5.8509,-5.7495,-5.6775,-5.6364,-5.6317,-5.6324,-5.5929,-5.5137,-5.4134,-5.2859,-5.1275,-5.1048,-5.0573,-4.9911,-4.976,-4.9283,-4.8491,-4.7653,-4.7157,-4.6872,-4.605,-4.561,-4.5419,-4.54,-4.5399,-4.5399,-4.5338,-4.5317,-4.5203,-4.4416,-4.4128,-4.4013,-4.3285,-4.3512,-4.4141,-4.4141,-4.462,-4.5235,-4.5235,-4.4223,-4.3099,-4.3004,-4.2889,-4.2622,-4.1877,-4.1189,-4.0691,-4.069,-4.0743,-4.0816,-4.0866,-4.0896,-4.0866,-4.08,-4.0815,-4.0771,-4.072,-4.07,-4.0456,-3.9793,0.0,-3.9506,-3.8956,-3.8889,-3.8975,-3.9168,-4.0516,-4.1396,-4.1393,-4.2763,-4.36,0.0,-4.372,-4.3467,-4.2731,-4.3405,-4.4261,-4.5196,-4.6675,-4.7551,-4.7832,-4.9311,-5.009,-5.0217,-5.0889,-5.1687,-5.2563,-5.3429,-5.4285,-5.516,-5.6046,-5.6397,-5.6407,-5.6407,-5.6427,-5.6426,-5.6426,-5.6464,-5.65,-6.1523,-6.1503,-6.154,-6.1687,-6.1694,-6.1701,-6.1696,-6.1696,-6.1691,-6.1699,-6.1673,-6.1667,-6.1615,-6.1607,-6.1217,-6.0274,-5.9494,-5.8371,-5.6708,-5.6464,-5.6406,-5.6375,-5.6375,-5.6317,-5.6169,-5.4536,-5.3165,-5.2109,-5.1416,-5.1009,-5.0893,-5.0747,-5.0252,-4.9459,-4.9206,-4.8323,-4.6976,-4.6775,-4.6259,-4.5568,-4.5457,-4.54,-4.54,-4.5381,-4.5381,-4.5362,-4.5227,-4.517,-4.515,-4.5016,-4.5055,-4.517,-4.517,-4.5265,-4.5361,-4.5361,-4.517,-4.4825,-4.4037,-4.3311,-4.2776,-4.2717,-4.2583,-4.2487,-4.2505,-4.256,-4.2631,-4.2681,-4.2694,-4.2476,-4.1808,-4.1707,-4.147,-4.0817,-4.0713,-4.0667,-4.0621,0.0,-4.0907,-4.1519,-4.1586,-4.1896,-4.2719,-4.3035,-4.3199,-4.3206,-4.3448,-4.3604,-4.3604,-4.4298,-4.464,-4.4499,-4.4631,-4.5475,-4.7067,-4.734,-4.823,-4.9685,-4.9958,-5.044,-5.1101,-5.1222,-5.1771,-5.263,-5.3458,-5.4285,-5.516,-5.6047,-5.6398,-5.6416,-5.6453,-5.6476,-5.6471,-5.6471,-5.6491,-5.6498,-6.1699,-6.1699,-6.1699,-6.1698,-6.1694,-6.1704,-6.1705,-6.1701,-6.1696,-6.1691,-6.1691,-6.1685,-6.1654,-6.1218,-6.0614,-5.9762,-5.8903,-5.7856,-5.655,-5.6455,-5.6437,-5.6398,-5.6388,-5.6173,-5.5705,-5.4419,-5.3316,-5.2418,-5.1528,-5.1095,-5.1095,-5.1048,-5.0811,-5.0424,-4.9857,-4.9173,-4.8385,-4.7433,-4.6747,-4.629,-4.574,-4.5512,-4.5495,-4.5476,-4.5438,-4.54,-4.54,-4.54,-4.54,-4.54,-4.54,-4.5419,-4.5438,-4.5438,-4.5457,-4.5495,-4.5476,-4.5323,-4.4863,-4.4173,-4.3541,-4.3598,-4.3271,-4.2961,-4.2996,-4.303,-4.3079,-4.3131,-4.3158,-4.3048,-4.2709,-4.264,-4.2531,-4.2214,-4.2141,0.0,0.0,-4.2277,-4.2461,-4.2887,-4.2941,-4.3128,-4.3564,-4.402,-4.4306,-4.4306,-4.4741,-4.5,-4.5,-4.5421,-4.5874,-4.6348,-4.6312,-4.6696,-4.7482,-4.8437,-4.9301,-5.0107,-5.0575,-5.0979,-5.1362,-5.1843,-5.2519,-5.335,-5.4192,-5.505,-5.5887,-5.6285,-5.6449,-5.6457,-5.6484,-5.6498,-5.6504,-5.6504,-5.6504,-5.6504,-6.1699,-6.1699,-6.1699,-6.1699,-6.1699,-6.1698,-6.1701,-6.169,-6.1709,-6.1709,-6.1701,-6.1618,-6.1412,-6.0807,-5.9962,-5.8897,-5.8194,-5.7427,-5.6569,-5.6498,-5.6476,-5.6435,-5.6426,-5.6105,-5.5424,-5.4353,-5.3478,-5.2806,-5.1675,-5.1128,-5.1128,-5.1127,-5.1108,-5.1069,-5.035,-4.9916,-4.9621,-4.8295,-4.7457,-4.6982,-4.6259,-4.5825,-4.5637,-4.5566,-4.5512,-4.5475,-4.5475,-4.5475,-4.5475,-4.5475,-4.5475,-4.5475,-4.5531,-4.5549,-4.5566,-4.562,-4.5566,-4.5494,-4.5438,-4.4996,-4.4536,-4.4554,-4.409,-4.3643,-4.3676,-4.3724,-4.3751,-4.3801,-4.3824,-4.3794,-4.3641,-4.364,-4.3567,-4.3447,0.0,0.0,0.0,-4.3519,-4.3622,-4.3872,-4.3909,-4.4066,-4.4475,-4.5103,-4.5587,-4.5782,-4.6445,-4.6835,-4.6821,-4.6884,-4.7201,-4.7888,-4.786,-4.7913,-4.8108,-4.9435,-5.0196,-5.0411,-5.1074,-5.1503,-5.1718,-5.2381,-5.3253,-5.4242,-5.4905,-5.5685,-5.6504,-5.6504,-5.6504,-5.6511,-5.6511,-5.6511,-5.6517,-5.6517,-5.6517,-5.6517,-6.1699,-6.1699,-6.1699,-6.1699,-6.1699,-6.1699,-6.1699,-6.1694,-6.1707,-6.1707,-6.1694,-6.1388,-6.0583,-6.0447,-5.9724,-5.805,-5.7836,-5.7436,-5.6567,-5.6503,-5.6497,-5.6498,-5.6496,-5.6433,-5.631,-5.4655,-5.377,-5.3701,-5.2028,-5.1181,-5.1181,-5.12,-5.1167,-5.1093,-5.103,-5.0546,-4.9769,-4.9586,-4.8623,-4.7177,-4.7047,-4.6515,-4.5785,-4.5715,-4.5684,-4.5684,-4.5684,-4.5684,-4.5684,-4.5684,-4.5684,-4.5684,-4.5665,-4.5684,-4.57,-4.57,-4.5735,-4.575,-4.5632,-4.5541,-4.55,-4.5568,-4.553,-4.5507,-4.5507,-4.5557,-4.5602,-4.5612,-4.5653,-4.548,-4.473,-4.461,-4.4342,-4.3607,0.0,0.0,-4.3575,-4.3596,-4.3897,-4.4715,-4.4805,-4.5445,-4.7059,-4.7265,-4.7645,-4.8445,-4.8634,-4.8708,-4.8701,-4.8701,-4.874,-4.8799,-4.8808,-4.915,-4.9891,-5.0048,-5.0516,-5.1293,-5.1371,-5.182,-5.26,-5.2678,-5.3582,-5.512,-5.5178,-5.5685,-5.6504,-5.6504,-5.6491,-5.6503,-5.6503,-5.6533,-5.6582,-5.6582,-5.6582,-5.6582,-6.1699,-6.1699,-6.1699,-6.1699,-6.1699,-6.1699,-6.1699,-6.1698,-6.1698,-6.1698,-6.1227,-6.0772,-6.0432,-5.9472,-5.8574,-5.7913,-5.7375,-5.6914,-5.6577,-5.6558,-5.6548,-5.6504,-5.6498,-5.6484,-5.6449,-5.4761,-5.3857,-5.3869,-5.213,-5.1256,-5.1256,-5.1211,-5.119,-5.1161,-5.1169,-5.0973,-5.0639,-5.0064,-4.9438,-4.8748,-4.8199,-4.7442,-4.6665,-4.6631,-4.6269,-4.5757,-4.5757,-4.5757,-4.5757,-4.5757,-4.5757,-4.5771,-4.5805,-4.6206,-4.6748,-4.7279,-4.7448,-4.7461,-4.7414,-4.6578,-4.5723,-4.5757,-4.5805,-4.5819,-4.5819,-4.5847,-4.5854,-4.5867,-4.5917,-4.5875,-4.5556,-4.5541,-4.5473,-4.5152,0.0,-4.5173,-4.52,-4.5683,-4.6131,-4.6462,-4.6986,-4.7582,-4.8245,-4.8337,-4.8505,-4.8847,-4.8883,-4.8892,-4.8905,-4.9375,-4.9668,-4.9701,-5.0186,-5.0339,-5.0105,-5.063,-5.1079,-5.1411,-5.1958,-5.2387,-5.2739,-5.3819,-5.4669,-5.5284,-5.5831,-5.626,-5.6553,-5.6553,-5.6553,-5.6558,-5.6558,-5.6582,-5.6606,-5.6602,-5.6605,-5.6605,-6.1698,-6.1698,-6.1698,-6.1698,-6.1698,-6.1698,-6.1698,-6.1699,-6.1601,-6.1328,-6.0762,-6.0195,-5.9664,-5.8589,-5.7788,-5.7514,-5.6953,-5.661,-5.6595,-5.661,-5.6577,-5.6491,-5.6491,-5.6511,-5.6504,-5.4788,-5.3891,-5.3891,-5.2168,-5.1335,-5.1335,-5.1292,-5.1248,-5.1228,-5.1239,-5.122,-5.1201,-5.0568,-5.0139,-4.9804,-4.919,-4.8429,-4.7643,-4.7643,-4.723,-4.6674,-4.6674,-4.6674,-4.6674,-4.6674,-4.6674,-4.6694,-4.6739,-4.7146,-4.7759,-4.8359,-4.8534,-4.8545,-4.8565,-4.7668,-4.6629,-4.6319,-4.6261,-4.6248,-4.599,-4.5937,-4.5941,-4.5953,-4.5997,-4.6027,-4.6027,-4.6084,-4.6216,-4.6508,-4.6578,-4.6703,-4.6976,-4.7527,-4.7908,-4.7908,-4.8445,-4.8907,-4.9185,-4.9267,-4.9414,-4.9664,-4.9684,-4.9687,-4.9684,-5.0205,-5.0521,-5.0586,-5.1113,-5.1113,-5.0507,-5.1092,-5.154,-5.1813,-5.2419,-5.2985,-5.3551,-5.4755,-5.545,-5.5739,-5.6341,-5.6595,-5.6595,-5.6595,-5.6595,-5.6595,-5.6595,-5.6598,-5.6605,-5.6595,-5.6599,-5.6639,-6.1707,-6.1709,-6.1709,-6.1709,-6.1709,-6.1709,-6.169,-6.1697,-6.1387,-6.0508,-6.0371,-5.9746,-5.8086,-5.789,-5.7539,-5.668,-5.6607,-5.6595,-5.6593,-5.6598,-5.6563,-5.6509,-5.6509,-5.6503,-5.6504,-5.4807,-5.391,-5.3891,-5.2233,-5.1414,-5.1394,-5.1394,-5.1369,-5.1291,-5.1289,-5.1312,-5.1306,-5.122,-5.0744,-5.0014,-4.9946,-4.9391,-4.8613,-4.8602,-4.861,-4.8591,-4.8591,-4.8591,-4.8591,-4.8591,-4.8591,-4.8591,-4.861,-4.861,-4.8621,-4.8623,-4.8613,-4.8633,-4.8701,-4.8729,-4.8487,-4.7454,-4.7204,-4.7003,-4.6185,-4.6025,-4.6026,-4.6095,-4.6123,-4.6113,-4.6113,-4.6174,-4.6488,-4.7365,-4.7515,-4.7805,-4.8683,-4.8816,-4.8801,-4.8816,-4.881,-4.9157,-5.0031,-5.0178,-5.0535,-5.1347,-5.1394,-5.1394,-5.1394,-5.1394,-5.1394,-5.1394,-5.1411,-5.1418,-5.1418,-5.1405,-5.1836,-5.2695,-5.2715,-5.3633,-5.5293,-5.5312,-5.578,-5.6593,-5.6593,-5.6593,-5.6593,-5.6593,-5.6593,-5.6593,-5.6593,-5.6598,-5.6601,-5.6601,-5.6599,-5.673,-6.1709,-6.169,-6.169,-6.169,-6.169,-6.1495,-6.087,-6.0799,-6.0474,-5.9604,-5.9,-5.8455,-5.7949,-5.7344,-5.6875,-5.6621,-5.6597,-5.6607,-5.6593,-5.6598,-5.6591,-5.6563,-5.6571,-5.6577,-5.6572,-5.546,-5.4582,-5.3962,-5.2869,-5.2011,-5.1401,-5.1405,-5.1394,-5.1369,-5.1362,-5.1375,-5.1369,-5.1349,-5.116,-5.0918,-5.0891,-5.0369,-4.9575,-4.9585,-4.9206,-4.8662,-4.8662,-4.8662,-4.8672,-4.8662,-4.8671,-4.8788,-4.9391,-4.9585,-4.9683,-5.0247,-5.0422,-5.0422,-5.0452,-5.0452,-5.0092,-4.8623,-4.8253,-4.8039,-4.7174,-4.6989,-4.6814,-4.6221,-4.6625,-4.7077,-4.7077,-4.7593,-4.8106,-4.8359,-4.8415,-4.8504,-4.8757,-4.9332,-4.9712,-4.9712,-5.0243,-5.0734,-5.0992,-5.1035,-5.1144,-5.1372,-5.1402,-5.1394,-5.1394,-5.1394,-5.1394,-5.1394,-5.1984,-5.2319,-5.2319,-5.2306,-5.2448,-5.271,-5.3941,-5.48,-5.5327,-5.5933,-5.6344,-5.66,-5.66,-5.66,-5.66,-5.66,-5.66,-5.66,-5.66,-5.6599,-5.6597,-5.6607,-5.6602,-5.6712,-6.1701,-6.1701,-6.1701,-6.1701,-6.1701,-6.1408,-6.0529,-6.0393,-5.9948,-5.8752,-5.8186,-5.7779,-5.7415,-5.6912,-5.66,-5.66,-5.6601,-5.66,-5.6598,-5.6593,-5.661,-5.6593,-5.6605,-5.6598,-5.6598,-5.5759,-5.488,-5.4002,-5.3123,-5.2241,-5.1394,-5.1401,-5.1391,-5.1391,-5.1391,-5.1391,-5.1391,-5.14,-5.1388,-5.1343,-5.1343,-5.1018,-5.0548,-5.0548,-5.0229,-4.9773,-4.9773,-4.9773,-4.9773,-4.9769,-4.9769,-4.9866,-5.0392,-5.0548,-5.0646,-5.1137,-5.1284,-5.1284,-5.1284,-5.1284,-5.1031,-5.0026,-4.9495,-4.8982,-4.8104,-4.7918,-4.7762,-4.7272,-4.7625,-4.8016,-4.8016,-4.8443,-4.8908,-4.9259,-4.9308,-4.9434,-4.9781,-5.0285,-5.0605,-5.0617,-5.1076,-5.1398,-5.1404,-5.1402,-5.1402,-5.1394,-5.1394,-5.1394,-5.1394,-5.1726,-5.1902,-5.1902,-5.2761,-5.321,-5.321,-5.3561,-5.3721,-5.3731,-5.4805,-5.5469,-5.5824,-5.637,-5.6605,-5.6605,-5.6605,-5.6605,-5.6605,-5.6605,-5.6605,-5.6605,-5.6605,-5.6605,-5.6602,-5.6567,-5.6772,-5.7202,-6.1701,-6.1701,-6.1701,-6.1701,-6.1642,-6.1291,-6.0412,-6.0217,-5.9577,-5.7914,-5.7758,-5.7484,-5.6684,-5.6602,-5.6591,-5.6591,-5.6591,-5.6595,-5.6601,-5.6601,-5.6601,-5.6597,-5.6595,-5.6595,-5.6595,-5.5814,-5.4952,-5.3996,-5.3216,-5.2331,-5.1398,-5.1398,-5.1398,-5.1398,-5.1398,-5.1394,-5.1394,-5.1411,-5.14,-5.14,-5.14,-5.14,-5.14,-5.14,-5.1394,-5.1394,-5.1394,-5.1394,-5.1394,-5.1394,-5.1394,-5.14,-5.14,-5.14,-5.14,-5.1394,-5.1394,-5.1394,-5.1394,-5.1394,-5.1394,-5.1394,-5.0762,-4.9895,-4.9021,-4.8833,-4.8821,-4.8794,-4.8864,-4.8923,-4.8923,-4.8972,-4.9289,-5.0089,-5.0219,-5.0481,-5.1297,-5.1391,-5.1396,-5.1405,-5.1462,-5.152,-5.1515,-5.1584,-5.1626,-5.1629,-5.1629,-5.1625,-5.1625,-5.2386,-5.2819,-5.2819,-5.3654,-5.4103,-5.4103,-5.4962,-5.5376,-5.5298,-5.5376,-5.5825,-5.6606,-5.6606,-5.6606,-5.6606,-5.6606,-5.6606,-5.6582,-5.6582,-5.6582,-5.6582,-5.6582,-5.6641,-5.6699,-5.6645,-5.7166,-5.8044,-6.1701,-6.1701,-6.1701,-6.1701,-6.1134,-6.0393,-5.9514,-5.8792,-5.7992,-5.6996,-5.6879,-5.6801,-5.6626,-5.661,-5.6595,-5.6595,-5.6595,-5.6595,-5.6598,-5.6591,-5.6597,-5.6598,-5.6598,-5.6598,-5.6598,-5.6406,-5.5566,-5.4003,-5.3808,-5.2929,-5.1404,-5.1398,-5.1394,-5.1394,-5.1394,-5.1408,-5.1394,-5.141,-5.1406,-5.1406,-5.1406,-5.1406,-5.1406,-5.1406,-5.1396,-5.1394,-5.1405,-5.14,-5.1394,-5.1394,-5.1411,-5.1406,-5.1406,-5.1406,-5.1406,-5.1391,-5.14,-5.1394,-5.1394,-5.1394,-5.1394,-5.1394,-5.1245,-5.0869,-4.9997,-4.9809,-4.9613,-4.8937,-4.9338,-4.9811,-4.983,-5.0386,-5.0902,-5.1098,-5.1112,-5.1177,-5.1379,-5.1398,-5.1406,-5.1398,-5.2004,-5.2412,-5.2409,-5.3038,-5.3444,-5.345,-5.345,-5.3406,-5.3351,-5.3546,-5.3643,-5.3643,-5.4488,-5.4937,-5.4937,-5.5795,-5.5923,-5.5318,-5.5981,-5.643,-5.6606,-5.6606,-5.6606,-5.6606,-5.6606,-5.6563,-5.6514,-5.6514,-5.6523,-5.6511,-5.6511,-5.694,-5.7545,-5.7519,-5.8065,-5.8949,-6.1701,-6.1701,-6.1564,-6.1154,-6.0705,-5.9963,-5.8675,-5.8089,-5.7504,-5.6704,-5.6606,-5.6606,-5.6606,-5.6606,-5.6606,-5.6606,-5.6606,-5.6606,-5.6606,-5.6595,-5.6602,-5.6602,-5.6602,-5.6602,-5.6602,-5.661,-5.595,-5.4627,-5.4197,-5.332,-5.2012,-5.1581,-5.1404,-5.1404,-5.1404,-5.1402,-5.1396,-5.1391,-5.1408,-5.1408,-5.1408,-5.1408,-5.1408,-5.1408,-5.1402,-5.1394,-5.1398,-5.1394,-5.1394,-5.1394,-5.1398,-5.1408,-5.1408,-5.1408,-5.1405,-5.1406,-5.1396,-5.1396,-5.1396,-5.1396,-5.1396,-5.1396,-5.1396,-5.1274,-5.082,-5.0717,-5.0586,-5.0128,-5.0406,-5.0722,-5.0718,-5.1086,-5.1405,-5.1394,-5.1396,-5.1405,-5.1406,-5.1406,-5.1556,-5.1964,-5.2417,-5.2866,-5.3279,-5.3728,-5.3996,-5.3942,-5.3961,-5.3936,-5.3904,-5.43,-5.4515,-5.4515,-5.5373,-5.5822,-5.5822,-5.627,-5.6296,-5.5884,-5.6333,-5.6548,-5.6548,-5.6548,-5.6548,-5.6548,-5.6548,-5.6523,-5.6497,-5.6497,-5.6491,-5.6543,-5.6953,-5.7402,-5.7843,-5.8226,-5.8921,-5.979,-6.1266,-6.1266,-6.1032,-6.0295,-6.0041,-5.9475,-5.8011,-5.768,-5.7367,-5.6684,-5.6606,-5.6606,-5.6606,-5.6606,-5.6606,-5.6606,-5.6606,-5.6606,-5.6606,-5.6606,-5.6606,-5.6606,-5.6606,-5.6606,-5.6606,-5.6606,-5.6165,-5.5299,-5.4423,-5.3548,-5.2675,-5.1816,-5.1406,-5.1406,-5.1406,-5.1406,-5.1406,-5.1405,-5.1402,-5.14,-5.14,-5.14,-5.14,-5.14,-5.14,-5.14,-5.14,-5.1398,-5.1396,-5.14,-5.14,-5.14,-5.14,-5.14,-5.1398,-5.1408,-5.1402,-5.1398,-5.1398,-5.1398,-5.1398,-5.1398,-5.1398,-5.1394,-5.1396,-5.1396,-5.1406,-5.1398,-5.1398,-5.1398,-5.1394,-5.1391,-5.1398,-5.1394,-5.1404,-5.1442,-5.1593,-5.1623,-5.1958,-5.2819,-5.303,-5.3474,-5.4337,-5.4435,-5.441,-5.4353,-5.4333,-5.4353,-5.4346,-5.5028,-5.5425,-5.5425,-5.6127,-5.6491,-5.6491,-5.6491,-5.6491,-5.6491,-5.6491,-5.6498,-5.6504,-5.6504,-5.6504,-5.6504,-5.6504,-5.6498,-5.6517,-5.6654,-5.6712,-5.6783,-5.7661,-5.809,-5.8324,-5.9128,-5.9882,-6.0604,-5.9455,-5.9455,-5.9402,-5.9295,-5.8656,-5.807,-5.7836,-5.7211,-5.6723,-5.6606,-5.6606,-5.6606,-5.6606,-5.6606,-5.6606,-5.6606,-5.6606,-5.6606,-5.6606,-5.6606,-5.6606,-5.6606,-5.6606,-5.6606,-5.6606,-5.6606,-5.6177,-5.5302,-5.4424,-5.3549,-5.2674,-5.1806,-5.14,-5.14,-5.14,-5.14,-5.14,-5.1402,-5.1405,-5.1406,-5.1406,-5.1406,-5.1406,-5.1406,-5.1406,-5.1406,-5.1406,-5.14,-5.1402,-5.1404,-5.1406,-5.1406,-5.1406,-5.1406,-5.1406,-5.1406,-5.1403,-5.1396,-5.1396,-5.1396,-5.1396,-5.1396,-5.1396,-5.1394,-5.1394,-5.1405,-5.1394,-5.1396,-5.1396,-5.1391,-5.1398,-5.1398,-5.1406,-5.1394,-5.1396,-5.167,-5.2409,-5.2526,-5.2839,-5.3717,-5.445,-5.5196,-5.6075,-5.6153,-5.6166,-5.6145,-5.6145,-5.6157,-5.6141,-5.6258,-5.6316,-5.6316,-5.6433,-5.6492,-5.6492,-5.6492,-5.6492,-5.6492,-5.6492,-5.6496,-5.6504,-5.6504,-5.6504,-5.6504,-5.6504,-5.6491,-5.6554,-5.7322,-5.758,-5.7622,-5.8499,-5.9298,-6.0058,-6.0867,-6.1247,-6.1353,-5.9105,-5.9111,-5.8961,-5.8465,-5.8061,-5.7651,-5.7192,-5.6821,-5.6606,-5.6606,-5.6606,-5.6606,-5.6606,-5.6606,-5.6606,-5.6606,-5.6606,-5.6606,-5.6606,-5.6606,-5.6606,-5.6606,-5.6606,-5.6606,-5.6606,-5.6606,-5.6177,-5.5298,-5.4439,-5.3795,-5.3405,-5.2046,-5.1405,-5.1405,-5.1405,-5.1405,-5.1405,-5.1405,-5.1391,-5.1396,-5.1402,-5.1404,-5.1404,-5.1404,-5.1404,-5.1404,-5.1404,-5.1406,-5.1464,-5.1952,-5.2126,-5.2204,-5.2692,-5.2848,-5.2751,-5.2262,-5.2128,-5.2011,-5.1523,-5.1406,-5.1406,-5.1406,-5.1406,-5.1406,-5.1406,-5.1777,-5.1992,-5.1503,-5.1406,-5.1559,-5.205,-5.2127,-5.2298,-5.2765,-5.2846,-5.2983,-5.3366,-5.3435,-5.3743,-5.4577,-5.5405,-5.6075,-5.6471,-5.6503,-5.6496,-5.65,-5.65,-5.6492,-5.6503,-5.6503,-5.6503,-5.6503,-5.6503,-5.6503,-5.6503,-5.6503,-5.6503,-5.6503,-5.6503,-5.65,-5.6496,-5.6496,-5.6496,-5.6496,-5.6496,-5.6508,-5.6558,-5.7396,-5.7719,-5.7827,-5.9191,-6.0234,-6.1023,-6.1381,-6.1507,-6.1507]}]]